<?xml version="1.0" encoding="UTF-8" standalone="no" ?>
<gpx xmlns="http://www.topografix.com/GPX/1/1" xmlns:xsi="http://www.w3.org/2001/XMLSchema-instance" xsi:schemaLocation="http://www.topografix.com/GPX/1/1 http://www.topografix.com/GPX/1/1/gpx.xsd" version="1.1" creator="VisuGPX - https://www.visugpx.com">
  <metadata>
    <name>VTT LR - 02 OCT 2011 09h17</name>
    <desc><![CDATA[circuit VVT la rochette
apremont - franchard]]></desc>
  </metadata>
  <trk>
    <name><![CDATA[VTT LR : 02 OCT 2011 09:17]]></name>
    <trkseg>
      <trkpt lat="48.51094" lon="2.66173">
        <ele>-41.2</ele>
        <time>2011-10-02T07:17:23Z</time>
      </trkpt>
      <trkpt lat="48.51058" lon="2.66182">
        <ele>-40.24</ele>
        <time>2011-10-02T07:17:36Z</time>
      </trkpt>
      <trkpt lat="48.51014" lon="2.66186">
        <ele>-38.8</ele>
        <time>2011-10-02T07:17:51Z</time>
      </trkpt>
      <trkpt lat="48.50996" lon="2.66191">
        <ele>-37.83</ele>
        <time>2011-10-02T07:17:59Z</time>
      </trkpt>
      <trkpt lat="48.5095" lon="2.66232">
        <ele>-36.39</ele>
        <time>2011-10-02T07:18:15Z</time>
      </trkpt>
      <trkpt lat="48.50927" lon="2.6628">
        <ele>-35.43</ele>
        <time>2011-10-02T07:18:27Z</time>
      </trkpt>
      <trkpt lat="48.50913" lon="2.6632">
        <ele>-35.91</ele>
        <time>2011-10-02T07:18:42Z</time>
      </trkpt>
      <trkpt lat="48.5091" lon="2.6632">
        <ele>-35.91</ele>
        <time>2011-10-02T07:18:46Z</time>
      </trkpt>
      <trkpt lat="48.50907" lon="2.66324">
        <ele>-35.91</ele>
        <time>2011-10-02T07:18:52Z</time>
      </trkpt>
      <trkpt lat="48.50905" lon="2.66322">
        <ele>-35.43</ele>
        <time>2011-10-02T07:18:53Z</time>
      </trkpt>
      <trkpt lat="48.50904" lon="2.66321">
        <ele>-35.43</ele>
        <time>2011-10-02T07:18:54Z</time>
      </trkpt>
      <trkpt lat="48.50856" lon="2.66287">
        <ele>-33.03</ele>
        <time>2011-10-02T07:19:08Z</time>
      </trkpt>
      <trkpt lat="48.50813" lon="2.66246">
        <ele>-31.11</ele>
        <time>2011-10-02T07:19:22Z</time>
      </trkpt>
      <trkpt lat="48.50771" lon="2.66229">
        <ele>-27.74</ele>
        <time>2011-10-02T07:19:32Z</time>
      </trkpt>
      <trkpt lat="48.50743" lon="2.66187">
        <ele>-25.82</ele>
        <time>2011-10-02T07:19:44Z</time>
      </trkpt>
      <trkpt lat="48.50702" lon="2.66136">
        <ele>-24.38</ele>
        <time>2011-10-02T07:19:58Z</time>
      </trkpt>
      <trkpt lat="48.50662" lon="2.66113">
        <ele>-23.41</ele>
        <time>2011-10-02T07:20:10Z</time>
      </trkpt>
      <trkpt lat="48.50623" lon="2.66162">
        <ele>-22.93</ele>
        <time>2011-10-02T07:20:24Z</time>
      </trkpt>
      <trkpt lat="48.5058" lon="2.66211">
        <ele>-21.97</ele>
        <time>2011-10-02T07:20:38Z</time>
      </trkpt>
      <trkpt lat="48.50536" lon="2.66251">
        <ele>-21.49</ele>
        <time>2011-10-02T07:20:53Z</time>
      </trkpt>
      <trkpt lat="48.50495" lon="2.66282">
        <ele>-19.57</ele>
        <time>2011-10-02T07:21:07Z</time>
      </trkpt>
      <trkpt lat="48.50437" lon="2.66316">
        <ele>-18.61</ele>
        <time>2011-10-02T07:21:24Z</time>
      </trkpt>
      <trkpt lat="48.50394" lon="2.66326">
        <ele>-17.17</ele>
        <time>2011-10-02T07:21:39Z</time>
      </trkpt>
      <trkpt lat="48.50383" lon="2.66298">
        <ele>-16.69</ele>
        <time>2011-10-02T07:21:52Z</time>
      </trkpt>
      <trkpt lat="48.5035" lon="2.66252">
        <ele>-17.65</ele>
        <time>2011-10-02T07:22:06Z</time>
      </trkpt>
      <trkpt lat="48.50299" lon="2.66222">
        <ele>-17.17</ele>
        <time>2011-10-02T07:22:18Z</time>
      </trkpt>
      <trkpt lat="48.50262" lon="2.66227">
        <ele>-16.21</ele>
        <time>2011-10-02T07:22:23Z</time>
      </trkpt>
      <trkpt lat="48.50212" lon="2.66247">
        <ele>-16.69</ele>
        <time>2011-10-02T07:22:38Z</time>
      </trkpt>
      <trkpt lat="48.5016" lon="2.66268">
        <ele>-17.17</ele>
        <time>2011-10-02T07:22:52Z</time>
      </trkpt>
      <trkpt lat="48.50105" lon="2.66287">
        <ele>-17.65</ele>
        <time>2011-10-02T07:23:07Z</time>
      </trkpt>
      <trkpt lat="48.50057" lon="2.66304">
        <ele>-17.65</ele>
        <time>2011-10-02T07:23:21Z</time>
      </trkpt>
      <trkpt lat="48.50004" lon="2.66321">
        <ele>-18.13</ele>
        <time>2011-10-02T07:23:34Z</time>
      </trkpt>
      <trkpt lat="48.49959" lon="2.66333">
        <ele>-17.65</ele>
        <time>2011-10-02T07:23:46Z</time>
      </trkpt>
      <trkpt lat="48.49903" lon="2.66351">
        <ele>-17.65</ele>
        <time>2011-10-02T07:24:01Z</time>
      </trkpt>
      <trkpt lat="48.49851" lon="2.66366">
        <ele>-17.17</ele>
        <time>2011-10-02T07:24:14Z</time>
      </trkpt>
      <trkpt lat="48.49804" lon="2.6638">
        <ele>-17.65</ele>
        <time>2011-10-02T07:24:25Z</time>
      </trkpt>
      <trkpt lat="48.49743" lon="2.664">
        <ele>-18.13</ele>
        <time>2011-10-02T07:24:38Z</time>
      </trkpt>
      <trkpt lat="48.49641" lon="2.66432">
        <ele>-19.09</ele>
        <time>2011-10-02T07:24:53Z</time>
      </trkpt>
      <trkpt lat="48.49564" lon="2.66457">
        <ele>-19.09</ele>
        <time>2011-10-02T07:25:05Z</time>
      </trkpt>
      <trkpt lat="48.49491" lon="2.66481">
        <ele>-19.09</ele>
        <time>2011-10-02T07:25:18Z</time>
      </trkpt>
      <trkpt lat="48.49465" lon="2.66489">
        <ele>-19.09</ele>
        <time>2011-10-02T07:25:23Z</time>
      </trkpt>
      <trkpt lat="48.49451" lon="2.66496">
        <ele>-19.09</ele>
        <time>2011-10-02T07:25:26Z</time>
      </trkpt>
      <trkpt lat="48.49432" lon="2.66502">
        <ele>-20.05</ele>
        <time>2011-10-02T07:25:29Z</time>
      </trkpt>
      <trkpt lat="48.49426" lon="2.66505">
        <ele>-20.05</ele>
        <time>2011-10-02T07:25:30Z</time>
      </trkpt>
      <trkpt lat="48.4942" lon="2.66507">
        <ele>-20.05</ele>
        <time>2011-10-02T07:25:31Z</time>
      </trkpt>
      <trkpt lat="48.49359" lon="2.66532">
        <ele>-21.97</ele>
        <time>2011-10-02T07:25:42Z</time>
      </trkpt>
      <trkpt lat="48.49318" lon="2.66546">
        <ele>-21.49</ele>
        <time>2011-10-02T07:25:51Z</time>
      </trkpt>
      <trkpt lat="48.49316" lon="2.66548">
        <ele>-21.49</ele>
        <time>2011-10-02T07:25:52Z</time>
      </trkpt>
      <trkpt lat="48.49311" lon="2.6655">
        <ele>-21.01</ele>
        <time>2011-10-02T07:25:53Z</time>
      </trkpt>
      <trkpt lat="48.49298" lon="2.66557">
        <ele>-20.05</ele>
        <time>2011-10-02T07:25:56Z</time>
      </trkpt>
      <trkpt lat="48.49248" lon="2.66562">
        <ele>-18.61</ele>
        <time>2011-10-02T07:26:04Z</time>
      </trkpt>
      <trkpt lat="48.49232" lon="2.66565">
        <ele>-18.61</ele>
        <time>2011-10-02T07:26:07Z</time>
      </trkpt>
      <trkpt lat="48.49212" lon="2.6657">
        <ele>-18.13</ele>
        <time>2011-10-02T07:26:11Z</time>
      </trkpt>
      <trkpt lat="48.49208" lon="2.66572">
        <ele>-17.65</ele>
        <time>2011-10-02T07:26:12Z</time>
      </trkpt>
      <trkpt lat="48.49199" lon="2.66577">
        <ele>-18.13</ele>
        <time>2011-10-02T07:26:14Z</time>
      </trkpt>
      <trkpt lat="48.49157" lon="2.66609">
        <ele>-16.69</ele>
        <time>2011-10-02T07:26:25Z</time>
      </trkpt>
      <trkpt lat="48.49126" lon="2.66649">
        <ele>-17.17</ele>
        <time>2011-10-02T07:26:36Z</time>
      </trkpt>
      <trkpt lat="48.49085" lon="2.66693">
        <ele>-17.17</ele>
        <time>2011-10-02T07:26:48Z</time>
      </trkpt>
      <trkpt lat="48.49019" lon="2.66752">
        <ele>-16.69</ele>
        <time>2011-10-02T07:27:03Z</time>
      </trkpt>
      <trkpt lat="48.4896" lon="2.66795">
        <ele>-15.24</ele>
        <time>2011-10-02T07:27:17Z</time>
      </trkpt>
      <trkpt lat="48.48928" lon="2.66823">
        <ele>-15.24</ele>
        <time>2011-10-02T07:27:26Z</time>
      </trkpt>
      <trkpt lat="48.48853" lon="2.66882">
        <ele>-14.76</ele>
        <time>2011-10-02T07:27:43Z</time>
      </trkpt>
      <trkpt lat="48.48784" lon="2.66858">
        <ele>-13.8</ele>
        <time>2011-10-02T07:27:58Z</time>
      </trkpt>
      <trkpt lat="48.48709" lon="2.66804">
        <ele>-12.84</ele>
        <time>2011-10-02T07:28:13Z</time>
      </trkpt>
      <trkpt lat="48.48632" lon="2.66761">
        <ele>-11.4</ele>
        <time>2011-10-02T07:28:29Z</time>
      </trkpt>
      <trkpt lat="48.48614" lon="2.66753">
        <ele>-11.88</ele>
        <time>2011-10-02T07:28:32Z</time>
      </trkpt>
      <trkpt lat="48.48558" lon="2.66722">
        <ele>-10.92</ele>
        <time>2011-10-02T07:28:46Z</time>
      </trkpt>
      <trkpt lat="48.48498" lon="2.6669">
        <ele>-9.96</ele>
        <time>2011-10-02T07:29:01Z</time>
      </trkpt>
      <trkpt lat="48.48455" lon="2.66668">
        <ele>-8.51</ele>
        <time>2011-10-02T07:29:15Z</time>
      </trkpt>
      <trkpt lat="48.48395" lon="2.6664">
        <ele>-7.07</ele>
        <time>2011-10-02T07:29:29Z</time>
      </trkpt>
      <trkpt lat="48.48341" lon="2.66646">
        <ele>-7.55</ele>
        <time>2011-10-02T07:29:44Z</time>
      </trkpt>
      <trkpt lat="48.48318" lon="2.66601">
        <ele>-6.59</ele>
        <time>2011-10-02T07:29:57Z</time>
      </trkpt>
      <trkpt lat="48.48324" lon="2.6657">
        <ele>-6.59</ele>
        <time>2011-10-02T07:30:09Z</time>
      </trkpt>
      <trkpt lat="48.48325" lon="2.66568">
        <ele>-6.11</ele>
        <time>2011-10-02T07:30:25Z</time>
      </trkpt>
      <trkpt lat="48.48328" lon="2.66571">
        <ele>-6.59</ele>
        <time>2011-10-02T07:30:40Z</time>
      </trkpt>
      <trkpt lat="48.48307" lon="2.66566">
        <ele>-6.59</ele>
        <time>2011-10-02T07:30:54Z</time>
      </trkpt>
      <trkpt lat="48.48288" lon="2.66559">
        <ele>-6.11</ele>
        <time>2011-10-02T07:31:17Z</time>
      </trkpt>
      <trkpt lat="48.48284" lon="2.6656">
        <ele>-5.63</ele>
        <time>2011-10-02T07:31:23Z</time>
      </trkpt>
      <trkpt lat="48.48283" lon="2.66563">
        <ele>-5.15</ele>
        <time>2011-10-02T07:31:47Z</time>
      </trkpt>
      <trkpt lat="48.48283" lon="2.66565">
        <ele>-4.67</ele>
        <time>2011-10-02T07:32:11Z</time>
      </trkpt>
      <trkpt lat="48.48282" lon="2.66567">
        <ele>-3.71</ele>
        <time>2011-10-02T07:32:32Z</time>
      </trkpt>
      <trkpt lat="48.48282" lon="2.66567">
        <ele>-3.71</ele>
        <time>2011-10-02T07:32:59Z</time>
      </trkpt>
      <trkpt lat="48.48288" lon="2.66569">
        <ele>-2.27</ele>
        <time>2011-10-02T07:33:29Z</time>
      </trkpt>
      <trkpt lat="48.48288" lon="2.66569">
        <ele>-0.34</ele>
        <time>2011-10-02T07:33:58Z</time>
      </trkpt>
      <trkpt lat="48.48288" lon="2.6657">
        <ele>1.1</ele>
        <time>2011-10-02T07:34:29Z</time>
      </trkpt>
      <trkpt lat="48.48289" lon="2.66572">
        <ele>2.06</ele>
        <time>2011-10-02T07:34:57Z</time>
      </trkpt>
      <trkpt lat="48.4829" lon="2.66573">
        <ele>2.06</ele>
        <time>2011-10-02T07:34:58Z</time>
      </trkpt>
      <trkpt lat="48.48297" lon="2.66572">
        <ele>3.02</ele>
        <time>2011-10-02T07:35:09Z</time>
      </trkpt>
      <trkpt lat="48.48299" lon="2.66572">
        <ele>2.54</ele>
        <time>2011-10-02T07:35:10Z</time>
      </trkpt>
      <trkpt lat="48.48302" lon="2.66571">
        <ele>3.02</ele>
        <time>2011-10-02T07:35:11Z</time>
      </trkpt>
      <trkpt lat="48.48305" lon="2.6657">
        <ele>2.54</ele>
        <time>2011-10-02T07:35:12Z</time>
      </trkpt>
      <trkpt lat="48.48308" lon="2.66569">
        <ele>3.02</ele>
        <time>2011-10-02T07:35:13Z</time>
      </trkpt>
      <trkpt lat="48.48311" lon="2.66569">
        <ele>2.54</ele>
        <time>2011-10-02T07:35:14Z</time>
      </trkpt>
      <trkpt lat="48.48343" lon="2.66535">
        <ele>4.46</ele>
        <time>2011-10-02T07:35:27Z</time>
      </trkpt>
      <trkpt lat="48.48366" lon="2.66442">
        <ele>6.87</ele>
        <time>2011-10-02T07:35:43Z</time>
      </trkpt>
      <trkpt lat="48.4837" lon="2.66421">
        <ele>7.35</ele>
        <time>2011-10-02T07:35:46Z</time>
      </trkpt>
      <trkpt lat="48.48372" lon="2.66406">
        <ele>7.83</ele>
        <time>2011-10-02T07:35:48Z</time>
      </trkpt>
      <trkpt lat="48.48373" lon="2.66399">
        <ele>7.35</ele>
        <time>2011-10-02T07:35:49Z</time>
      </trkpt>
      <trkpt lat="48.48374" lon="2.66392">
        <ele>7.83</ele>
        <time>2011-10-02T07:35:50Z</time>
      </trkpt>
      <trkpt lat="48.48381" lon="2.66361">
        <ele>8.31</ele>
        <time>2011-10-02T07:35:55Z</time>
      </trkpt>
      <trkpt lat="48.48397" lon="2.66259">
        <ele>3.98</ele>
        <time>2011-10-02T07:36:09Z</time>
      </trkpt>
      <trkpt lat="48.48401" lon="2.66242">
        <ele>1.1</ele>
        <time>2011-10-02T07:36:11Z</time>
      </trkpt>
      <trkpt lat="48.48404" lon="2.66217">
        <ele>-1.79</ele>
        <time>2011-10-02T07:36:13Z</time>
      </trkpt>
      <trkpt lat="48.48407" lon="2.66202">
        <ele>-2.27</ele>
        <time>2011-10-02T07:36:14Z</time>
      </trkpt>
      <trkpt lat="48.4841" lon="2.66186">
        <ele>-2.27</ele>
        <time>2011-10-02T07:36:15Z</time>
      </trkpt>
      <trkpt lat="48.48414" lon="2.6617">
        <ele>-3.71</ele>
        <time>2011-10-02T07:36:16Z</time>
      </trkpt>
      <trkpt lat="48.48418" lon="2.66155">
        <ele>-3.23</ele>
        <time>2011-10-02T07:36:17Z</time>
      </trkpt>
      <trkpt lat="48.4845" lon="2.66034">
        <ele>-3.23</ele>
        <time>2011-10-02T07:36:27Z</time>
      </trkpt>
      <trkpt lat="48.48456" lon="2.66018">
        <ele>-2.27</ele>
        <time>2011-10-02T07:36:29Z</time>
      </trkpt>
      <trkpt lat="48.48462" lon="2.65991">
        <ele>-2.27</ele>
        <time>2011-10-02T07:36:32Z</time>
      </trkpt>
      <trkpt lat="48.48479" lon="2.65852">
        <ele>-1.3</ele>
        <time>2011-10-02T07:36:46Z</time>
      </trkpt>
      <trkpt lat="48.48496" lon="2.65722">
        <ele>-1.3</ele>
        <time>2011-10-02T07:37:00Z</time>
      </trkpt>
      <trkpt lat="48.48505" lon="2.65657">
        <ele>-0.34</ele>
        <time>2011-10-02T07:37:08Z</time>
      </trkpt>
      <trkpt lat="48.48505" lon="2.65628">
        <ele>-0.34</ele>
        <time>2011-10-02T07:37:12Z</time>
      </trkpt>
      <trkpt lat="48.4851" lon="2.65586">
        <ele>0.14</ele>
        <time>2011-10-02T07:37:18Z</time>
      </trkpt>
      <trkpt lat="48.48511" lon="2.6558">
        <ele>0.14</ele>
        <time>2011-10-02T07:37:19Z</time>
      </trkpt>
      <trkpt lat="48.48523" lon="2.65489">
        <ele>0.62</ele>
        <time>2011-10-02T07:37:31Z</time>
      </trkpt>
      <trkpt lat="48.48525" lon="2.65481">
        <ele>0.14</ele>
        <time>2011-10-02T07:37:32Z</time>
      </trkpt>
      <trkpt lat="48.48527" lon="2.65472">
        <ele>0.62</ele>
        <time>2011-10-02T07:37:33Z</time>
      </trkpt>
      <trkpt lat="48.48546" lon="2.65336">
        <ele>1.1</ele>
        <time>2011-10-02T07:37:48Z</time>
      </trkpt>
      <trkpt lat="48.48551" lon="2.65272">
        <ele>1.58</ele>
        <time>2011-10-02T07:37:56Z</time>
      </trkpt>
      <trkpt lat="48.48551" lon="2.65265">
        <ele>1.58</ele>
        <time>2011-10-02T07:37:57Z</time>
      </trkpt>
      <trkpt lat="48.4855" lon="2.65249">
        <ele>2.06</ele>
        <time>2011-10-02T07:37:59Z</time>
      </trkpt>
      <trkpt lat="48.48557" lon="2.65124">
        <ele>3.02</ele>
        <time>2011-10-02T07:38:15Z</time>
      </trkpt>
      <trkpt lat="48.4856" lon="2.65083">
        <ele>3.02</ele>
        <time>2011-10-02T07:38:22Z</time>
      </trkpt>
      <trkpt lat="48.48559" lon="2.65075">
        <ele>3.02</ele>
        <time>2011-10-02T07:38:23Z</time>
      </trkpt>
      <trkpt lat="48.48559" lon="2.65067">
        <ele>2.54</ele>
        <time>2011-10-02T07:38:24Z</time>
      </trkpt>
      <trkpt lat="48.48565" lon="2.6494">
        <ele>3.02</ele>
        <time>2011-10-02T07:38:38Z</time>
      </trkpt>
      <trkpt lat="48.48573" lon="2.648">
        <ele>2.54</ele>
        <time>2011-10-02T07:38:53Z</time>
      </trkpt>
      <trkpt lat="48.4858" lon="2.64679">
        <ele>1.1</ele>
        <time>2011-10-02T07:39:05Z</time>
      </trkpt>
      <trkpt lat="48.48581" lon="2.64658">
        <ele>1.1</ele>
        <time>2011-10-02T07:39:07Z</time>
      </trkpt>
      <trkpt lat="48.48581" lon="2.64647">
        <ele>0.62</ele>
        <time>2011-10-02T07:39:08Z</time>
      </trkpt>
      <trkpt lat="48.48584" lon="2.64616">
        <ele>-0.82</ele>
        <time>2011-10-02T07:39:11Z</time>
      </trkpt>
      <trkpt lat="48.48586" lon="2.64606">
        <ele>-1.79</ele>
        <time>2011-10-02T07:39:12Z</time>
      </trkpt>
      <trkpt lat="48.48587" lon="2.64595">
        <ele>-1.79</ele>
        <time>2011-10-02T07:39:13Z</time>
      </trkpt>
      <trkpt lat="48.48591" lon="2.64557">
        <ele>-0.82</ele>
        <time>2011-10-02T07:39:17Z</time>
      </trkpt>
      <trkpt lat="48.48595" lon="2.64467">
        <ele>1.58</ele>
        <time>2011-10-02T07:39:28Z</time>
      </trkpt>
      <trkpt lat="48.48594" lon="2.64403">
        <ele>3.02</ele>
        <time>2011-10-02T07:39:40Z</time>
      </trkpt>
      <trkpt lat="48.48592" lon="2.64401">
        <ele>3.5</ele>
        <time>2011-10-02T07:39:53Z</time>
      </trkpt>
      <trkpt lat="48.48574" lon="2.64381">
        <ele>3.5</ele>
        <time>2011-10-02T07:40:03Z</time>
      </trkpt>
      <trkpt lat="48.48529" lon="2.64337">
        <ele>3.98</ele>
        <time>2011-10-02T07:40:15Z</time>
      </trkpt>
      <trkpt lat="48.48501" lon="2.64311">
        <ele>3.5</ele>
        <time>2011-10-02T07:40:21Z</time>
      </trkpt>
      <trkpt lat="48.48481" lon="2.64294">
        <ele>3.02</ele>
        <time>2011-10-02T07:40:25Z</time>
      </trkpt>
      <trkpt lat="48.4846" lon="2.64275">
        <ele>1.1</ele>
        <time>2011-10-02T07:40:29Z</time>
      </trkpt>
      <trkpt lat="48.48438" lon="2.64254">
        <ele>-0.82</ele>
        <time>2011-10-02T07:40:33Z</time>
      </trkpt>
      <trkpt lat="48.48431" lon="2.64249">
        <ele>-1.79</ele>
        <time>2011-10-02T07:40:34Z</time>
      </trkpt>
      <trkpt lat="48.48362" lon="2.64187">
        <ele>-4.19</ele>
        <time>2011-10-02T07:40:45Z</time>
      </trkpt>
      <trkpt lat="48.48312" lon="2.64138">
        <ele>-3.71</ele>
        <time>2011-10-02T07:40:56Z</time>
      </trkpt>
      <trkpt lat="48.4827" lon="2.64099">
        <ele>-3.71</ele>
        <time>2011-10-02T07:41:04Z</time>
      </trkpt>
      <trkpt lat="48.48265" lon="2.64095">
        <ele>-4.19</ele>
        <time>2011-10-02T07:41:05Z</time>
      </trkpt>
      <trkpt lat="48.48215" lon="2.64049">
        <ele>-4.19</ele>
        <time>2011-10-02T07:41:15Z</time>
      </trkpt>
      <trkpt lat="48.48184" lon="2.64021">
        <ele>-3.71</ele>
        <time>2011-10-02T07:41:21Z</time>
      </trkpt>
      <trkpt lat="48.48168" lon="2.6401">
        <ele>-3.71</ele>
        <time>2011-10-02T07:41:24Z</time>
      </trkpt>
      <trkpt lat="48.4816" lon="2.64003">
        <ele>-4.19</ele>
        <time>2011-10-02T07:41:26Z</time>
      </trkpt>
      <trkpt lat="48.4814" lon="2.63973">
        <ele>-4.67</ele>
        <time>2011-10-02T07:41:31Z</time>
      </trkpt>
      <trkpt lat="48.48103" lon="2.63929">
        <ele>-4.67</ele>
        <time>2011-10-02T07:41:38Z</time>
      </trkpt>
      <trkpt lat="48.48095" lon="2.63917">
        <ele>-4.67</ele>
        <time>2011-10-02T07:41:40Z</time>
      </trkpt>
      <trkpt lat="48.48091" lon="2.63911">
        <ele>-4.67</ele>
        <time>2011-10-02T07:41:41Z</time>
      </trkpt>
      <trkpt lat="48.48056" lon="2.63862">
        <ele>-4.19</ele>
        <time>2011-10-02T07:41:49Z</time>
      </trkpt>
      <trkpt lat="48.48053" lon="2.63856">
        <ele>-3.71</ele>
        <time>2011-10-02T07:41:50Z</time>
      </trkpt>
      <trkpt lat="48.48049" lon="2.63849">
        <ele>-4.19</ele>
        <time>2011-10-02T07:41:51Z</time>
      </trkpt>
      <trkpt lat="48.4804" lon="2.63837">
        <ele>-3.23</ele>
        <time>2011-10-02T07:41:53Z</time>
      </trkpt>
      <trkpt lat="48.48035" lon="2.63831">
        <ele>-3.23</ele>
        <time>2011-10-02T07:41:54Z</time>
      </trkpt>
      <trkpt lat="48.47987" lon="2.63771">
        <ele>-3.23</ele>
        <time>2011-10-02T07:42:04Z</time>
      </trkpt>
      <trkpt lat="48.47939" lon="2.63712">
        <ele>-3.23</ele>
        <time>2011-10-02T07:42:14Z</time>
      </trkpt>
      <trkpt lat="48.47921" lon="2.63692">
        <ele>-3.23</ele>
        <time>2011-10-02T07:42:18Z</time>
      </trkpt>
      <trkpt lat="48.47916" lon="2.63689">
        <ele>-3.23</ele>
        <time>2011-10-02T07:42:19Z</time>
      </trkpt>
      <trkpt lat="48.4791" lon="2.63687">
        <ele>-3.23</ele>
        <time>2011-10-02T07:42:20Z</time>
      </trkpt>
      <trkpt lat="48.47905" lon="2.63687">
        <ele>-3.23</ele>
        <time>2011-10-02T07:42:21Z</time>
      </trkpt>
      <trkpt lat="48.479" lon="2.63687">
        <ele>-3.71</ele>
        <time>2011-10-02T07:42:22Z</time>
      </trkpt>
      <trkpt lat="48.47895" lon="2.63688">
        <ele>-3.23</ele>
        <time>2011-10-02T07:42:23Z</time>
      </trkpt>
      <trkpt lat="48.47867" lon="2.63692">
        <ele>-3.23</ele>
        <time>2011-10-02T07:42:28Z</time>
      </trkpt>
      <trkpt lat="48.47815" lon="2.63699">
        <ele>-2.75</ele>
        <time>2011-10-02T07:42:36Z</time>
      </trkpt>
      <trkpt lat="48.47809" lon="2.63698">
        <ele>-3.23</ele>
        <time>2011-10-02T07:42:37Z</time>
      </trkpt>
      <trkpt lat="48.47804" lon="2.63698">
        <ele>-2.75</ele>
        <time>2011-10-02T07:42:38Z</time>
      </trkpt>
      <trkpt lat="48.47791" lon="2.63698">
        <ele>-2.27</ele>
        <time>2011-10-02T07:42:40Z</time>
      </trkpt>
      <trkpt lat="48.47729" lon="2.63706">
        <ele>-2.27</ele>
        <time>2011-10-02T07:42:50Z</time>
      </trkpt>
      <trkpt lat="48.47712" lon="2.63707">
        <ele>-1.79</ele>
        <time>2011-10-02T07:42:53Z</time>
      </trkpt>
      <trkpt lat="48.47707" lon="2.63707">
        <ele>-1.79</ele>
        <time>2011-10-02T07:42:54Z</time>
      </trkpt>
      <trkpt lat="48.47681" lon="2.63714">
        <ele>-1.3</ele>
        <time>2011-10-02T07:43:03Z</time>
      </trkpt>
      <trkpt lat="48.47652" lon="2.63717">
        <ele>-1.79</ele>
        <time>2011-10-02T07:43:11Z</time>
      </trkpt>
      <trkpt lat="48.47648" lon="2.63717">
        <ele>-1.79</ele>
        <time>2011-10-02T07:43:12Z</time>
      </trkpt>
      <trkpt lat="48.47634" lon="2.63719">
        <ele>-2.27</ele>
        <time>2011-10-02T07:43:15Z</time>
      </trkpt>
      <trkpt lat="48.47617" lon="2.6372">
        <ele>-1.3</ele>
        <time>2011-10-02T07:43:18Z</time>
      </trkpt>
      <trkpt lat="48.47606" lon="2.63721">
        <ele>-1.3</ele>
        <time>2011-10-02T07:43:20Z</time>
      </trkpt>
      <trkpt lat="48.47601" lon="2.63722">
        <ele>-1.3</ele>
        <time>2011-10-02T07:43:21Z</time>
      </trkpt>
      <trkpt lat="48.47595" lon="2.63723">
        <ele>-1.3</ele>
        <time>2011-10-02T07:43:22Z</time>
      </trkpt>
      <trkpt lat="48.47543" lon="2.63733">
        <ele>-0.82</ele>
        <time>2011-10-02T07:43:32Z</time>
      </trkpt>
      <trkpt lat="48.47498" lon="2.63739">
        <ele>-1.79</ele>
        <time>2011-10-02T07:43:40Z</time>
      </trkpt>
      <trkpt lat="48.47492" lon="2.6374">
        <ele>-1.79</ele>
        <time>2011-10-02T07:43:41Z</time>
      </trkpt>
      <trkpt lat="48.47486" lon="2.63741">
        <ele>-1.3</ele>
        <time>2011-10-02T07:43:42Z</time>
      </trkpt>
      <trkpt lat="48.4748" lon="2.63741">
        <ele>-1.79</ele>
        <time>2011-10-02T07:43:43Z</time>
      </trkpt>
      <trkpt lat="48.47473" lon="2.63741">
        <ele>-1.3</ele>
        <time>2011-10-02T07:43:44Z</time>
      </trkpt>
      <trkpt lat="48.47454" lon="2.63741">
        <ele>-1.79</ele>
        <time>2011-10-02T07:43:47Z</time>
      </trkpt>
      <trkpt lat="48.47431" lon="2.63745">
        <ele>-1.79</ele>
        <time>2011-10-02T07:43:51Z</time>
      </trkpt>
      <trkpt lat="48.47387" lon="2.6375">
        <ele>-1.3</ele>
        <time>2011-10-02T07:43:59Z</time>
      </trkpt>
      <trkpt lat="48.47382" lon="2.63751">
        <ele>-1.3</ele>
        <time>2011-10-02T07:44:00Z</time>
      </trkpt>
      <trkpt lat="48.47377" lon="2.63753">
        <ele>-1.3</ele>
        <time>2011-10-02T07:44:01Z</time>
      </trkpt>
      <trkpt lat="48.47371" lon="2.63755">
        <ele>-0.82</ele>
        <time>2011-10-02T07:44:02Z</time>
      </trkpt>
      <trkpt lat="48.47366" lon="2.63756">
        <ele>-1.3</ele>
        <time>2011-10-02T07:44:03Z</time>
      </trkpt>
      <trkpt lat="48.4732" lon="2.63763">
        <ele>-0.82</ele>
        <time>2011-10-02T07:44:11Z</time>
      </trkpt>
      <trkpt lat="48.47315" lon="2.63763">
        <ele>-0.82</ele>
        <time>2011-10-02T07:44:12Z</time>
      </trkpt>
      <trkpt lat="48.47294" lon="2.63768">
        <ele>-0.82</ele>
        <time>2011-10-02T07:44:16Z</time>
      </trkpt>
      <trkpt lat="48.47288" lon="2.63768">
        <ele>-0.82</ele>
        <time>2011-10-02T07:44:17Z</time>
      </trkpt>
      <trkpt lat="48.47281" lon="2.63768">
        <ele>-0.82</ele>
        <time>2011-10-02T07:44:18Z</time>
      </trkpt>
      <trkpt lat="48.47274" lon="2.63768">
        <ele>-0.82</ele>
        <time>2011-10-02T07:44:19Z</time>
      </trkpt>
      <trkpt lat="48.47267" lon="2.63769">
        <ele>-0.82</ele>
        <time>2011-10-02T07:44:20Z</time>
      </trkpt>
      <trkpt lat="48.4725" lon="2.63771">
        <ele>-0.82</ele>
        <time>2011-10-02T07:44:23Z</time>
      </trkpt>
      <trkpt lat="48.47243" lon="2.63772">
        <ele>-0.82</ele>
        <time>2011-10-02T07:44:24Z</time>
      </trkpt>
      <trkpt lat="48.47201" lon="2.63781">
        <ele>-0.34</ele>
        <time>2011-10-02T07:44:32Z</time>
      </trkpt>
      <trkpt lat="48.47195" lon="2.63781">
        <ele>-0.34</ele>
        <time>2011-10-02T07:44:33Z</time>
      </trkpt>
      <trkpt lat="48.47112" lon="2.63793">
        <ele>-0.34</ele>
        <time>2011-10-02T07:44:46Z</time>
      </trkpt>
      <trkpt lat="48.47051" lon="2.63805">
        <ele>-0.82</ele>
        <time>2011-10-02T07:44:57Z</time>
      </trkpt>
      <trkpt lat="48.47043" lon="2.63805">
        <ele>-0.82</ele>
        <time>2011-10-02T07:44:58Z</time>
      </trkpt>
      <trkpt lat="48.47036" lon="2.63805">
        <ele>-0.82</ele>
        <time>2011-10-02T07:44:59Z</time>
      </trkpt>
      <trkpt lat="48.47009" lon="2.63808">
        <ele>-1.3</ele>
        <time>2011-10-02T07:45:03Z</time>
      </trkpt>
      <trkpt lat="48.47001" lon="2.63808">
        <ele>-1.3</ele>
        <time>2011-10-02T07:45:04Z</time>
      </trkpt>
      <trkpt lat="48.46994" lon="2.63809">
        <ele>-1.3</ele>
        <time>2011-10-02T07:45:05Z</time>
      </trkpt>
      <trkpt lat="48.4696" lon="2.63815">
        <ele>-0.82</ele>
        <time>2011-10-02T07:45:11Z</time>
      </trkpt>
      <trkpt lat="48.46905" lon="2.63819">
        <ele>-0.82</ele>
        <time>2011-10-02T07:45:19Z</time>
      </trkpt>
      <trkpt lat="48.46898" lon="2.6382">
        <ele>-0.82</ele>
        <time>2011-10-02T07:45:20Z</time>
      </trkpt>
      <trkpt lat="48.46886" lon="2.63822">
        <ele>-0.34</ele>
        <time>2011-10-02T07:45:22Z</time>
      </trkpt>
      <trkpt lat="48.46875" lon="2.63825">
        <ele>-0.82</ele>
        <time>2011-10-02T07:45:24Z</time>
      </trkpt>
      <trkpt lat="48.46849" lon="2.63828">
        <ele>0.14</ele>
        <time>2011-10-02T07:45:28Z</time>
      </trkpt>
      <trkpt lat="48.46845" lon="2.63829">
        <ele>0.14</ele>
        <time>2011-10-02T07:45:29Z</time>
      </trkpt>
      <trkpt lat="48.46783" lon="2.63834">
        <ele>0.62</ele>
        <time>2011-10-02T07:45:39Z</time>
      </trkpt>
      <trkpt lat="48.46745" lon="2.63839">
        <ele>0.62</ele>
        <time>2011-10-02T07:45:45Z</time>
      </trkpt>
      <trkpt lat="48.46712" lon="2.63844">
        <ele>1.1</ele>
        <time>2011-10-02T07:45:50Z</time>
      </trkpt>
      <trkpt lat="48.46706" lon="2.63846">
        <ele>1.1</ele>
        <time>2011-10-02T07:45:51Z</time>
      </trkpt>
      <trkpt lat="48.46687" lon="2.63851">
        <ele>3.5</ele>
        <time>2011-10-02T07:45:55Z</time>
      </trkpt>
      <trkpt lat="48.46677" lon="2.63853">
        <ele>4.46</ele>
        <time>2011-10-02T07:45:57Z</time>
      </trkpt>
      <trkpt lat="48.46672" lon="2.63853">
        <ele>4.46</ele>
        <time>2011-10-02T07:45:58Z</time>
      </trkpt>
      <trkpt lat="48.46667" lon="2.63854">
        <ele>4.46</ele>
        <time>2011-10-02T07:45:59Z</time>
      </trkpt>
      <trkpt lat="48.46627" lon="2.63857">
        <ele>6.87</ele>
        <time>2011-10-02T07:46:09Z</time>
      </trkpt>
      <trkpt lat="48.4656" lon="2.63865">
        <ele>8.31</ele>
        <time>2011-10-02T07:46:23Z</time>
      </trkpt>
      <trkpt lat="48.46536" lon="2.63869">
        <ele>8.79</ele>
        <time>2011-10-02T07:46:28Z</time>
      </trkpt>
      <trkpt lat="48.46532" lon="2.6387">
        <ele>9.27</ele>
        <time>2011-10-02T07:46:29Z</time>
      </trkpt>
      <trkpt lat="48.46527" lon="2.63871">
        <ele>9.27</ele>
        <time>2011-10-02T07:46:30Z</time>
      </trkpt>
      <trkpt lat="48.46503" lon="2.63869">
        <ele>13.12</ele>
        <time>2011-10-02T07:46:40Z</time>
      </trkpt>
      <trkpt lat="48.46472" lon="2.63878">
        <ele>12.63</ele>
        <time>2011-10-02T07:46:51Z</time>
      </trkpt>
      <trkpt lat="48.46431" lon="2.63886">
        <ele>12.15</ele>
        <time>2011-10-02T07:47:02Z</time>
      </trkpt>
      <trkpt lat="48.46429" lon="2.63887">
        <ele>12.15</ele>
        <time>2011-10-02T07:47:11Z</time>
      </trkpt>
      <trkpt lat="48.46426" lon="2.63888">
        <ele>12.15</ele>
        <time>2011-10-02T07:47:13Z</time>
      </trkpt>
      <trkpt lat="48.46424" lon="2.63889">
        <ele>12.15</ele>
        <time>2011-10-02T07:47:14Z</time>
      </trkpt>
      <trkpt lat="48.46422" lon="2.63889">
        <ele>11.67</ele>
        <time>2011-10-02T07:47:15Z</time>
      </trkpt>
      <trkpt lat="48.46371" lon="2.63895">
        <ele>12.63</ele>
        <time>2011-10-02T07:47:28Z</time>
      </trkpt>
      <trkpt lat="48.46365" lon="2.63896">
        <ele>12.63</ele>
        <time>2011-10-02T07:47:29Z</time>
      </trkpt>
      <trkpt lat="48.46301" lon="2.63907">
        <ele>14.56</ele>
        <time>2011-10-02T07:47:42Z</time>
      </trkpt>
      <trkpt lat="48.46266" lon="2.63918">
        <ele>16</ele>
        <time>2011-10-02T07:47:54Z</time>
      </trkpt>
      <trkpt lat="48.46237" lon="2.63926">
        <ele>17.44</ele>
        <time>2011-10-02T07:48:06Z</time>
      </trkpt>
      <trkpt lat="48.46192" lon="2.63934">
        <ele>19.36</ele>
        <time>2011-10-02T07:48:20Z</time>
      </trkpt>
      <trkpt lat="48.46153" lon="2.63939">
        <ele>20.81</ele>
        <time>2011-10-02T07:48:32Z</time>
      </trkpt>
      <trkpt lat="48.46125" lon="2.63944">
        <ele>22.73</ele>
        <time>2011-10-02T07:48:43Z</time>
      </trkpt>
      <trkpt lat="48.46094" lon="2.63942">
        <ele>25.61</ele>
        <time>2011-10-02T07:48:53Z</time>
      </trkpt>
      <trkpt lat="48.46087" lon="2.6394">
        <ele>26.09</ele>
        <time>2011-10-02T07:49:05Z</time>
      </trkpt>
      <trkpt lat="48.46087" lon="2.6394">
        <ele>26.57</ele>
        <time>2011-10-02T07:49:24Z</time>
      </trkpt>
      <trkpt lat="48.46087" lon="2.6394">
        <ele>27.53</ele>
        <time>2011-10-02T07:49:43Z</time>
      </trkpt>
      <trkpt lat="48.46086" lon="2.63939">
        <ele>27.53</ele>
        <time>2011-10-02T07:49:51Z</time>
      </trkpt>
      <trkpt lat="48.46083" lon="2.6394">
        <ele>28.02</ele>
        <time>2011-10-02T07:49:57Z</time>
      </trkpt>
      <trkpt lat="48.46061" lon="2.63965">
        <ele>29.46</ele>
        <time>2011-10-02T07:50:07Z</time>
      </trkpt>
      <trkpt lat="48.46031" lon="2.63999">
        <ele>32.34</ele>
        <time>2011-10-02T07:50:21Z</time>
      </trkpt>
      <trkpt lat="48.46015" lon="2.64013">
        <ele>34.74</ele>
        <time>2011-10-02T07:50:33Z</time>
      </trkpt>
      <trkpt lat="48.46011" lon="2.64017">
        <ele>35.23</ele>
        <time>2011-10-02T07:50:48Z</time>
      </trkpt>
      <trkpt lat="48.4601" lon="2.64019">
        <ele>36.19</ele>
        <time>2011-10-02T07:50:49Z</time>
      </trkpt>
      <trkpt lat="48.46009" lon="2.6402">
        <ele>36.19</ele>
        <time>2011-10-02T07:50:50Z</time>
      </trkpt>
      <trkpt lat="48.46008" lon="2.64022">
        <ele>35.71</ele>
        <time>2011-10-02T07:50:51Z</time>
      </trkpt>
      <trkpt lat="48.45989" lon="2.64048">
        <ele>39.07</ele>
        <time>2011-10-02T07:51:04Z</time>
      </trkpt>
      <trkpt lat="48.45974" lon="2.64071">
        <ele>41.95</ele>
        <time>2011-10-02T07:51:18Z</time>
      </trkpt>
      <trkpt lat="48.45969" lon="2.64098">
        <ele>43.88</ele>
        <time>2011-10-02T07:51:31Z</time>
      </trkpt>
      <trkpt lat="48.45967" lon="2.64127">
        <ele>46.28</ele>
        <time>2011-10-02T07:51:43Z</time>
      </trkpt>
      <trkpt lat="48.45961" lon="2.64147">
        <ele>48.2</ele>
        <time>2011-10-02T07:51:57Z</time>
      </trkpt>
      <trkpt lat="48.4596" lon="2.64148">
        <ele>48.68</ele>
        <time>2011-10-02T07:51:58Z</time>
      </trkpt>
      <trkpt lat="48.45959" lon="2.6415">
        <ele>48.68</ele>
        <time>2011-10-02T07:51:59Z</time>
      </trkpt>
      <trkpt lat="48.45951" lon="2.64166">
        <ele>51.57</ele>
        <time>2011-10-02T07:52:13Z</time>
      </trkpt>
      <trkpt lat="48.45945" lon="2.64168">
        <ele>53.97</ele>
        <time>2011-10-02T07:52:25Z</time>
      </trkpt>
      <trkpt lat="48.45945" lon="2.64157">
        <ele>54.93</ele>
        <time>2011-10-02T07:52:35Z</time>
      </trkpt>
      <trkpt lat="48.45945" lon="2.64154">
        <ele>54.45</ele>
        <time>2011-10-02T07:52:36Z</time>
      </trkpt>
      <trkpt lat="48.45945" lon="2.64151">
        <ele>54.93</ele>
        <time>2011-10-02T07:52:37Z</time>
      </trkpt>
      <trkpt lat="48.45946" lon="2.64148">
        <ele>54.93</ele>
        <time>2011-10-02T07:52:38Z</time>
      </trkpt>
      <trkpt lat="48.45946" lon="2.64145">
        <ele>54.93</ele>
        <time>2011-10-02T07:52:39Z</time>
      </trkpt>
      <trkpt lat="48.4593" lon="2.64123">
        <ele>56.37</ele>
        <time>2011-10-02T07:52:51Z</time>
      </trkpt>
      <trkpt lat="48.45905" lon="2.64119">
        <ele>59.74</ele>
        <time>2011-10-02T07:53:02Z</time>
      </trkpt>
      <trkpt lat="48.45876" lon="2.64116">
        <ele>62.62</ele>
        <time>2011-10-02T07:53:16Z</time>
      </trkpt>
      <trkpt lat="48.4585" lon="2.64116">
        <ele>63.58</ele>
        <time>2011-10-02T07:53:29Z</time>
      </trkpt>
      <trkpt lat="48.45813" lon="2.64116">
        <ele>65.03</ele>
        <time>2011-10-02T07:53:42Z</time>
      </trkpt>
      <trkpt lat="48.45784" lon="2.64078">
        <ele>65.99</ele>
        <time>2011-10-02T07:53:54Z</time>
      </trkpt>
      <trkpt lat="48.45758" lon="2.6401">
        <ele>67.43</ele>
        <time>2011-10-02T07:54:08Z</time>
      </trkpt>
      <trkpt lat="48.45757" lon="2.64004">
        <ele>67.43</ele>
        <time>2011-10-02T07:54:09Z</time>
      </trkpt>
      <trkpt lat="48.45755" lon="2.63955">
        <ele>67.43</ele>
        <time>2011-10-02T07:54:17Z</time>
      </trkpt>
      <trkpt lat="48.45758" lon="2.63887">
        <ele>67.43</ele>
        <time>2011-10-02T07:54:27Z</time>
      </trkpt>
      <trkpt lat="48.4577" lon="2.63849">
        <ele>67.43</ele>
        <time>2011-10-02T07:54:38Z</time>
      </trkpt>
      <trkpt lat="48.45771" lon="2.63847">
        <ele>68.39</ele>
        <time>2011-10-02T07:55:04Z</time>
      </trkpt>
      <trkpt lat="48.45771" lon="2.63847">
        <ele>68.87</ele>
        <time>2011-10-02T07:55:27Z</time>
      </trkpt>
      <trkpt lat="48.45773" lon="2.63841">
        <ele>67.43</ele>
        <time>2011-10-02T07:55:45Z</time>
      </trkpt>
      <trkpt lat="48.45775" lon="2.63837">
        <ele>65.99</ele>
        <time>2011-10-02T07:55:47Z</time>
      </trkpt>
      <trkpt lat="48.45778" lon="2.63829">
        <ele>64.55</ele>
        <time>2011-10-02T07:55:50Z</time>
      </trkpt>
      <trkpt lat="48.45783" lon="2.63808">
        <ele>62.14</ele>
        <time>2011-10-02T07:56:03Z</time>
      </trkpt>
      <trkpt lat="48.45784" lon="2.63806">
        <ele>59.74</ele>
        <time>2011-10-02T07:56:16Z</time>
      </trkpt>
      <trkpt lat="48.45785" lon="2.63805">
        <ele>58.78</ele>
        <time>2011-10-02T07:56:17Z</time>
      </trkpt>
      <trkpt lat="48.45786" lon="2.63801">
        <ele>57.82</ele>
        <time>2011-10-02T07:56:19Z</time>
      </trkpt>
      <trkpt lat="48.45788" lon="2.63797">
        <ele>56.86</ele>
        <time>2011-10-02T07:56:21Z</time>
      </trkpt>
      <trkpt lat="48.45788" lon="2.63793">
        <ele>56.86</ele>
        <time>2011-10-02T07:56:23Z</time>
      </trkpt>
      <trkpt lat="48.45792" lon="2.63779">
        <ele>54.93</ele>
        <time>2011-10-02T07:56:36Z</time>
      </trkpt>
      <trkpt lat="48.45793" lon="2.63772">
        <ele>53.97</ele>
        <time>2011-10-02T07:56:39Z</time>
      </trkpt>
      <trkpt lat="48.45793" lon="2.6377">
        <ele>53.97</ele>
        <time>2011-10-02T07:56:40Z</time>
      </trkpt>
      <trkpt lat="48.45796" lon="2.63758">
        <ele>50.61</ele>
        <time>2011-10-02T07:56:48Z</time>
      </trkpt>
      <trkpt lat="48.458" lon="2.63747">
        <ele>48.68</ele>
        <time>2011-10-02T07:56:55Z</time>
      </trkpt>
      <trkpt lat="48.45805" lon="2.63726">
        <ele>45.32</ele>
        <time>2011-10-02T07:57:08Z</time>
      </trkpt>
      <trkpt lat="48.45804" lon="2.6372">
        <ele>46.28</ele>
        <time>2011-10-02T07:57:26Z</time>
      </trkpt>
      <trkpt lat="48.45798" lon="2.6372">
        <ele>46.28</ele>
        <time>2011-10-02T07:57:38Z</time>
      </trkpt>
      <trkpt lat="48.45798" lon="2.6372">
        <ele>47.24</ele>
        <time>2011-10-02T07:57:58Z</time>
      </trkpt>
      <trkpt lat="48.45798" lon="2.6372">
        <ele>47.72</ele>
        <time>2011-10-02T07:58:22Z</time>
      </trkpt>
      <trkpt lat="48.45798" lon="2.6372">
        <ele>48.68</ele>
        <time>2011-10-02T07:58:46Z</time>
      </trkpt>
      <trkpt lat="48.45796" lon="2.63718">
        <ele>49.16</ele>
        <time>2011-10-02T07:58:54Z</time>
      </trkpt>
      <trkpt lat="48.45795" lon="2.63717">
        <ele>49.16</ele>
        <time>2011-10-02T07:58:55Z</time>
      </trkpt>
      <trkpt lat="48.45793" lon="2.63715">
        <ele>48.68</ele>
        <time>2011-10-02T07:58:56Z</time>
      </trkpt>
      <trkpt lat="48.45756" lon="2.63687">
        <ele>48.68</ele>
        <time>2011-10-02T07:59:08Z</time>
      </trkpt>
      <trkpt lat="48.45723" lon="2.63663">
        <ele>48.68</ele>
        <time>2011-10-02T07:59:15Z</time>
      </trkpt>
      <trkpt lat="48.45719" lon="2.6366">
        <ele>48.68</ele>
        <time>2011-10-02T07:59:16Z</time>
      </trkpt>
      <trkpt lat="48.45715" lon="2.63657">
        <ele>49.16</ele>
        <time>2011-10-02T07:59:17Z</time>
      </trkpt>
      <trkpt lat="48.45703" lon="2.63649">
        <ele>50.13</ele>
        <time>2011-10-02T07:59:20Z</time>
      </trkpt>
      <trkpt lat="48.457" lon="2.63646">
        <ele>50.61</ele>
        <time>2011-10-02T07:59:21Z</time>
      </trkpt>
      <trkpt lat="48.45679" lon="2.63632">
        <ele>50.13</ele>
        <time>2011-10-02T07:59:26Z</time>
      </trkpt>
      <trkpt lat="48.45673" lon="2.63628">
        <ele>49.65</ele>
        <time>2011-10-02T07:59:27Z</time>
      </trkpt>
      <trkpt lat="48.45647" lon="2.63609">
        <ele>47.24</ele>
        <time>2011-10-02T07:59:31Z</time>
      </trkpt>
      <trkpt lat="48.45583" lon="2.63558">
        <ele>47.72</ele>
        <time>2011-10-02T07:59:43Z</time>
      </trkpt>
      <trkpt lat="48.45523" lon="2.6351">
        <ele>46.28</ele>
        <time>2011-10-02T07:59:56Z</time>
      </trkpt>
      <trkpt lat="48.45491" lon="2.63481">
        <ele>46.76</ele>
        <time>2011-10-02T08:00:02Z</time>
      </trkpt>
      <trkpt lat="48.45487" lon="2.63475">
        <ele>46.28</ele>
        <time>2011-10-02T08:00:03Z</time>
      </trkpt>
      <trkpt lat="48.45483" lon="2.63469">
        <ele>45.8</ele>
        <time>2011-10-02T08:00:04Z</time>
      </trkpt>
      <trkpt lat="48.45474" lon="2.63454">
        <ele>45.32</ele>
        <time>2011-10-02T08:00:06Z</time>
      </trkpt>
      <trkpt lat="48.45471" lon="2.63447">
        <ele>45.32</ele>
        <time>2011-10-02T08:00:07Z</time>
      </trkpt>
      <trkpt lat="48.45424" lon="2.6335">
        <ele>45.32</ele>
        <time>2011-10-02T08:00:20Z</time>
      </trkpt>
      <trkpt lat="48.45413" lon="2.63333">
        <ele>45.32</ele>
        <time>2011-10-02T08:00:24Z</time>
      </trkpt>
      <trkpt lat="48.4541" lon="2.63332">
        <ele>45.8</ele>
        <time>2011-10-02T08:00:25Z</time>
      </trkpt>
      <trkpt lat="48.45406" lon="2.63333">
        <ele>46.28</ele>
        <time>2011-10-02T08:00:27Z</time>
      </trkpt>
      <trkpt lat="48.45404" lon="2.63335">
        <ele>46.28</ele>
        <time>2011-10-02T08:00:28Z</time>
      </trkpt>
      <trkpt lat="48.45402" lon="2.63336">
        <ele>46.28</ele>
        <time>2011-10-02T08:00:29Z</time>
      </trkpt>
      <trkpt lat="48.45401" lon="2.63338">
        <ele>46.76</ele>
        <time>2011-10-02T08:00:30Z</time>
      </trkpt>
      <trkpt lat="48.454" lon="2.63339">
        <ele>46.76</ele>
        <time>2011-10-02T08:00:31Z</time>
      </trkpt>
      <trkpt lat="48.45399" lon="2.6334">
        <ele>46.76</ele>
        <time>2011-10-02T08:00:32Z</time>
      </trkpt>
      <trkpt lat="48.45396" lon="2.63346">
        <ele>47.24</ele>
        <time>2011-10-02T08:00:44Z</time>
      </trkpt>
      <trkpt lat="48.45396" lon="2.63348">
        <ele>48.2</ele>
        <time>2011-10-02T08:00:58Z</time>
      </trkpt>
      <trkpt lat="48.45396" lon="2.6335">
        <ele>48.68</ele>
        <time>2011-10-02T08:01:13Z</time>
      </trkpt>
      <trkpt lat="48.45395" lon="2.63351">
        <ele>59.74</ele>
        <time>2011-10-02T08:01:16Z</time>
      </trkpt>
      <trkpt lat="48.45395" lon="2.6335">
        <ele>49.16</ele>
        <time>2011-10-02T08:01:17Z</time>
      </trkpt>
      <trkpt lat="48.45393" lon="2.63352">
        <ele>49.65</ele>
        <time>2011-10-02T08:01:32Z</time>
      </trkpt>
      <trkpt lat="48.45382" lon="2.63366">
        <ele>50.61</ele>
        <time>2011-10-02T08:01:42Z</time>
      </trkpt>
      <trkpt lat="48.45378" lon="2.63373">
        <ele>51.57</ele>
        <time>2011-10-02T08:01:56Z</time>
      </trkpt>
      <trkpt lat="48.45369" lon="2.63385">
        <ele>53.01</ele>
        <time>2011-10-02T08:02:04Z</time>
      </trkpt>
      <trkpt lat="48.45367" lon="2.63386">
        <ele>53.49</ele>
        <time>2011-10-02T08:02:05Z</time>
      </trkpt>
      <trkpt lat="48.45366" lon="2.63388">
        <ele>53.49</ele>
        <time>2011-10-02T08:02:06Z</time>
      </trkpt>
      <trkpt lat="48.45362" lon="2.63394">
        <ele>53.97</ele>
        <time>2011-10-02T08:02:19Z</time>
      </trkpt>
      <trkpt lat="48.4536" lon="2.63395">
        <ele>54.93</ele>
        <time>2011-10-02T08:02:30Z</time>
      </trkpt>
      <trkpt lat="48.45357" lon="2.63399">
        <ele>54.93</ele>
        <time>2011-10-02T08:02:42Z</time>
      </trkpt>
      <trkpt lat="48.45353" lon="2.63406">
        <ele>56.37</ele>
        <time>2011-10-02T08:02:58Z</time>
      </trkpt>
      <trkpt lat="48.45351" lon="2.63407">
        <ele>56.37</ele>
        <time>2011-10-02T08:03:00Z</time>
      </trkpt>
      <trkpt lat="48.45344" lon="2.63415">
        <ele>57.34</ele>
        <time>2011-10-02T08:03:14Z</time>
      </trkpt>
      <trkpt lat="48.45343" lon="2.63415">
        <ele>57.82</ele>
        <time>2011-10-02T08:03:31Z</time>
      </trkpt>
      <trkpt lat="48.45344" lon="2.63414">
        <ele>58.3</ele>
        <time>2011-10-02T08:03:49Z</time>
      </trkpt>
      <trkpt lat="48.45344" lon="2.63415">
        <ele>59.74</ele>
        <time>2011-10-02T08:04:16Z</time>
      </trkpt>
      <trkpt lat="48.45341" lon="2.63418">
        <ele>59.74</ele>
        <time>2011-10-02T08:04:30Z</time>
      </trkpt>
      <trkpt lat="48.4534" lon="2.63421">
        <ele>61.66</ele>
        <time>2011-10-02T08:04:46Z</time>
      </trkpt>
      <trkpt lat="48.4534" lon="2.63421">
        <ele>61.18</ele>
        <time>2011-10-02T08:05:16Z</time>
      </trkpt>
      <trkpt lat="48.45338" lon="2.63422">
        <ele>61.18</ele>
        <time>2011-10-02T08:05:40Z</time>
      </trkpt>
      <trkpt lat="48.45334" lon="2.63427">
        <ele>63.1</ele>
        <time>2011-10-02T08:05:56Z</time>
      </trkpt>
      <trkpt lat="48.45332" lon="2.63428">
        <ele>62.62</ele>
        <time>2011-10-02T08:05:57Z</time>
      </trkpt>
      <trkpt lat="48.45331" lon="2.6343">
        <ele>63.1</ele>
        <time>2011-10-02T08:05:58Z</time>
      </trkpt>
      <trkpt lat="48.4533" lon="2.63431">
        <ele>63.1</ele>
        <time>2011-10-02T08:05:59Z</time>
      </trkpt>
      <trkpt lat="48.45329" lon="2.63432">
        <ele>63.1</ele>
        <time>2011-10-02T08:06:00Z</time>
      </trkpt>
      <trkpt lat="48.45327" lon="2.63433">
        <ele>63.58</ele>
        <time>2011-10-02T08:06:01Z</time>
      </trkpt>
      <trkpt lat="48.45326" lon="2.63434">
        <ele>64.07</ele>
        <time>2011-10-02T08:06:02Z</time>
      </trkpt>
      <trkpt lat="48.45324" lon="2.63439">
        <ele>64.07</ele>
        <time>2011-10-02T08:06:15Z</time>
      </trkpt>
      <trkpt lat="48.45323" lon="2.63445">
        <ele>65.03</ele>
        <time>2011-10-02T08:06:19Z</time>
      </trkpt>
      <trkpt lat="48.45322" lon="2.63447">
        <ele>65.51</ele>
        <time>2011-10-02T08:06:21Z</time>
      </trkpt>
      <trkpt lat="48.45321" lon="2.63448">
        <ele>65.51</ele>
        <time>2011-10-02T08:06:22Z</time>
      </trkpt>
      <trkpt lat="48.45318" lon="2.63454">
        <ele>65.99</ele>
        <time>2011-10-02T08:06:27Z</time>
      </trkpt>
      <trkpt lat="48.45317" lon="2.63455">
        <ele>65.99</ele>
        <time>2011-10-02T08:06:28Z</time>
      </trkpt>
      <trkpt lat="48.45314" lon="2.63459">
        <ele>66.47</ele>
        <time>2011-10-02T08:06:32Z</time>
      </trkpt>
      <trkpt lat="48.45314" lon="2.63461">
        <ele>66.95</ele>
        <time>2011-10-02T08:06:33Z</time>
      </trkpt>
      <trkpt lat="48.45298" lon="2.63478">
        <ele>69.35</ele>
        <time>2011-10-02T08:06:49Z</time>
      </trkpt>
      <trkpt lat="48.45287" lon="2.63496">
        <ele>72.24</ele>
        <time>2011-10-02T08:07:04Z</time>
      </trkpt>
      <trkpt lat="48.45277" lon="2.63512">
        <ele>74.16</ele>
        <time>2011-10-02T08:07:18Z</time>
      </trkpt>
      <trkpt lat="48.45265" lon="2.63527">
        <ele>77.04</ele>
        <time>2011-10-02T08:07:33Z</time>
      </trkpt>
      <trkpt lat="48.45254" lon="2.63539">
        <ele>78.97</ele>
        <time>2011-10-02T08:07:45Z</time>
      </trkpt>
      <trkpt lat="48.45243" lon="2.63554">
        <ele>82.33</ele>
        <time>2011-10-02T08:07:59Z</time>
      </trkpt>
      <trkpt lat="48.45234" lon="2.63566">
        <ele>84.73</ele>
        <time>2011-10-02T08:08:13Z</time>
      </trkpt>
      <trkpt lat="48.45223" lon="2.63576">
        <ele>87.62</ele>
        <time>2011-10-02T08:08:26Z</time>
      </trkpt>
      <trkpt lat="48.45218" lon="2.63576">
        <ele>88.1</ele>
        <time>2011-10-02T08:08:31Z</time>
      </trkpt>
      <trkpt lat="48.45206" lon="2.6357">
        <ele>91.46</ele>
        <time>2011-10-02T08:08:46Z</time>
      </trkpt>
      <trkpt lat="48.45194" lon="2.63569">
        <ele>94.35</ele>
        <time>2011-10-02T08:09:01Z</time>
      </trkpt>
      <trkpt lat="48.45191" lon="2.63569">
        <ele>94.83</ele>
        <time>2011-10-02T08:09:16Z</time>
      </trkpt>
      <trkpt lat="48.45191" lon="2.63569">
        <ele>95.31</ele>
        <time>2011-10-02T08:09:46Z</time>
      </trkpt>
      <trkpt lat="48.45189" lon="2.63569">
        <ele>96.27</ele>
        <time>2011-10-02T08:09:57Z</time>
      </trkpt>
      <trkpt lat="48.45187" lon="2.63569">
        <ele>96.27</ele>
        <time>2011-10-02T08:10:11Z</time>
      </trkpt>
      <trkpt lat="48.45182" lon="2.63568">
        <ele>96.27</ele>
        <time>2011-10-02T08:10:25Z</time>
      </trkpt>
      <trkpt lat="48.45182" lon="2.63568">
        <ele>97.23</ele>
        <time>2011-10-02T08:10:44Z</time>
      </trkpt>
      <trkpt lat="48.45182" lon="2.63567">
        <ele>97.23</ele>
        <time>2011-10-02T08:11:03Z</time>
      </trkpt>
      <trkpt lat="48.45182" lon="2.63567">
        <ele>98.67</ele>
        <time>2011-10-02T08:11:35Z</time>
      </trkpt>
      <trkpt lat="48.45182" lon="2.63567">
        <ele>99.15</ele>
        <time>2011-10-02T08:11:53Z</time>
      </trkpt>
      <trkpt lat="48.45182" lon="2.63567">
        <ele>99.15</ele>
        <time>2011-10-02T08:12:14Z</time>
      </trkpt>
      <trkpt lat="48.45182" lon="2.63566">
        <ele>99.63</ele>
        <time>2011-10-02T08:12:34Z</time>
      </trkpt>
      <trkpt lat="48.45182" lon="2.63566">
        <ele>100.11</ele>
        <time>2011-10-02T08:13:00Z</time>
      </trkpt>
      <trkpt lat="48.45182" lon="2.63567">
        <ele>101.08</ele>
        <time>2011-10-02T08:13:24Z</time>
      </trkpt>
      <trkpt lat="48.45182" lon="2.63566">
        <ele>100.11</ele>
        <time>2011-10-02T08:13:48Z</time>
      </trkpt>
      <trkpt lat="48.45182" lon="2.63566">
        <ele>100.6</ele>
        <time>2011-10-02T08:14:11Z</time>
      </trkpt>
      <trkpt lat="48.45182" lon="2.63567">
        <ele>101.08</ele>
        <time>2011-10-02T08:14:44Z</time>
      </trkpt>
      <trkpt lat="48.45182" lon="2.63567">
        <ele>102.04</ele>
        <time>2011-10-02T08:15:17Z</time>
      </trkpt>
      <trkpt lat="48.45182" lon="2.63567">
        <ele>102.52</ele>
        <time>2011-10-02T08:15:47Z</time>
      </trkpt>
      <trkpt lat="48.45182" lon="2.63567">
        <ele>103</ele>
        <time>2011-10-02T08:16:17Z</time>
      </trkpt>
      <trkpt lat="48.45182" lon="2.63567">
        <ele>103.48</ele>
        <time>2011-10-02T08:16:49Z</time>
      </trkpt>
      <trkpt lat="48.45182" lon="2.63567">
        <ele>104.44</ele>
        <time>2011-10-02T08:17:20Z</time>
      </trkpt>
      <trkpt lat="48.45183" lon="2.63567">
        <ele>105.4</ele>
        <time>2011-10-02T08:17:51Z</time>
      </trkpt>
      <trkpt lat="48.45183" lon="2.63567">
        <ele>105.88</ele>
        <time>2011-10-02T08:18:12Z</time>
      </trkpt>
      <trkpt lat="48.45184" lon="2.63566">
        <ele>106.36</ele>
        <time>2011-10-02T08:18:29Z</time>
      </trkpt>
      <trkpt lat="48.45171" lon="2.63568">
        <ele>106.36</ele>
        <time>2011-10-02T08:18:42Z</time>
      </trkpt>
      <trkpt lat="48.45167" lon="2.6356">
        <ele>105.88</ele>
        <time>2011-10-02T08:18:46Z</time>
      </trkpt>
      <trkpt lat="48.45167" lon="2.63558">
        <ele>106.36</ele>
        <time>2011-10-02T08:18:47Z</time>
      </trkpt>
      <trkpt lat="48.45166" lon="2.63556">
        <ele>105.88</ele>
        <time>2011-10-02T08:18:48Z</time>
      </trkpt>
      <trkpt lat="48.45154" lon="2.63554">
        <ele>103.96</ele>
        <time>2011-10-02T08:18:55Z</time>
      </trkpt>
      <trkpt lat="48.45126" lon="2.6356">
        <ele>104.44</ele>
        <time>2011-10-02T08:19:06Z</time>
      </trkpt>
      <trkpt lat="48.45106" lon="2.63565">
        <ele>103</ele>
        <time>2011-10-02T08:19:18Z</time>
      </trkpt>
      <trkpt lat="48.45095" lon="2.63588">
        <ele>103.48</ele>
        <time>2011-10-02T08:19:28Z</time>
      </trkpt>
      <trkpt lat="48.45077" lon="2.63632">
        <ele>104.44</ele>
        <time>2011-10-02T08:19:41Z</time>
      </trkpt>
      <trkpt lat="48.45057" lon="2.63699">
        <ele>105.4</ele>
        <time>2011-10-02T08:19:54Z</time>
      </trkpt>
      <trkpt lat="48.45049" lon="2.63745">
        <ele>103.96</ele>
        <time>2011-10-02T08:20:05Z</time>
      </trkpt>
      <trkpt lat="48.45044" lon="2.63763">
        <ele>102.52</ele>
        <time>2011-10-02T08:20:18Z</time>
      </trkpt>
      <trkpt lat="48.45039" lon="2.6377">
        <ele>101.08</ele>
        <time>2011-10-02T08:20:32Z</time>
      </trkpt>
      <trkpt lat="48.45033" lon="2.63775">
        <ele>100.11</ele>
        <time>2011-10-02T08:20:49Z</time>
      </trkpt>
      <trkpt lat="48.4503" lon="2.63774">
        <ele>100.11</ele>
        <time>2011-10-02T08:20:53Z</time>
      </trkpt>
      <trkpt lat="48.45029" lon="2.63773">
        <ele>99.15</ele>
        <time>2011-10-02T08:20:54Z</time>
      </trkpt>
      <trkpt lat="48.45027" lon="2.63771">
        <ele>99.15</ele>
        <time>2011-10-02T08:20:55Z</time>
      </trkpt>
      <trkpt lat="48.45026" lon="2.63771">
        <ele>98.67</ele>
        <time>2011-10-02T08:20:56Z</time>
      </trkpt>
      <trkpt lat="48.45025" lon="2.63769">
        <ele>98.19</ele>
        <time>2011-10-02T08:21:07Z</time>
      </trkpt>
      <trkpt lat="48.45023" lon="2.63768">
        <ele>97.23</ele>
        <time>2011-10-02T08:21:25Z</time>
      </trkpt>
      <trkpt lat="48.45015" lon="2.63771">
        <ele>95.31</ele>
        <time>2011-10-02T08:21:28Z</time>
      </trkpt>
      <trkpt lat="48.45011" lon="2.63772">
        <ele>94.35</ele>
        <time>2011-10-02T08:21:29Z</time>
      </trkpt>
      <trkpt lat="48.44991" lon="2.63793">
        <ele>91.46</ele>
        <time>2011-10-02T08:21:36Z</time>
      </trkpt>
      <trkpt lat="48.44978" lon="2.63844">
        <ele>89.54</ele>
        <time>2011-10-02T08:21:50Z</time>
      </trkpt>
      <trkpt lat="48.44973" lon="2.63855">
        <ele>86.66</ele>
        <time>2011-10-02T08:22:03Z</time>
      </trkpt>
      <trkpt lat="48.4496" lon="2.63884">
        <ele>83.29</ele>
        <time>2011-10-02T08:22:13Z</time>
      </trkpt>
      <trkpt lat="48.44954" lon="2.63893">
        <ele>81.37</ele>
        <time>2011-10-02T08:22:16Z</time>
      </trkpt>
      <trkpt lat="48.4493" lon="2.63912">
        <ele>79.45</ele>
        <time>2011-10-02T08:22:29Z</time>
      </trkpt>
      <trkpt lat="48.44927" lon="2.63913">
        <ele>79.45</ele>
        <time>2011-10-02T08:22:31Z</time>
      </trkpt>
      <trkpt lat="48.44924" lon="2.63912">
        <ele>79.45</ele>
        <time>2011-10-02T08:22:34Z</time>
      </trkpt>
      <trkpt lat="48.44925" lon="2.63913">
        <ele>79.93</ele>
        <time>2011-10-02T08:22:54Z</time>
      </trkpt>
      <trkpt lat="48.44925" lon="2.63913">
        <ele>80.41</ele>
        <time>2011-10-02T08:23:16Z</time>
      </trkpt>
      <trkpt lat="48.44925" lon="2.63913">
        <ele>80.41</ele>
        <time>2011-10-02T08:23:39Z</time>
      </trkpt>
      <trkpt lat="48.44925" lon="2.6391">
        <ele>80.89</ele>
        <time>2011-10-02T08:23:59Z</time>
      </trkpt>
      <trkpt lat="48.44924" lon="2.63909">
        <ele>81.37</ele>
        <time>2011-10-02T08:24:00Z</time>
      </trkpt>
      <trkpt lat="48.44917" lon="2.63892">
        <ele>80.41</ele>
        <time>2011-10-02T08:24:08Z</time>
      </trkpt>
      <trkpt lat="48.4491" lon="2.63895">
        <ele>79.93</ele>
        <time>2011-10-02T08:24:13Z</time>
      </trkpt>
      <trkpt lat="48.44908" lon="2.63897">
        <ele>79.45</ele>
        <time>2011-10-02T08:24:25Z</time>
      </trkpt>
      <trkpt lat="48.44903" lon="2.63896">
        <ele>79.45</ele>
        <time>2011-10-02T08:24:34Z</time>
      </trkpt>
      <trkpt lat="48.44896" lon="2.63901">
        <ele>78.97</ele>
        <time>2011-10-02T08:24:47Z</time>
      </trkpt>
      <trkpt lat="48.44896" lon="2.63903">
        <ele>78</ele>
        <time>2011-10-02T08:24:52Z</time>
      </trkpt>
      <trkpt lat="48.44881" lon="2.63907">
        <ele>76.56</ele>
        <time>2011-10-02T08:25:05Z</time>
      </trkpt>
      <trkpt lat="48.44856" lon="2.6389">
        <ele>75.6</ele>
        <time>2011-10-02T08:25:15Z</time>
      </trkpt>
      <trkpt lat="48.44825" lon="2.63837">
        <ele>72.24</ele>
        <time>2011-10-02T08:25:27Z</time>
      </trkpt>
      <trkpt lat="48.44797" lon="2.63799">
        <ele>71.27</ele>
        <time>2011-10-02T08:25:38Z</time>
      </trkpt>
      <trkpt lat="48.44782" lon="2.63783">
        <ele>71.27</ele>
        <time>2011-10-02T08:25:48Z</time>
      </trkpt>
      <trkpt lat="48.4478" lon="2.63783">
        <ele>71.27</ele>
        <time>2011-10-02T08:25:49Z</time>
      </trkpt>
      <trkpt lat="48.44778" lon="2.63783">
        <ele>71.27</ele>
        <time>2011-10-02T08:25:50Z</time>
      </trkpt>
      <trkpt lat="48.44776" lon="2.63784">
        <ele>70.79</ele>
        <time>2011-10-02T08:25:51Z</time>
      </trkpt>
      <trkpt lat="48.44774" lon="2.63786">
        <ele>70.79</ele>
        <time>2011-10-02T08:25:52Z</time>
      </trkpt>
      <trkpt lat="48.44772" lon="2.63789">
        <ele>71.27</ele>
        <time>2011-10-02T08:25:53Z</time>
      </trkpt>
      <trkpt lat="48.44758" lon="2.63806">
        <ele>70.79</ele>
        <time>2011-10-02T08:26:02Z</time>
      </trkpt>
      <trkpt lat="48.44746" lon="2.63796">
        <ele>70.31</ele>
        <time>2011-10-02T08:26:08Z</time>
      </trkpt>
      <trkpt lat="48.44741" lon="2.63775">
        <ele>70.31</ele>
        <time>2011-10-02T08:26:20Z</time>
      </trkpt>
      <trkpt lat="48.44741" lon="2.63775">
        <ele>70.79</ele>
        <time>2011-10-02T08:26:41Z</time>
      </trkpt>
      <trkpt lat="48.44736" lon="2.63769">
        <ele>70.79</ele>
        <time>2011-10-02T08:26:47Z</time>
      </trkpt>
      <trkpt lat="48.44724" lon="2.63772">
        <ele>70.31</ele>
        <time>2011-10-02T08:26:54Z</time>
      </trkpt>
      <trkpt lat="48.44705" lon="2.6377">
        <ele>70.31</ele>
        <time>2011-10-02T08:27:07Z</time>
      </trkpt>
      <trkpt lat="48.44701" lon="2.63772">
        <ele>70.31</ele>
        <time>2011-10-02T08:27:17Z</time>
      </trkpt>
      <trkpt lat="48.44664" lon="2.63771">
        <ele>68.87</ele>
        <time>2011-10-02T08:27:28Z</time>
      </trkpt>
      <trkpt lat="48.44623" lon="2.63759">
        <ele>69.35</ele>
        <time>2011-10-02T08:27:40Z</time>
      </trkpt>
      <trkpt lat="48.44589" lon="2.63745">
        <ele>68.39</ele>
        <time>2011-10-02T08:27:50Z</time>
      </trkpt>
      <trkpt lat="48.44575" lon="2.63737">
        <ele>65.51</ele>
        <time>2011-10-02T08:27:55Z</time>
      </trkpt>
      <trkpt lat="48.44536" lon="2.63731">
        <ele>66.95</ele>
        <time>2011-10-02T08:28:05Z</time>
      </trkpt>
      <trkpt lat="48.44519" lon="2.6372">
        <ele>68.39</ele>
        <time>2011-10-02T08:28:16Z</time>
      </trkpt>
      <trkpt lat="48.44525" lon="2.63674">
        <ele>68.39</ele>
        <time>2011-10-02T08:28:26Z</time>
      </trkpt>
      <trkpt lat="48.44526" lon="2.63672">
        <ele>68.87</ele>
        <time>2011-10-02T08:28:27Z</time>
      </trkpt>
      <trkpt lat="48.44522" lon="2.63653">
        <ele>68.39</ele>
        <time>2011-10-02T08:28:38Z</time>
      </trkpt>
      <trkpt lat="48.44501" lon="2.63595">
        <ele>68.39</ele>
        <time>2011-10-02T08:28:57Z</time>
      </trkpt>
      <trkpt lat="48.44476" lon="2.6353">
        <ele>68.87</ele>
        <time>2011-10-02T08:29:14Z</time>
      </trkpt>
      <trkpt lat="48.44456" lon="2.63474">
        <ele>68.87</ele>
        <time>2011-10-02T08:29:29Z</time>
      </trkpt>
      <trkpt lat="48.44437" lon="2.63409">
        <ele>68.87</ele>
        <time>2011-10-02T08:29:43Z</time>
      </trkpt>
      <trkpt lat="48.44416" lon="2.633">
        <ele>68.39</ele>
        <time>2011-10-02T08:30:00Z</time>
      </trkpt>
      <trkpt lat="48.44394" lon="2.63202">
        <ele>67.43</ele>
        <time>2011-10-02T08:30:16Z</time>
      </trkpt>
      <trkpt lat="48.4439" lon="2.63189">
        <ele>67.43</ele>
        <time>2011-10-02T08:30:18Z</time>
      </trkpt>
      <trkpt lat="48.44387" lon="2.63183">
        <ele>67.43</ele>
        <time>2011-10-02T08:30:19Z</time>
      </trkpt>
      <trkpt lat="48.4435" lon="2.63086">
        <ele>66.47</ele>
        <time>2011-10-02T08:30:32Z</time>
      </trkpt>
      <trkpt lat="48.44348" lon="2.63079">
        <ele>66.95</ele>
        <time>2011-10-02T08:30:33Z</time>
      </trkpt>
      <trkpt lat="48.44335" lon="2.6305">
        <ele>67.43</ele>
        <time>2011-10-02T08:30:37Z</time>
      </trkpt>
      <trkpt lat="48.44328" lon="2.63038">
        <ele>66.95</ele>
        <time>2011-10-02T08:30:39Z</time>
      </trkpt>
      <trkpt lat="48.44315" lon="2.63021">
        <ele>66.95</ele>
        <time>2011-10-02T08:30:42Z</time>
      </trkpt>
      <trkpt lat="48.44287" lon="2.62983">
        <ele>67.43</ele>
        <time>2011-10-02T08:30:49Z</time>
      </trkpt>
      <trkpt lat="48.44284" lon="2.62978">
        <ele>67.43</ele>
        <time>2011-10-02T08:30:50Z</time>
      </trkpt>
      <trkpt lat="48.44275" lon="2.62961">
        <ele>67.43</ele>
        <time>2011-10-02T08:30:53Z</time>
      </trkpt>
      <trkpt lat="48.44253" lon="2.62914">
        <ele>66.95</ele>
        <time>2011-10-02T08:31:00Z</time>
      </trkpt>
      <trkpt lat="48.44242" lon="2.62875">
        <ele>66.47</ele>
        <time>2011-10-02T08:31:05Z</time>
      </trkpt>
      <trkpt lat="48.4424" lon="2.62867">
        <ele>66.47</ele>
        <time>2011-10-02T08:31:06Z</time>
      </trkpt>
      <trkpt lat="48.44238" lon="2.62859">
        <ele>66.47</ele>
        <time>2011-10-02T08:31:07Z</time>
      </trkpt>
      <trkpt lat="48.44231" lon="2.62835">
        <ele>66.47</ele>
        <time>2011-10-02T08:31:10Z</time>
      </trkpt>
      <trkpt lat="48.4423" lon="2.62827">
        <ele>66.47</ele>
        <time>2011-10-02T08:31:11Z</time>
      </trkpt>
      <trkpt lat="48.44229" lon="2.62819">
        <ele>66.47</ele>
        <time>2011-10-02T08:31:12Z</time>
      </trkpt>
      <trkpt lat="48.44228" lon="2.62812">
        <ele>66.47</ele>
        <time>2011-10-02T08:31:13Z</time>
      </trkpt>
      <trkpt lat="48.44226" lon="2.62805">
        <ele>66.95</ele>
        <time>2011-10-02T08:31:14Z</time>
      </trkpt>
      <trkpt lat="48.44224" lon="2.62798">
        <ele>66.95</ele>
        <time>2011-10-02T08:31:15Z</time>
      </trkpt>
      <trkpt lat="48.44218" lon="2.62777">
        <ele>66.95</ele>
        <time>2011-10-02T08:31:18Z</time>
      </trkpt>
      <trkpt lat="48.44216" lon="2.62771">
        <ele>66.47</ele>
        <time>2011-10-02T08:31:19Z</time>
      </trkpt>
      <trkpt lat="48.44212" lon="2.62757">
        <ele>66.47</ele>
        <time>2011-10-02T08:31:21Z</time>
      </trkpt>
      <trkpt lat="48.44198" lon="2.62721">
        <ele>65.99</ele>
        <time>2011-10-02T08:31:26Z</time>
      </trkpt>
      <trkpt lat="48.4417" lon="2.6263">
        <ele>66.95</ele>
        <time>2011-10-02T08:31:38Z</time>
      </trkpt>
      <trkpt lat="48.44168" lon="2.62624">
        <ele>66.95</ele>
        <time>2011-10-02T08:31:39Z</time>
      </trkpt>
      <trkpt lat="48.44161" lon="2.62601">
        <ele>67.43</ele>
        <time>2011-10-02T08:31:43Z</time>
      </trkpt>
      <trkpt lat="48.44141" lon="2.62552">
        <ele>67.43</ele>
        <time>2011-10-02T08:31:52Z</time>
      </trkpt>
      <trkpt lat="48.44139" lon="2.62546">
        <ele>66.95</ele>
        <time>2011-10-02T08:31:53Z</time>
      </trkpt>
      <trkpt lat="48.4413" lon="2.62521">
        <ele>67.43</ele>
        <time>2011-10-02T08:31:57Z</time>
      </trkpt>
      <trkpt lat="48.44103" lon="2.62444">
        <ele>66.47</ele>
        <time>2011-10-02T08:32:10Z</time>
      </trkpt>
      <trkpt lat="48.44072" lon="2.62442">
        <ele>66.95</ele>
        <time>2011-10-02T08:32:19Z</time>
      </trkpt>
      <trkpt lat="48.44032" lon="2.62439">
        <ele>66.95</ele>
        <time>2011-10-02T08:32:33Z</time>
      </trkpt>
      <trkpt lat="48.44016" lon="2.62438">
        <ele>66.95</ele>
        <time>2011-10-02T08:32:40Z</time>
      </trkpt>
      <trkpt lat="48.44014" lon="2.6244">
        <ele>66.47</ele>
        <time>2011-10-02T08:32:41Z</time>
      </trkpt>
      <trkpt lat="48.44006" lon="2.6245">
        <ele>67.43</ele>
        <time>2011-10-02T08:32:45Z</time>
      </trkpt>
      <trkpt lat="48.44" lon="2.62464">
        <ele>67.91</ele>
        <time>2011-10-02T08:32:49Z</time>
      </trkpt>
      <trkpt lat="48.43974" lon="2.62502">
        <ele>69.83</ele>
        <time>2011-10-02T08:33:01Z</time>
      </trkpt>
      <trkpt lat="48.43935" lon="2.62501">
        <ele>70.79</ele>
        <time>2011-10-02T08:33:13Z</time>
      </trkpt>
      <trkpt lat="48.43903" lon="2.62513">
        <ele>70.31</ele>
        <time>2011-10-02T08:33:25Z</time>
      </trkpt>
      <trkpt lat="48.4387" lon="2.62493">
        <ele>71.27</ele>
        <time>2011-10-02T08:33:38Z</time>
      </trkpt>
      <trkpt lat="48.43835" lon="2.62458">
        <ele>71.27</ele>
        <time>2011-10-02T08:33:50Z</time>
      </trkpt>
      <trkpt lat="48.43801" lon="2.62437">
        <ele>71.76</ele>
        <time>2011-10-02T08:34:01Z</time>
      </trkpt>
      <trkpt lat="48.43758" lon="2.62435">
        <ele>71.76</ele>
        <time>2011-10-02T08:34:14Z</time>
      </trkpt>
      <trkpt lat="48.43723" lon="2.62446">
        <ele>70.31</ele>
        <time>2011-10-02T08:34:24Z</time>
      </trkpt>
      <trkpt lat="48.43719" lon="2.62448">
        <ele>70.79</ele>
        <time>2011-10-02T08:34:25Z</time>
      </trkpt>
      <trkpt lat="48.43685" lon="2.62484">
        <ele>70.79</ele>
        <time>2011-10-02T08:34:38Z</time>
      </trkpt>
      <trkpt lat="48.43668" lon="2.62555">
        <ele>70.79</ele>
        <time>2011-10-02T08:34:50Z</time>
      </trkpt>
      <trkpt lat="48.43649" lon="2.62616">
        <ele>71.76</ele>
        <time>2011-10-02T08:35:03Z</time>
      </trkpt>
      <trkpt lat="48.43624" lon="2.62667">
        <ele>72.24</ele>
        <time>2011-10-02T08:35:15Z</time>
      </trkpt>
      <trkpt lat="48.43585" lon="2.62695">
        <ele>72.72</ele>
        <time>2011-10-02T08:35:27Z</time>
      </trkpt>
      <trkpt lat="48.43562" lon="2.62764">
        <ele>74.16</ele>
        <time>2011-10-02T08:35:41Z</time>
      </trkpt>
      <trkpt lat="48.43541" lon="2.62819">
        <ele>74.16</ele>
        <time>2011-10-02T08:35:53Z</time>
      </trkpt>
      <trkpt lat="48.43522" lon="2.62833">
        <ele>75.12</ele>
        <time>2011-10-02T08:36:03Z</time>
      </trkpt>
      <trkpt lat="48.43516" lon="2.62886">
        <ele>75.6</ele>
        <time>2011-10-02T08:36:16Z</time>
      </trkpt>
      <trkpt lat="48.43506" lon="2.6292">
        <ele>77.52</ele>
        <time>2011-10-02T08:36:28Z</time>
      </trkpt>
      <trkpt lat="48.43482" lon="2.62955">
        <ele>80.89</ele>
        <time>2011-10-02T08:36:43Z</time>
      </trkpt>
      <trkpt lat="48.43475" lon="2.62965">
        <ele>81.37</ele>
        <time>2011-10-02T08:36:57Z</time>
      </trkpt>
      <trkpt lat="48.43475" lon="2.62965">
        <ele>82.33</ele>
        <time>2011-10-02T08:37:24Z</time>
      </trkpt>
      <trkpt lat="48.43476" lon="2.62964">
        <ele>82.81</ele>
        <time>2011-10-02T08:37:39Z</time>
      </trkpt>
      <trkpt lat="48.43477" lon="2.62965">
        <ele>82.33</ele>
        <time>2011-10-02T08:37:47Z</time>
      </trkpt>
      <trkpt lat="48.43477" lon="2.62965">
        <ele>82.33</ele>
        <time>2011-10-02T08:38:03Z</time>
      </trkpt>
      <trkpt lat="48.43477" lon="2.62965">
        <ele>82.81</ele>
        <time>2011-10-02T08:38:29Z</time>
      </trkpt>
      <trkpt lat="48.43477" lon="2.62965">
        <ele>83.29</ele>
        <time>2011-10-02T08:38:59Z</time>
      </trkpt>
      <trkpt lat="48.43477" lon="2.62966">
        <ele>82.81</ele>
        <time>2011-10-02T08:39:22Z</time>
      </trkpt>
      <trkpt lat="48.43477" lon="2.62966">
        <ele>83.29</ele>
        <time>2011-10-02T08:39:53Z</time>
      </trkpt>
      <trkpt lat="48.43479" lon="2.62962">
        <ele>82.33</ele>
        <time>2011-10-02T08:40:07Z</time>
      </trkpt>
      <trkpt lat="48.43479" lon="2.6296">
        <ele>81.85</ele>
        <time>2011-10-02T08:40:08Z</time>
      </trkpt>
      <trkpt lat="48.43488" lon="2.62929">
        <ele>78.97</ele>
        <time>2011-10-02T08:40:16Z</time>
      </trkpt>
      <trkpt lat="48.43512" lon="2.62846">
        <ele>77.52</ele>
        <time>2011-10-02T08:40:29Z</time>
      </trkpt>
      <trkpt lat="48.43494" lon="2.62792">
        <ele>76.08</ele>
        <time>2011-10-02T08:40:42Z</time>
      </trkpt>
      <trkpt lat="48.43469" lon="2.62763">
        <ele>77.04</ele>
        <time>2011-10-02T08:40:54Z</time>
      </trkpt>
      <trkpt lat="48.43467" lon="2.62769">
        <ele>77.04</ele>
        <time>2011-10-02T08:41:07Z</time>
      </trkpt>
      <trkpt lat="48.43467" lon="2.62769">
        <ele>77.04</ele>
        <time>2011-10-02T08:41:28Z</time>
      </trkpt>
      <trkpt lat="48.43467" lon="2.62769">
        <ele>77.52</ele>
        <time>2011-10-02T08:41:52Z</time>
      </trkpt>
      <trkpt lat="48.43466" lon="2.62772">
        <ele>77.52</ele>
        <time>2011-10-02T08:41:54Z</time>
      </trkpt>
      <trkpt lat="48.43465" lon="2.62774">
        <ele>77.52</ele>
        <time>2011-10-02T08:41:55Z</time>
      </trkpt>
      <trkpt lat="48.43464" lon="2.62775">
        <ele>77.52</ele>
        <time>2011-10-02T08:41:56Z</time>
      </trkpt>
      <trkpt lat="48.43462" lon="2.62776">
        <ele>77.52</ele>
        <time>2011-10-02T08:41:57Z</time>
      </trkpt>
      <trkpt lat="48.4346" lon="2.62777">
        <ele>77.52</ele>
        <time>2011-10-02T08:41:58Z</time>
      </trkpt>
      <trkpt lat="48.43429" lon="2.62779">
        <ele>78.48</ele>
        <time>2011-10-02T08:42:10Z</time>
      </trkpt>
      <trkpt lat="48.43395" lon="2.62791">
        <ele>79.93</ele>
        <time>2011-10-02T08:42:21Z</time>
      </trkpt>
      <trkpt lat="48.43356" lon="2.62781">
        <ele>80.89</ele>
        <time>2011-10-02T08:42:34Z</time>
      </trkpt>
      <trkpt lat="48.43347" lon="2.62753">
        <ele>82.81</ele>
        <time>2011-10-02T08:42:44Z</time>
      </trkpt>
      <trkpt lat="48.43351" lon="2.62723">
        <ele>83.77</ele>
        <time>2011-10-02T08:42:54Z</time>
      </trkpt>
      <trkpt lat="48.43347" lon="2.62684">
        <ele>86.18</ele>
        <time>2011-10-02T08:43:09Z</time>
      </trkpt>
      <trkpt lat="48.43346" lon="2.62683">
        <ele>86.18</ele>
        <time>2011-10-02T08:43:10Z</time>
      </trkpt>
      <trkpt lat="48.43346" lon="2.62684">
        <ele>86.18</ele>
        <time>2011-10-02T08:43:11Z</time>
      </trkpt>
      <trkpt lat="48.43345" lon="2.62683">
        <ele>85.69</ele>
        <time>2011-10-02T08:43:12Z</time>
      </trkpt>
      <trkpt lat="48.43344" lon="2.62682">
        <ele>86.18</ele>
        <time>2011-10-02T08:43:13Z</time>
      </trkpt>
      <trkpt lat="48.43343" lon="2.6268">
        <ele>86.18</ele>
        <time>2011-10-02T08:43:14Z</time>
      </trkpt>
      <trkpt lat="48.43343" lon="2.62679">
        <ele>86.66</ele>
        <time>2011-10-02T08:43:15Z</time>
      </trkpt>
      <trkpt lat="48.43339" lon="2.62677">
        <ele>87.62</ele>
        <time>2011-10-02T08:43:19Z</time>
      </trkpt>
      <trkpt lat="48.43337" lon="2.62673">
        <ele>88.58</ele>
        <time>2011-10-02T08:43:32Z</time>
      </trkpt>
      <trkpt lat="48.43336" lon="2.62666">
        <ele>88.1</ele>
        <time>2011-10-02T08:43:44Z</time>
      </trkpt>
      <trkpt lat="48.43336" lon="2.62663">
        <ele>88.1</ele>
        <time>2011-10-02T08:43:45Z</time>
      </trkpt>
      <trkpt lat="48.43336" lon="2.6263">
        <ele>91.46</ele>
        <time>2011-10-02T08:43:56Z</time>
      </trkpt>
      <trkpt lat="48.43334" lon="2.62614">
        <ele>92.42</ele>
        <time>2011-10-02T08:44:07Z</time>
      </trkpt>
      <trkpt lat="48.43336" lon="2.62595">
        <ele>93.87</ele>
        <time>2011-10-02T08:44:20Z</time>
      </trkpt>
      <trkpt lat="48.43335" lon="2.62581">
        <ele>95.79</ele>
        <time>2011-10-02T08:44:32Z</time>
      </trkpt>
      <trkpt lat="48.43331" lon="2.62575">
        <ele>96.27</ele>
        <time>2011-10-02T08:44:39Z</time>
      </trkpt>
      <trkpt lat="48.4333" lon="2.62573">
        <ele>96.75</ele>
        <time>2011-10-02T08:44:41Z</time>
      </trkpt>
      <trkpt lat="48.43324" lon="2.62563">
        <ele>97.23</ele>
        <time>2011-10-02T08:44:54Z</time>
      </trkpt>
      <trkpt lat="48.43321" lon="2.62558">
        <ele>97.23</ele>
        <time>2011-10-02T08:44:58Z</time>
      </trkpt>
      <trkpt lat="48.4332" lon="2.62557">
        <ele>97.23</ele>
        <time>2011-10-02T08:44:59Z</time>
      </trkpt>
      <trkpt lat="48.43319" lon="2.62557">
        <ele>97.71</ele>
        <time>2011-10-02T08:45:00Z</time>
      </trkpt>
      <trkpt lat="48.43316" lon="2.62557">
        <ele>98.67</ele>
        <time>2011-10-02T08:45:03Z</time>
      </trkpt>
      <trkpt lat="48.43314" lon="2.62557">
        <ele>98.67</ele>
        <time>2011-10-02T08:45:04Z</time>
      </trkpt>
      <trkpt lat="48.4331" lon="2.62554">
        <ele>100.11</ele>
        <time>2011-10-02T08:45:09Z</time>
      </trkpt>
      <trkpt lat="48.43309" lon="2.62552">
        <ele>100.6</ele>
        <time>2011-10-02T08:45:10Z</time>
      </trkpt>
      <trkpt lat="48.43308" lon="2.62551">
        <ele>100.11</ele>
        <time>2011-10-02T08:45:11Z</time>
      </trkpt>
      <trkpt lat="48.43304" lon="2.6255">
        <ele>101.56</ele>
        <time>2011-10-02T08:45:23Z</time>
      </trkpt>
      <trkpt lat="48.43294" lon="2.62545">
        <ele>104.44</ele>
        <time>2011-10-02T08:45:36Z</time>
      </trkpt>
      <trkpt lat="48.4329" lon="2.62546">
        <ele>105.4</ele>
        <time>2011-10-02T08:45:42Z</time>
      </trkpt>
      <trkpt lat="48.43289" lon="2.62546">
        <ele>105.4</ele>
        <time>2011-10-02T08:45:43Z</time>
      </trkpt>
      <trkpt lat="48.43288" lon="2.62546">
        <ele>105.4</ele>
        <time>2011-10-02T08:45:44Z</time>
      </trkpt>
      <trkpt lat="48.43278" lon="2.62537">
        <ele>108.29</ele>
        <time>2011-10-02T08:45:58Z</time>
      </trkpt>
      <trkpt lat="48.43276" lon="2.62528">
        <ele>109.73</ele>
        <time>2011-10-02T08:46:13Z</time>
      </trkpt>
      <trkpt lat="48.43278" lon="2.62512">
        <ele>113.09</ele>
        <time>2011-10-02T08:46:26Z</time>
      </trkpt>
      <trkpt lat="48.4328" lon="2.62506">
        <ele>113.57</ele>
        <time>2011-10-02T08:46:40Z</time>
      </trkpt>
      <trkpt lat="48.4328" lon="2.62506">
        <ele>113.09</ele>
        <time>2011-10-02T08:47:01Z</time>
      </trkpt>
      <trkpt lat="48.43277" lon="2.62502">
        <ele>113.57</ele>
        <time>2011-10-02T08:47:29Z</time>
      </trkpt>
      <trkpt lat="48.43274" lon="2.62494">
        <ele>111.65</ele>
        <time>2011-10-02T08:47:42Z</time>
      </trkpt>
      <trkpt lat="48.43274" lon="2.62493">
        <ele>110.21</ele>
        <time>2011-10-02T08:47:50Z</time>
      </trkpt>
      <trkpt lat="48.43264" lon="2.62486">
        <ele>106.84</ele>
        <time>2011-10-02T08:47:56Z</time>
      </trkpt>
      <trkpt lat="48.43261" lon="2.62482">
        <ele>106.84</ele>
        <time>2011-10-02T08:47:57Z</time>
      </trkpt>
      <trkpt lat="48.43241" lon="2.62438">
        <ele>105.4</ele>
        <time>2011-10-02T08:48:09Z</time>
      </trkpt>
      <trkpt lat="48.43226" lon="2.6238">
        <ele>104.44</ele>
        <time>2011-10-02T08:48:22Z</time>
      </trkpt>
      <trkpt lat="48.43221" lon="2.62365">
        <ele>105.4</ele>
        <time>2011-10-02T08:48:28Z</time>
      </trkpt>
      <trkpt lat="48.43224" lon="2.62363">
        <ele>105.4</ele>
        <time>2011-10-02T08:48:31Z</time>
      </trkpt>
      <trkpt lat="48.43222" lon="2.62362">
        <ele>105.88</ele>
        <time>2011-10-02T08:48:32Z</time>
      </trkpt>
      <trkpt lat="48.43221" lon="2.62359">
        <ele>105.88</ele>
        <time>2011-10-02T08:48:33Z</time>
      </trkpt>
      <trkpt lat="48.4322" lon="2.62356">
        <ele>106.36</ele>
        <time>2011-10-02T08:48:48Z</time>
      </trkpt>
      <trkpt lat="48.4322" lon="2.62356">
        <ele>106.36</ele>
        <time>2011-10-02T08:49:16Z</time>
      </trkpt>
      <trkpt lat="48.4322" lon="2.62356">
        <ele>106.84</ele>
        <time>2011-10-02T08:49:47Z</time>
      </trkpt>
      <trkpt lat="48.43221" lon="2.62356">
        <ele>106.84</ele>
        <time>2011-10-02T08:50:23Z</time>
      </trkpt>
      <trkpt lat="48.43221" lon="2.62356">
        <ele>106.84</ele>
        <time>2011-10-02T08:50:54Z</time>
      </trkpt>
      <trkpt lat="48.43221" lon="2.62356">
        <ele>107.32</ele>
        <time>2011-10-02T08:51:25Z</time>
      </trkpt>
      <trkpt lat="48.43221" lon="2.62356">
        <ele>107.32</ele>
        <time>2011-10-02T08:51:49Z</time>
      </trkpt>
      <trkpt lat="48.43225" lon="2.6235">
        <ele>107.81</ele>
        <time>2011-10-02T08:52:13Z</time>
      </trkpt>
      <trkpt lat="48.43225" lon="2.62347">
        <ele>107.81</ele>
        <time>2011-10-02T08:52:14Z</time>
      </trkpt>
      <trkpt lat="48.43212" lon="2.62312">
        <ele>110.69</ele>
        <time>2011-10-02T08:52:28Z</time>
      </trkpt>
      <trkpt lat="48.43196" lon="2.62289">
        <ele>113.57</ele>
        <time>2011-10-02T08:52:41Z</time>
      </trkpt>
      <trkpt lat="48.43181" lon="2.62274">
        <ele>116.94</ele>
        <time>2011-10-02T08:52:53Z</time>
      </trkpt>
      <trkpt lat="48.43167" lon="2.62273">
        <ele>119.82</ele>
        <time>2011-10-02T08:53:02Z</time>
      </trkpt>
      <trkpt lat="48.43143" lon="2.62264">
        <ele>122.22</ele>
        <time>2011-10-02T08:53:16Z</time>
      </trkpt>
      <trkpt lat="48.43119" lon="2.62236">
        <ele>123.67</ele>
        <time>2011-10-02T08:53:32Z</time>
      </trkpt>
      <trkpt lat="48.43088" lon="2.62205">
        <ele>124.15</ele>
        <time>2011-10-02T08:53:45Z</time>
      </trkpt>
      <trkpt lat="48.43047" lon="2.62165">
        <ele>124.15</ele>
        <time>2011-10-02T08:53:57Z</time>
      </trkpt>
      <trkpt lat="48.42985" lon="2.62107">
        <ele>123.67</ele>
        <time>2011-10-02T08:54:11Z</time>
      </trkpt>
      <trkpt lat="48.42947" lon="2.62069">
        <ele>124.15</ele>
        <time>2011-10-02T08:54:20Z</time>
      </trkpt>
      <trkpt lat="48.42944" lon="2.62064">
        <ele>124.15</ele>
        <time>2011-10-02T08:54:21Z</time>
      </trkpt>
      <trkpt lat="48.42936" lon="2.62057">
        <ele>124.63</ele>
        <time>2011-10-02T08:54:23Z</time>
      </trkpt>
      <trkpt lat="48.42932" lon="2.62053">
        <ele>124.63</ele>
        <time>2011-10-02T08:54:24Z</time>
      </trkpt>
      <trkpt lat="48.42906" lon="2.62031">
        <ele>124.63</ele>
        <time>2011-10-02T08:54:31Z</time>
      </trkpt>
      <trkpt lat="48.42902" lon="2.62027">
        <ele>124.63</ele>
        <time>2011-10-02T08:54:32Z</time>
      </trkpt>
      <trkpt lat="48.42854" lon="2.61977">
        <ele>124.63</ele>
        <time>2011-10-02T08:54:44Z</time>
      </trkpt>
      <trkpt lat="48.42825" lon="2.61949">
        <ele>124.63</ele>
        <time>2011-10-02T08:54:52Z</time>
      </trkpt>
      <trkpt lat="48.42796" lon="2.61923">
        <ele>124.15</ele>
        <time>2011-10-02T08:55:00Z</time>
      </trkpt>
      <trkpt lat="48.42743" lon="2.61871">
        <ele>121.26</ele>
        <time>2011-10-02T08:55:13Z</time>
      </trkpt>
      <trkpt lat="48.42718" lon="2.61845">
        <ele>117.9</ele>
        <time>2011-10-02T08:55:17Z</time>
      </trkpt>
      <trkpt lat="48.42708" lon="2.61837">
        <ele>114.53</ele>
        <time>2011-10-02T08:55:18Z</time>
      </trkpt>
      <trkpt lat="48.42702" lon="2.6183">
        <ele>113.09</ele>
        <time>2011-10-02T08:55:19Z</time>
      </trkpt>
      <trkpt lat="48.42692" lon="2.61821">
        <ele>110.21</ele>
        <time>2011-10-02T08:55:20Z</time>
      </trkpt>
      <trkpt lat="48.42671" lon="2.61802">
        <ele>105.4</ele>
        <time>2011-10-02T08:55:22Z</time>
      </trkpt>
      <trkpt lat="48.42649" lon="2.6178">
        <ele>101.56</ele>
        <time>2011-10-02T08:55:24Z</time>
      </trkpt>
      <trkpt lat="48.42614" lon="2.61744">
        <ele>97.23</ele>
        <time>2011-10-02T08:55:27Z</time>
      </trkpt>
      <trkpt lat="48.42591" lon="2.6172">
        <ele>96.27</ele>
        <time>2011-10-02T08:55:29Z</time>
      </trkpt>
      <trkpt lat="48.42516" lon="2.61643">
        <ele>95.31</ele>
        <time>2011-10-02T08:55:37Z</time>
      </trkpt>
      <trkpt lat="48.42498" lon="2.61626">
        <ele>92.42</ele>
        <time>2011-10-02T08:55:39Z</time>
      </trkpt>
      <trkpt lat="48.42489" lon="2.61617">
        <ele>91.46</ele>
        <time>2011-10-02T08:55:40Z</time>
      </trkpt>
      <trkpt lat="48.42461" lon="2.6159">
        <ele>89.06</ele>
        <time>2011-10-02T08:55:43Z</time>
      </trkpt>
      <trkpt lat="48.42408" lon="2.61537">
        <ele>85.69</ele>
        <time>2011-10-02T08:55:49Z</time>
      </trkpt>
      <trkpt lat="48.4236" lon="2.61498">
        <ele>85.21</ele>
        <time>2011-10-02T08:55:55Z</time>
      </trkpt>
      <trkpt lat="48.42318" lon="2.61455">
        <ele>84.25</ele>
        <time>2011-10-02T08:56:02Z</time>
      </trkpt>
      <trkpt lat="48.42313" lon="2.61449">
        <ele>84.25</ele>
        <time>2011-10-02T08:56:03Z</time>
      </trkpt>
      <trkpt lat="48.42255" lon="2.6139">
        <ele>82.33</ele>
        <time>2011-10-02T08:56:13Z</time>
      </trkpt>
      <trkpt lat="48.42204" lon="2.61344">
        <ele>80.41</ele>
        <time>2011-10-02T08:56:22Z</time>
      </trkpt>
      <trkpt lat="48.42131" lon="2.61273">
        <ele>78.97</ele>
        <time>2011-10-02T08:56:34Z</time>
      </trkpt>
      <trkpt lat="48.42101" lon="2.61242">
        <ele>78.97</ele>
        <time>2011-10-02T08:56:39Z</time>
      </trkpt>
      <trkpt lat="48.42096" lon="2.61235">
        <ele>79.45</ele>
        <time>2011-10-02T08:56:40Z</time>
      </trkpt>
      <trkpt lat="48.42092" lon="2.61229">
        <ele>78.97</ele>
        <time>2011-10-02T08:56:41Z</time>
      </trkpt>
      <trkpt lat="48.42087" lon="2.61224">
        <ele>79.45</ele>
        <time>2011-10-02T08:56:42Z</time>
      </trkpt>
      <trkpt lat="48.42083" lon="2.61221">
        <ele>79.93</ele>
        <time>2011-10-02T08:56:43Z</time>
      </trkpt>
      <trkpt lat="48.42063" lon="2.61202">
        <ele>79.45</ele>
        <time>2011-10-02T08:56:52Z</time>
      </trkpt>
      <trkpt lat="48.42056" lon="2.61194">
        <ele>78.97</ele>
        <time>2011-10-02T08:56:54Z</time>
      </trkpt>
      <trkpt lat="48.42051" lon="2.6119">
        <ele>78.97</ele>
        <time>2011-10-02T08:56:55Z</time>
      </trkpt>
      <trkpt lat="48.4198" lon="2.61117">
        <ele>78</ele>
        <time>2011-10-02T08:57:09Z</time>
      </trkpt>
      <trkpt lat="48.4192" lon="2.61058">
        <ele>78.97</ele>
        <time>2011-10-02T08:57:23Z</time>
      </trkpt>
      <trkpt lat="48.41885" lon="2.61024">
        <ele>78.48</ele>
        <time>2011-10-02T08:57:31Z</time>
      </trkpt>
      <trkpt lat="48.41813" lon="2.60954">
        <ele>78.48</ele>
        <time>2011-10-02T08:57:47Z</time>
      </trkpt>
      <trkpt lat="48.41731" lon="2.60874">
        <ele>78</ele>
        <time>2011-10-02T08:58:05Z</time>
      </trkpt>
      <trkpt lat="48.41704" lon="2.60845">
        <ele>78.48</ele>
        <time>2011-10-02T08:58:16Z</time>
      </trkpt>
      <trkpt lat="48.41702" lon="2.60841">
        <ele>78.48</ele>
        <time>2011-10-02T08:58:18Z</time>
      </trkpt>
      <trkpt lat="48.41702" lon="2.60839">
        <ele>78.48</ele>
        <time>2011-10-02T08:58:19Z</time>
      </trkpt>
      <trkpt lat="48.41702" lon="2.60837">
        <ele>78.48</ele>
        <time>2011-10-02T08:58:20Z</time>
      </trkpt>
      <trkpt lat="48.417" lon="2.60826">
        <ele>78</ele>
        <time>2011-10-02T08:58:24Z</time>
      </trkpt>
      <trkpt lat="48.41697" lon="2.60823">
        <ele>78</ele>
        <time>2011-10-02T08:58:26Z</time>
      </trkpt>
      <trkpt lat="48.41695" lon="2.60823">
        <ele>78.48</ele>
        <time>2011-10-02T08:58:27Z</time>
      </trkpt>
      <trkpt lat="48.41692" lon="2.60827">
        <ele>78.48</ele>
        <time>2011-10-02T08:58:30Z</time>
      </trkpt>
      <trkpt lat="48.41692" lon="2.60828">
        <ele>78</ele>
        <time>2011-10-02T08:58:31Z</time>
      </trkpt>
      <trkpt lat="48.4169" lon="2.60829">
        <ele>78</ele>
        <time>2011-10-02T08:58:32Z</time>
      </trkpt>
      <trkpt lat="48.41687" lon="2.60828">
        <ele>78</ele>
        <time>2011-10-02T08:58:33Z</time>
      </trkpt>
      <trkpt lat="48.41685" lon="2.60827">
        <ele>77.52</ele>
        <time>2011-10-02T08:58:34Z</time>
      </trkpt>
      <trkpt lat="48.41682" lon="2.60824">
        <ele>78</ele>
        <time>2011-10-02T08:58:35Z</time>
      </trkpt>
      <trkpt lat="48.41679" lon="2.60821">
        <ele>78</ele>
        <time>2011-10-02T08:58:36Z</time>
      </trkpt>
      <trkpt lat="48.4165" lon="2.60795">
        <ele>77.04</ele>
        <time>2011-10-02T08:58:44Z</time>
      </trkpt>
      <trkpt lat="48.41616" lon="2.60773">
        <ele>78</ele>
        <time>2011-10-02T08:58:54Z</time>
      </trkpt>
      <trkpt lat="48.41582" lon="2.60778">
        <ele>77.52</ele>
        <time>2011-10-02T08:59:05Z</time>
      </trkpt>
      <trkpt lat="48.41519" lon="2.60799">
        <ele>78</ele>
        <time>2011-10-02T08:59:20Z</time>
      </trkpt>
      <trkpt lat="48.41485" lon="2.60811">
        <ele>77.52</ele>
        <time>2011-10-02T08:59:27Z</time>
      </trkpt>
      <trkpt lat="48.41479" lon="2.60813">
        <ele>77.52</ele>
        <time>2011-10-02T08:59:28Z</time>
      </trkpt>
      <trkpt lat="48.41445" lon="2.60825">
        <ele>78</ele>
        <time>2011-10-02T08:59:35Z</time>
      </trkpt>
      <trkpt lat="48.41422" lon="2.60832">
        <ele>77.52</ele>
        <time>2011-10-02T08:59:40Z</time>
      </trkpt>
      <trkpt lat="48.41418" lon="2.60833">
        <ele>77.52</ele>
        <time>2011-10-02T08:59:41Z</time>
      </trkpt>
      <trkpt lat="48.41413" lon="2.60835">
        <ele>77.52</ele>
        <time>2011-10-02T08:59:42Z</time>
      </trkpt>
      <trkpt lat="48.41405" lon="2.60837">
        <ele>77.04</ele>
        <time>2011-10-02T08:59:44Z</time>
      </trkpt>
      <trkpt lat="48.41401" lon="2.60838">
        <ele>77.52</ele>
        <time>2011-10-02T08:59:45Z</time>
      </trkpt>
      <trkpt lat="48.41368" lon="2.6085">
        <ele>77.04</ele>
        <time>2011-10-02T08:59:52Z</time>
      </trkpt>
      <trkpt lat="48.41359" lon="2.60854">
        <ele>77.04</ele>
        <time>2011-10-02T08:59:54Z</time>
      </trkpt>
      <trkpt lat="48.41335" lon="2.60862">
        <ele>77.04</ele>
        <time>2011-10-02T08:59:59Z</time>
      </trkpt>
      <trkpt lat="48.4133" lon="2.60864">
        <ele>77.04</ele>
        <time>2011-10-02T09:00:00Z</time>
      </trkpt>
      <trkpt lat="48.41299" lon="2.60875">
        <ele>77.04</ele>
        <time>2011-10-02T09:00:06Z</time>
      </trkpt>
      <trkpt lat="48.41294" lon="2.60877">
        <ele>77.04</ele>
        <time>2011-10-02T09:00:07Z</time>
      </trkpt>
      <trkpt lat="48.41289" lon="2.60877">
        <ele>76.56</ele>
        <time>2011-10-02T09:00:08Z</time>
      </trkpt>
      <trkpt lat="48.41284" lon="2.60879">
        <ele>76.56</ele>
        <time>2011-10-02T09:00:09Z</time>
      </trkpt>
      <trkpt lat="48.41279" lon="2.60881">
        <ele>76.56</ele>
        <time>2011-10-02T09:00:10Z</time>
      </trkpt>
      <trkpt lat="48.41274" lon="2.60884">
        <ele>76.56</ele>
        <time>2011-10-02T09:00:11Z</time>
      </trkpt>
      <trkpt lat="48.41259" lon="2.60891">
        <ele>77.04</ele>
        <time>2011-10-02T09:00:14Z</time>
      </trkpt>
      <trkpt lat="48.41255" lon="2.60894">
        <ele>76.56</ele>
        <time>2011-10-02T09:00:15Z</time>
      </trkpt>
      <trkpt lat="48.4125" lon="2.60897">
        <ele>76.56</ele>
        <time>2011-10-02T09:00:16Z</time>
      </trkpt>
      <trkpt lat="48.41245" lon="2.60899">
        <ele>76.56</ele>
        <time>2011-10-02T09:00:17Z</time>
      </trkpt>
      <trkpt lat="48.4124" lon="2.60901">
        <ele>76.56</ele>
        <time>2011-10-02T09:00:18Z</time>
      </trkpt>
      <trkpt lat="48.41235" lon="2.60904">
        <ele>76.56</ele>
        <time>2011-10-02T09:00:19Z</time>
      </trkpt>
      <trkpt lat="48.41225" lon="2.6091">
        <ele>76.56</ele>
        <time>2011-10-02T09:00:21Z</time>
      </trkpt>
      <trkpt lat="48.41204" lon="2.60918">
        <ele>76.56</ele>
        <time>2011-10-02T09:00:25Z</time>
      </trkpt>
      <trkpt lat="48.41157" lon="2.60932">
        <ele>78</ele>
        <time>2011-10-02T09:00:35Z</time>
      </trkpt>
      <trkpt lat="48.41144" lon="2.60936">
        <ele>77.52</ele>
        <time>2011-10-02T09:00:38Z</time>
      </trkpt>
      <trkpt lat="48.4114" lon="2.60939">
        <ele>78</ele>
        <time>2011-10-02T09:00:39Z</time>
      </trkpt>
      <trkpt lat="48.41118" lon="2.60949">
        <ele>78</ele>
        <time>2011-10-02T09:00:44Z</time>
      </trkpt>
      <trkpt lat="48.41114" lon="2.60951">
        <ele>78</ele>
        <time>2011-10-02T09:00:45Z</time>
      </trkpt>
      <trkpt lat="48.41111" lon="2.60952">
        <ele>78</ele>
        <time>2011-10-02T09:00:46Z</time>
      </trkpt>
      <trkpt lat="48.41094" lon="2.60956">
        <ele>78.97</ele>
        <time>2011-10-02T09:00:51Z</time>
      </trkpt>
      <trkpt lat="48.41091" lon="2.60956">
        <ele>78.97</ele>
        <time>2011-10-02T09:00:52Z</time>
      </trkpt>
      <trkpt lat="48.41089" lon="2.60956">
        <ele>78.97</ele>
        <time>2011-10-02T09:00:53Z</time>
      </trkpt>
      <trkpt lat="48.41088" lon="2.60958">
        <ele>78.97</ele>
        <time>2011-10-02T09:00:54Z</time>
      </trkpt>
      <trkpt lat="48.41086" lon="2.6096">
        <ele>78.97</ele>
        <time>2011-10-02T09:00:55Z</time>
      </trkpt>
      <trkpt lat="48.41084" lon="2.60962">
        <ele>79.45</ele>
        <time>2011-10-02T09:00:56Z</time>
      </trkpt>
      <trkpt lat="48.41082" lon="2.60962">
        <ele>79.45</ele>
        <time>2011-10-02T09:00:57Z</time>
      </trkpt>
      <trkpt lat="48.41081" lon="2.60963">
        <ele>79.45</ele>
        <time>2011-10-02T09:00:58Z</time>
      </trkpt>
      <trkpt lat="48.41079" lon="2.60965">
        <ele>79.93</ele>
        <time>2011-10-02T09:00:59Z</time>
      </trkpt>
      <trkpt lat="48.41077" lon="2.60966">
        <ele>79.45</ele>
        <time>2011-10-02T09:01:00Z</time>
      </trkpt>
      <trkpt lat="48.41074" lon="2.60968">
        <ele>79.93</ele>
        <time>2011-10-02T09:01:01Z</time>
      </trkpt>
      <trkpt lat="48.41045" lon="2.60978">
        <ele>81.85</ele>
        <time>2011-10-02T09:01:14Z</time>
      </trkpt>
      <trkpt lat="48.41017" lon="2.60977">
        <ele>83.29</ele>
        <time>2011-10-02T09:01:27Z</time>
      </trkpt>
      <trkpt lat="48.4099" lon="2.60968">
        <ele>86.18</ele>
        <time>2011-10-02T09:01:40Z</time>
      </trkpt>
      <trkpt lat="48.40969" lon="2.60966">
        <ele>88.1</ele>
        <time>2011-10-02T09:01:52Z</time>
      </trkpt>
      <trkpt lat="48.40967" lon="2.60967">
        <ele>88.1</ele>
        <time>2011-10-02T09:01:53Z</time>
      </trkpt>
      <trkpt lat="48.40951" lon="2.60977">
        <ele>91.46</ele>
        <time>2011-10-02T09:02:04Z</time>
      </trkpt>
      <trkpt lat="48.40939" lon="2.60997">
        <ele>91.94</ele>
        <time>2011-10-02T09:02:18Z</time>
      </trkpt>
      <trkpt lat="48.4092" lon="2.61019">
        <ele>92.42</ele>
        <time>2011-10-02T09:02:31Z</time>
      </trkpt>
      <trkpt lat="48.40889" lon="2.61043">
        <ele>90.98</ele>
        <time>2011-10-02T09:02:42Z</time>
      </trkpt>
      <trkpt lat="48.40881" lon="2.61059">
        <ele>88.58</ele>
        <time>2011-10-02T09:02:46Z</time>
      </trkpt>
      <trkpt lat="48.40874" lon="2.61082">
        <ele>86.18</ele>
        <time>2011-10-02T09:02:50Z</time>
      </trkpt>
      <trkpt lat="48.40873" lon="2.61176">
        <ele>82.81</ele>
        <time>2011-10-02T09:02:59Z</time>
      </trkpt>
      <trkpt lat="48.40892" lon="2.61292">
        <ele>82.81</ele>
        <time>2011-10-02T09:03:09Z</time>
      </trkpt>
      <trkpt lat="48.40894" lon="2.613">
        <ele>82.33</ele>
        <time>2011-10-02T09:03:10Z</time>
      </trkpt>
      <trkpt lat="48.4091" lon="2.61382">
        <ele>83.77</ele>
        <time>2011-10-02T09:03:22Z</time>
      </trkpt>
      <trkpt lat="48.40912" lon="2.61388">
        <ele>83.77</ele>
        <time>2011-10-02T09:03:23Z</time>
      </trkpt>
      <trkpt lat="48.40913" lon="2.61394">
        <ele>83.77</ele>
        <time>2011-10-02T09:03:24Z</time>
      </trkpt>
      <trkpt lat="48.4091" lon="2.61445">
        <ele>85.69</ele>
        <time>2011-10-02T09:03:34Z</time>
      </trkpt>
      <trkpt lat="48.40908" lon="2.61449">
        <ele>85.69</ele>
        <time>2011-10-02T09:03:35Z</time>
      </trkpt>
      <trkpt lat="48.40907" lon="2.61453">
        <ele>85.69</ele>
        <time>2011-10-02T09:03:36Z</time>
      </trkpt>
      <trkpt lat="48.40906" lon="2.61457">
        <ele>86.18</ele>
        <time>2011-10-02T09:03:37Z</time>
      </trkpt>
      <trkpt lat="48.40905" lon="2.61461">
        <ele>86.18</ele>
        <time>2011-10-02T09:03:38Z</time>
      </trkpt>
      <trkpt lat="48.40904" lon="2.61465">
        <ele>86.66</ele>
        <time>2011-10-02T09:03:39Z</time>
      </trkpt>
      <trkpt lat="48.40902" lon="2.61469">
        <ele>86.66</ele>
        <time>2011-10-02T09:03:40Z</time>
      </trkpt>
      <trkpt lat="48.40902" lon="2.61473">
        <ele>86.66</ele>
        <time>2011-10-02T09:03:41Z</time>
      </trkpt>
      <trkpt lat="48.40889" lon="2.61525">
        <ele>88.1</ele>
        <time>2011-10-02T09:03:55Z</time>
      </trkpt>
      <trkpt lat="48.40868" lon="2.61559">
        <ele>88.58</ele>
        <time>2011-10-02T09:04:06Z</time>
      </trkpt>
      <trkpt lat="48.40849" lon="2.61608">
        <ele>89.06</ele>
        <time>2011-10-02T09:04:17Z</time>
      </trkpt>
      <trkpt lat="48.40842" lon="2.61687">
        <ele>89.06</ele>
        <time>2011-10-02T09:04:31Z</time>
      </trkpt>
      <trkpt lat="48.40826" lon="2.61773">
        <ele>90.02</ele>
        <time>2011-10-02T09:04:48Z</time>
      </trkpt>
      <trkpt lat="48.40816" lon="2.61837">
        <ele>90.02</ele>
        <time>2011-10-02T09:05:01Z</time>
      </trkpt>
      <trkpt lat="48.40807" lon="2.61908">
        <ele>90.02</ele>
        <time>2011-10-02T09:05:12Z</time>
      </trkpt>
      <trkpt lat="48.40812" lon="2.61991">
        <ele>90.98</ele>
        <time>2011-10-02T09:05:27Z</time>
      </trkpt>
      <trkpt lat="48.40814" lon="2.62053">
        <ele>91.94</ele>
        <time>2011-10-02T09:05:40Z</time>
      </trkpt>
      <trkpt lat="48.40819" lon="2.62102">
        <ele>93.39</ele>
        <time>2011-10-02T09:05:53Z</time>
      </trkpt>
      <trkpt lat="48.40818" lon="2.62136">
        <ele>95.31</ele>
        <time>2011-10-02T09:06:07Z</time>
      </trkpt>
      <trkpt lat="48.40806" lon="2.62175">
        <ele>94.83</ele>
        <time>2011-10-02T09:06:20Z</time>
      </trkpt>
      <trkpt lat="48.40789" lon="2.62223">
        <ele>93.87</ele>
        <time>2011-10-02T09:06:34Z</time>
      </trkpt>
      <trkpt lat="48.40766" lon="2.62292">
        <ele>93.87</ele>
        <time>2011-10-02T09:06:48Z</time>
      </trkpt>
      <trkpt lat="48.40757" lon="2.62326">
        <ele>92.9</ele>
        <time>2011-10-02T09:06:53Z</time>
      </trkpt>
      <trkpt lat="48.40754" lon="2.62334">
        <ele>92.9</ele>
        <time>2011-10-02T09:06:54Z</time>
      </trkpt>
      <trkpt lat="48.40746" lon="2.62354">
        <ele>93.39</ele>
        <time>2011-10-02T09:06:57Z</time>
      </trkpt>
      <trkpt lat="48.40742" lon="2.62365">
        <ele>93.87</ele>
        <time>2011-10-02T09:06:59Z</time>
      </trkpt>
      <trkpt lat="48.4074" lon="2.62371">
        <ele>93.87</ele>
        <time>2011-10-02T09:07:00Z</time>
      </trkpt>
      <trkpt lat="48.40737" lon="2.62376">
        <ele>93.87</ele>
        <time>2011-10-02T09:07:01Z</time>
      </trkpt>
      <trkpt lat="48.40736" lon="2.6238">
        <ele>94.35</ele>
        <time>2011-10-02T09:07:02Z</time>
      </trkpt>
      <trkpt lat="48.40734" lon="2.62385">
        <ele>93.87</ele>
        <time>2011-10-02T09:07:03Z</time>
      </trkpt>
      <trkpt lat="48.40732" lon="2.6239">
        <ele>93.87</ele>
        <time>2011-10-02T09:07:04Z</time>
      </trkpt>
      <trkpt lat="48.40715" lon="2.62456">
        <ele>94.83</ele>
        <time>2011-10-02T09:07:17Z</time>
      </trkpt>
      <trkpt lat="48.40707" lon="2.62508">
        <ele>95.31</ele>
        <time>2011-10-02T09:07:30Z</time>
      </trkpt>
      <trkpt lat="48.40707" lon="2.62516">
        <ele>95.79</ele>
        <time>2011-10-02T09:07:32Z</time>
      </trkpt>
      <trkpt lat="48.40713" lon="2.62556">
        <ele>95.79</ele>
        <time>2011-10-02T09:07:43Z</time>
      </trkpt>
      <trkpt lat="48.40715" lon="2.626">
        <ele>95.79</ele>
        <time>2011-10-02T09:07:55Z</time>
      </trkpt>
      <trkpt lat="48.40717" lon="2.62657">
        <ele>95.79</ele>
        <time>2011-10-02T09:08:08Z</time>
      </trkpt>
      <trkpt lat="48.407" lon="2.62664">
        <ele>97.71</ele>
        <time>2011-10-02T09:08:18Z</time>
      </trkpt>
      <trkpt lat="48.40697" lon="2.62659">
        <ele>97.71</ele>
        <time>2011-10-02T09:08:19Z</time>
      </trkpt>
      <trkpt lat="48.40693" lon="2.62655">
        <ele>97.71</ele>
        <time>2011-10-02T09:08:20Z</time>
      </trkpt>
      <trkpt lat="48.40675" lon="2.62633">
        <ele>98.19</ele>
        <time>2011-10-02T09:08:33Z</time>
      </trkpt>
      <trkpt lat="48.40675" lon="2.62633">
        <ele>97.71</ele>
        <time>2011-10-02T09:08:51Z</time>
      </trkpt>
      <trkpt lat="48.40673" lon="2.62632">
        <ele>97.71</ele>
        <time>2011-10-02T09:08:56Z</time>
      </trkpt>
      <trkpt lat="48.40672" lon="2.6263">
        <ele>97.71</ele>
        <time>2011-10-02T09:08:57Z</time>
      </trkpt>
      <trkpt lat="48.40671" lon="2.62628">
        <ele>97.71</ele>
        <time>2011-10-02T09:08:58Z</time>
      </trkpt>
      <trkpt lat="48.4067" lon="2.62626">
        <ele>97.71</ele>
        <time>2011-10-02T09:08:59Z</time>
      </trkpt>
      <trkpt lat="48.4067" lon="2.62624">
        <ele>97.71</ele>
        <time>2011-10-02T09:09:00Z</time>
      </trkpt>
      <trkpt lat="48.40668" lon="2.62622">
        <ele>97.71</ele>
        <time>2011-10-02T09:09:01Z</time>
      </trkpt>
      <trkpt lat="48.40667" lon="2.6262">
        <ele>97.71</ele>
        <time>2011-10-02T09:09:02Z</time>
      </trkpt>
      <trkpt lat="48.40665" lon="2.62618">
        <ele>97.71</ele>
        <time>2011-10-02T09:09:03Z</time>
      </trkpt>
      <trkpt lat="48.40663" lon="2.62615">
        <ele>97.71</ele>
        <time>2011-10-02T09:09:04Z</time>
      </trkpt>
      <trkpt lat="48.40645" lon="2.62594">
        <ele>99.15</ele>
        <time>2011-10-02T09:09:16Z</time>
      </trkpt>
      <trkpt lat="48.40625" lon="2.62575">
        <ele>101.56</ele>
        <time>2011-10-02T09:09:31Z</time>
      </trkpt>
      <trkpt lat="48.40609" lon="2.62565">
        <ele>103.48</ele>
        <time>2011-10-02T09:09:42Z</time>
      </trkpt>
      <trkpt lat="48.40607" lon="2.62565">
        <ele>103.48</ele>
        <time>2011-10-02T09:09:43Z</time>
      </trkpt>
      <trkpt lat="48.40598" lon="2.62562">
        <ele>104.44</ele>
        <time>2011-10-02T09:09:51Z</time>
      </trkpt>
      <trkpt lat="48.40594" lon="2.62559">
        <ele>104.44</ele>
        <time>2011-10-02T09:09:56Z</time>
      </trkpt>
      <trkpt lat="48.40592" lon="2.62559">
        <ele>105.4</ele>
        <time>2011-10-02T09:09:57Z</time>
      </trkpt>
      <trkpt lat="48.40571" lon="2.62553">
        <ele>105.88</ele>
        <time>2011-10-02T09:10:12Z</time>
      </trkpt>
      <trkpt lat="48.40558" lon="2.62536">
        <ele>107.32</ele>
        <time>2011-10-02T09:10:25Z</time>
      </trkpt>
      <trkpt lat="48.40559" lon="2.62498">
        <ele>107.81</ele>
        <time>2011-10-02T09:10:39Z</time>
      </trkpt>
      <trkpt lat="48.40568" lon="2.62451">
        <ele>108.29</ele>
        <time>2011-10-02T09:10:52Z</time>
      </trkpt>
      <trkpt lat="48.40571" lon="2.62409">
        <ele>109.73</ele>
        <time>2011-10-02T09:11:04Z</time>
      </trkpt>
      <trkpt lat="48.40575" lon="2.6237">
        <ele>111.17</ele>
        <time>2011-10-02T09:11:20Z</time>
      </trkpt>
      <trkpt lat="48.40579" lon="2.62342">
        <ele>112.13</ele>
        <time>2011-10-02T09:11:32Z</time>
      </trkpt>
      <trkpt lat="48.40583" lon="2.62308">
        <ele>115.01</ele>
        <time>2011-10-02T09:11:47Z</time>
      </trkpt>
      <trkpt lat="48.40583" lon="2.62305">
        <ele>115.01</ele>
        <time>2011-10-02T09:11:49Z</time>
      </trkpt>
      <trkpt lat="48.40584" lon="2.62297">
        <ele>115.98</ele>
        <time>2011-10-02T09:11:54Z</time>
      </trkpt>
      <trkpt lat="48.40585" lon="2.62295">
        <ele>115.98</ele>
        <time>2011-10-02T09:11:55Z</time>
      </trkpt>
      <trkpt lat="48.40585" lon="2.62293">
        <ele>115.98</ele>
        <time>2011-10-02T09:11:56Z</time>
      </trkpt>
      <trkpt lat="48.40588" lon="2.62267">
        <ele>116.94</ele>
        <time>2011-10-02T09:12:09Z</time>
      </trkpt>
      <trkpt lat="48.40594" lon="2.62231">
        <ele>115.01</ele>
        <time>2011-10-02T09:12:22Z</time>
      </trkpt>
      <trkpt lat="48.40605" lon="2.6219">
        <ele>111.65</ele>
        <time>2011-10-02T09:12:30Z</time>
      </trkpt>
      <trkpt lat="48.40607" lon="2.6218">
        <ele>111.17</ele>
        <time>2011-10-02T09:12:31Z</time>
      </trkpt>
      <trkpt lat="48.40609" lon="2.62173">
        <ele>110.69</ele>
        <time>2011-10-02T09:12:32Z</time>
      </trkpt>
      <trkpt lat="48.40614" lon="2.62131">
        <ele>107.81</ele>
        <time>2011-10-02T09:12:36Z</time>
      </trkpt>
      <trkpt lat="48.40622" lon="2.62058">
        <ele>104.44</ele>
        <time>2011-10-02T09:12:42Z</time>
      </trkpt>
      <trkpt lat="48.40632" lon="2.61989">
        <ele>103.48</ele>
        <time>2011-10-02T09:12:49Z</time>
      </trkpt>
      <trkpt lat="48.40633" lon="2.6198">
        <ele>103.48</ele>
        <time>2011-10-02T09:12:50Z</time>
      </trkpt>
      <trkpt lat="48.40641" lon="2.61928">
        <ele>103</ele>
        <time>2011-10-02T09:12:56Z</time>
      </trkpt>
      <trkpt lat="48.40642" lon="2.6192">
        <ele>103</ele>
        <time>2011-10-02T09:12:57Z</time>
      </trkpt>
      <trkpt lat="48.40643" lon="2.61913">
        <ele>103.48</ele>
        <time>2011-10-02T09:12:58Z</time>
      </trkpt>
      <trkpt lat="48.40644" lon="2.61907">
        <ele>103.48</ele>
        <time>2011-10-02T09:12:59Z</time>
      </trkpt>
      <trkpt lat="48.40645" lon="2.61901">
        <ele>103.96</ele>
        <time>2011-10-02T09:13:00Z</time>
      </trkpt>
      <trkpt lat="48.40646" lon="2.61896">
        <ele>103.96</ele>
        <time>2011-10-02T09:13:01Z</time>
      </trkpt>
      <trkpt lat="48.40647" lon="2.61881">
        <ele>104.44</ele>
        <time>2011-10-02T09:13:09Z</time>
      </trkpt>
      <trkpt lat="48.4065" lon="2.61861">
        <ele>103.96</ele>
        <time>2011-10-02T09:13:19Z</time>
      </trkpt>
      <trkpt lat="48.40656" lon="2.61809">
        <ele>102.52</ele>
        <time>2011-10-02T09:13:30Z</time>
      </trkpt>
      <trkpt lat="48.40658" lon="2.61796">
        <ele>102.52</ele>
        <time>2011-10-02T09:13:32Z</time>
      </trkpt>
      <trkpt lat="48.40659" lon="2.6179">
        <ele>102.04</ele>
        <time>2011-10-02T09:13:33Z</time>
      </trkpt>
      <trkpt lat="48.4067" lon="2.61705">
        <ele>100.6</ele>
        <time>2011-10-02T09:13:47Z</time>
      </trkpt>
      <trkpt lat="48.40678" lon="2.6165">
        <ele>101.56</ele>
        <time>2011-10-02T09:13:58Z</time>
      </trkpt>
      <trkpt lat="48.40686" lon="2.61588">
        <ele>102.52</ele>
        <time>2011-10-02T09:14:14Z</time>
      </trkpt>
      <trkpt lat="48.40692" lon="2.61533">
        <ele>104.44</ele>
        <time>2011-10-02T09:14:28Z</time>
      </trkpt>
      <trkpt lat="48.40697" lon="2.6149">
        <ele>104.92</ele>
        <time>2011-10-02T09:14:42Z</time>
      </trkpt>
      <trkpt lat="48.40701" lon="2.61455">
        <ele>107.81</ele>
        <time>2011-10-02T09:14:55Z</time>
      </trkpt>
      <trkpt lat="48.40707" lon="2.61415">
        <ele>106.36</ele>
        <time>2011-10-02T09:15:09Z</time>
      </trkpt>
      <trkpt lat="48.40724" lon="2.61348">
        <ele>103.96</ele>
        <time>2011-10-02T09:15:19Z</time>
      </trkpt>
      <trkpt lat="48.40727" lon="2.6134">
        <ele>103.48</ele>
        <time>2011-10-02T09:15:20Z</time>
      </trkpt>
      <trkpt lat="48.40729" lon="2.61332">
        <ele>103.48</ele>
        <time>2011-10-02T09:15:21Z</time>
      </trkpt>
      <trkpt lat="48.40745" lon="2.61224">
        <ele>100.6</ele>
        <time>2011-10-02T09:15:32Z</time>
      </trkpt>
      <trkpt lat="48.40749" lon="2.61194">
        <ele>100.11</ele>
        <time>2011-10-02T09:15:35Z</time>
      </trkpt>
      <trkpt lat="48.4075" lon="2.61185">
        <ele>100.11</ele>
        <time>2011-10-02T09:15:36Z</time>
      </trkpt>
      <trkpt lat="48.4075" lon="2.61176">
        <ele>99.63</ele>
        <time>2011-10-02T09:15:37Z</time>
      </trkpt>
      <trkpt lat="48.40752" lon="2.6116">
        <ele>100.11</ele>
        <time>2011-10-02T09:15:39Z</time>
      </trkpt>
      <trkpt lat="48.40753" lon="2.61128">
        <ele>98.67</ele>
        <time>2011-10-02T09:15:43Z</time>
      </trkpt>
      <trkpt lat="48.40752" lon="2.61101">
        <ele>97.71</ele>
        <time>2011-10-02T09:15:46Z</time>
      </trkpt>
      <trkpt lat="48.40756" lon="2.61027">
        <ele>95.31</ele>
        <time>2011-10-02T09:15:54Z</time>
      </trkpt>
      <trkpt lat="48.40757" lon="2.61016">
        <ele>95.31</ele>
        <time>2011-10-02T09:15:55Z</time>
      </trkpt>
      <trkpt lat="48.40758" lon="2.60984">
        <ele>93.87</ele>
        <time>2011-10-02T09:15:58Z</time>
      </trkpt>
      <trkpt lat="48.40759" lon="2.60973">
        <ele>93.87</ele>
        <time>2011-10-02T09:15:59Z</time>
      </trkpt>
      <trkpt lat="48.4076" lon="2.60962">
        <ele>93.39</ele>
        <time>2011-10-02T09:16:00Z</time>
      </trkpt>
      <trkpt lat="48.4076" lon="2.60952">
        <ele>93.39</ele>
        <time>2011-10-02T09:16:01Z</time>
      </trkpt>
      <trkpt lat="48.4076" lon="2.60943">
        <ele>93.39</ele>
        <time>2011-10-02T09:16:02Z</time>
      </trkpt>
      <trkpt lat="48.40761" lon="2.60933">
        <ele>92.9</ele>
        <time>2011-10-02T09:16:03Z</time>
      </trkpt>
      <trkpt lat="48.40762" lon="2.60914">
        <ele>92.9</ele>
        <time>2011-10-02T09:16:05Z</time>
      </trkpt>
      <trkpt lat="48.40762" lon="2.60905">
        <ele>92.42</ele>
        <time>2011-10-02T09:16:06Z</time>
      </trkpt>
      <trkpt lat="48.40768" lon="2.60818">
        <ele>91.94</ele>
        <time>2011-10-02T09:16:17Z</time>
      </trkpt>
      <trkpt lat="48.40773" lon="2.60758">
        <ele>93.87</ele>
        <time>2011-10-02T09:16:28Z</time>
      </trkpt>
      <trkpt lat="48.40778" lon="2.60719">
        <ele>95.79</ele>
        <time>2011-10-02T09:16:40Z</time>
      </trkpt>
      <trkpt lat="48.4078" lon="2.60698">
        <ele>94.35</ele>
        <time>2011-10-02T09:16:44Z</time>
      </trkpt>
      <trkpt lat="48.40782" lon="2.60692">
        <ele>94.35</ele>
        <time>2011-10-02T09:16:45Z</time>
      </trkpt>
      <trkpt lat="48.40783" lon="2.60687">
        <ele>93.87</ele>
        <time>2011-10-02T09:16:46Z</time>
      </trkpt>
      <trkpt lat="48.40784" lon="2.60681">
        <ele>93.87</ele>
        <time>2011-10-02T09:16:47Z</time>
      </trkpt>
      <trkpt lat="48.40784" lon="2.60674">
        <ele>93.39</ele>
        <time>2011-10-02T09:16:48Z</time>
      </trkpt>
      <trkpt lat="48.40785" lon="2.60667">
        <ele>93.39</ele>
        <time>2011-10-02T09:16:49Z</time>
      </trkpt>
      <trkpt lat="48.40785" lon="2.6066">
        <ele>92.9</ele>
        <time>2011-10-02T09:16:50Z</time>
      </trkpt>
      <trkpt lat="48.40788" lon="2.60632">
        <ele>91.94</ele>
        <time>2011-10-02T09:16:54Z</time>
      </trkpt>
      <trkpt lat="48.40789" lon="2.60624">
        <ele>91.46</ele>
        <time>2011-10-02T09:16:55Z</time>
      </trkpt>
      <trkpt lat="48.4079" lon="2.60617">
        <ele>90.98</ele>
        <time>2011-10-02T09:16:56Z</time>
      </trkpt>
      <trkpt lat="48.40793" lon="2.60588">
        <ele>90.02</ele>
        <time>2011-10-02T09:17:00Z</time>
      </trkpt>
      <trkpt lat="48.40793" lon="2.60581">
        <ele>90.02</ele>
        <time>2011-10-02T09:17:01Z</time>
      </trkpt>
      <trkpt lat="48.40793" lon="2.60573">
        <ele>90.02</ele>
        <time>2011-10-02T09:17:02Z</time>
      </trkpt>
      <trkpt lat="48.40802" lon="2.60493">
        <ele>87.62</ele>
        <time>2011-10-02T09:17:12Z</time>
      </trkpt>
      <trkpt lat="48.40803" lon="2.60484">
        <ele>87.62</ele>
        <time>2011-10-02T09:17:13Z</time>
      </trkpt>
      <trkpt lat="48.40816" lon="2.60386">
        <ele>85.21</ele>
        <time>2011-10-02T09:17:25Z</time>
      </trkpt>
      <trkpt lat="48.40823" lon="2.60315">
        <ele>84.25</ele>
        <time>2011-10-02T09:17:34Z</time>
      </trkpt>
      <trkpt lat="48.40825" lon="2.60307">
        <ele>84.25</ele>
        <time>2011-10-02T09:17:35Z</time>
      </trkpt>
      <trkpt lat="48.40826" lon="2.60288">
        <ele>83.77</ele>
        <time>2011-10-02T09:17:38Z</time>
      </trkpt>
      <trkpt lat="48.40833" lon="2.60224">
        <ele>82.33</ele>
        <time>2011-10-02T09:17:47Z</time>
      </trkpt>
      <trkpt lat="48.40834" lon="2.60216">
        <ele>82.33</ele>
        <time>2011-10-02T09:17:48Z</time>
      </trkpt>
      <trkpt lat="48.40845" lon="2.6012">
        <ele>80.41</ele>
        <time>2011-10-02T09:18:00Z</time>
      </trkpt>
      <trkpt lat="48.40856" lon="2.60078">
        <ele>79.45</ele>
        <time>2011-10-02T09:18:06Z</time>
      </trkpt>
      <trkpt lat="48.40858" lon="2.60072">
        <ele>78.97</ele>
        <time>2011-10-02T09:18:07Z</time>
      </trkpt>
      <trkpt lat="48.40863" lon="2.60051">
        <ele>78.97</ele>
        <time>2011-10-02T09:18:10Z</time>
      </trkpt>
      <trkpt lat="48.40866" lon="2.60044">
        <ele>78.48</ele>
        <time>2011-10-02T09:18:11Z</time>
      </trkpt>
      <trkpt lat="48.40869" lon="2.6003">
        <ele>78.97</ele>
        <time>2011-10-02T09:18:13Z</time>
      </trkpt>
      <trkpt lat="48.40871" lon="2.60022">
        <ele>78</ele>
        <time>2011-10-02T09:18:14Z</time>
      </trkpt>
      <trkpt lat="48.40873" lon="2.60015">
        <ele>78.48</ele>
        <time>2011-10-02T09:18:15Z</time>
      </trkpt>
      <trkpt lat="48.40893" lon="2.59951">
        <ele>77.52</ele>
        <time>2011-10-02T09:18:24Z</time>
      </trkpt>
      <trkpt lat="48.40896" lon="2.59944">
        <ele>77.52</ele>
        <time>2011-10-02T09:18:25Z</time>
      </trkpt>
      <trkpt lat="48.40903" lon="2.59922">
        <ele>77.04</ele>
        <time>2011-10-02T09:18:28Z</time>
      </trkpt>
      <trkpt lat="48.40923" lon="2.59846">
        <ele>76.56</ele>
        <time>2011-10-02T09:18:40Z</time>
      </trkpt>
      <trkpt lat="48.40924" lon="2.59827">
        <ele>75.6</ele>
        <time>2011-10-02T09:18:43Z</time>
      </trkpt>
      <trkpt lat="48.40926" lon="2.59821">
        <ele>75.6</ele>
        <time>2011-10-02T09:18:44Z</time>
      </trkpt>
      <trkpt lat="48.40932" lon="2.59785">
        <ele>75.6</ele>
        <time>2011-10-02T09:18:51Z</time>
      </trkpt>
      <trkpt lat="48.40932" lon="2.59781">
        <ele>75.6</ele>
        <time>2011-10-02T09:19:01Z</time>
      </trkpt>
      <trkpt lat="48.40933" lon="2.59775">
        <ele>76.08</ele>
        <time>2011-10-02T09:19:18Z</time>
      </trkpt>
      <trkpt lat="48.40933" lon="2.59773">
        <ele>76.08</ele>
        <time>2011-10-02T09:19:19Z</time>
      </trkpt>
      <trkpt lat="48.40934" lon="2.5977">
        <ele>76.08</ele>
        <time>2011-10-02T09:19:20Z</time>
      </trkpt>
      <trkpt lat="48.40935" lon="2.59766">
        <ele>75.12</ele>
        <time>2011-10-02T09:19:21Z</time>
      </trkpt>
      <trkpt lat="48.40935" lon="2.5976">
        <ele>75.12</ele>
        <time>2011-10-02T09:19:22Z</time>
      </trkpt>
      <trkpt lat="48.40936" lon="2.59754">
        <ele>75.6</ele>
        <time>2011-10-02T09:19:23Z</time>
      </trkpt>
      <trkpt lat="48.40939" lon="2.59722">
        <ele>75.6</ele>
        <time>2011-10-02T09:19:28Z</time>
      </trkpt>
      <trkpt lat="48.40951" lon="2.59633">
        <ele>74.16</ele>
        <time>2011-10-02T09:19:42Z</time>
      </trkpt>
      <trkpt lat="48.40956" lon="2.59597">
        <ele>73.2</ele>
        <time>2011-10-02T09:19:47Z</time>
      </trkpt>
      <trkpt lat="48.40958" lon="2.59583">
        <ele>73.2</ele>
        <time>2011-10-02T09:19:49Z</time>
      </trkpt>
      <trkpt lat="48.4096" lon="2.5957">
        <ele>72.72</ele>
        <time>2011-10-02T09:19:51Z</time>
      </trkpt>
      <trkpt lat="48.40966" lon="2.5946">
        <ele>72.72</ele>
        <time>2011-10-02T09:20:06Z</time>
      </trkpt>
      <trkpt lat="48.40975" lon="2.59369">
        <ele>74.16</ele>
        <time>2011-10-02T09:20:21Z</time>
      </trkpt>
      <trkpt lat="48.40982" lon="2.59287">
        <ele>73.68</ele>
        <time>2011-10-02T09:20:36Z</time>
      </trkpt>
      <trkpt lat="48.40987" lon="2.59213">
        <ele>73.2</ele>
        <time>2011-10-02T09:20:51Z</time>
      </trkpt>
      <trkpt lat="48.40974" lon="2.59184">
        <ele>74.16</ele>
        <time>2011-10-02T09:21:03Z</time>
      </trkpt>
      <trkpt lat="48.40945" lon="2.59199">
        <ele>75.6</ele>
        <time>2011-10-02T09:21:15Z</time>
      </trkpt>
      <trkpt lat="48.40914" lon="2.59205">
        <ele>77.04</ele>
        <time>2011-10-02T09:21:28Z</time>
      </trkpt>
      <trkpt lat="48.40893" lon="2.59225">
        <ele>78.48</ele>
        <time>2011-10-02T09:21:40Z</time>
      </trkpt>
      <trkpt lat="48.40868" lon="2.59239">
        <ele>80.89</ele>
        <time>2011-10-02T09:21:54Z</time>
      </trkpt>
      <trkpt lat="48.40846" lon="2.59253">
        <ele>83.29</ele>
        <time>2011-10-02T09:22:08Z</time>
      </trkpt>
      <trkpt lat="48.40823" lon="2.59262">
        <ele>84.73</ele>
        <time>2011-10-02T09:22:23Z</time>
      </trkpt>
      <trkpt lat="48.40806" lon="2.59277">
        <ele>87.62</ele>
        <time>2011-10-02T09:22:37Z</time>
      </trkpt>
      <trkpt lat="48.40794" lon="2.59283">
        <ele>89.06</ele>
        <time>2011-10-02T09:22:47Z</time>
      </trkpt>
      <trkpt lat="48.40793" lon="2.59282">
        <ele>89.54</ele>
        <time>2011-10-02T09:22:48Z</time>
      </trkpt>
      <trkpt lat="48.40778" lon="2.59285">
        <ele>91.46</ele>
        <time>2011-10-02T09:23:00Z</time>
      </trkpt>
      <trkpt lat="48.40754" lon="2.59285">
        <ele>93.87</ele>
        <time>2011-10-02T09:23:15Z</time>
      </trkpt>
      <trkpt lat="48.40736" lon="2.59269">
        <ele>95.79</ele>
        <time>2011-10-02T09:23:31Z</time>
      </trkpt>
      <trkpt lat="48.40734" lon="2.59264">
        <ele>98.19</ele>
        <time>2011-10-02T09:23:42Z</time>
      </trkpt>
      <trkpt lat="48.40733" lon="2.59261">
        <ele>96.75</ele>
        <time>2011-10-02T09:23:45Z</time>
      </trkpt>
      <trkpt lat="48.40733" lon="2.59261">
        <ele>96.75</ele>
        <time>2011-10-02T09:24:06Z</time>
      </trkpt>
      <trkpt lat="48.40725" lon="2.59242">
        <ele>98.19</ele>
        <time>2011-10-02T09:24:24Z</time>
      </trkpt>
      <trkpt lat="48.40725" lon="2.59226">
        <ele>100.6</ele>
        <time>2011-10-02T09:24:39Z</time>
      </trkpt>
      <trkpt lat="48.40726" lon="2.59214">
        <ele>102.04</ele>
        <time>2011-10-02T09:24:54Z</time>
      </trkpt>
      <trkpt lat="48.40727" lon="2.59209">
        <ele>102.52</ele>
        <time>2011-10-02T09:24:58Z</time>
      </trkpt>
      <trkpt lat="48.40727" lon="2.59207">
        <ele>102.52</ele>
        <time>2011-10-02T09:24:59Z</time>
      </trkpt>
      <trkpt lat="48.40727" lon="2.59204">
        <ele>102.52</ele>
        <time>2011-10-02T09:25:00Z</time>
      </trkpt>
      <trkpt lat="48.40727" lon="2.59201">
        <ele>103</ele>
        <time>2011-10-02T09:25:01Z</time>
      </trkpt>
      <trkpt lat="48.40715" lon="2.5919">
        <ele>104.92</ele>
        <time>2011-10-02T09:25:15Z</time>
      </trkpt>
      <trkpt lat="48.40714" lon="2.59191">
        <ele>105.4</ele>
        <time>2011-10-02T09:25:16Z</time>
      </trkpt>
      <trkpt lat="48.40713" lon="2.59193">
        <ele>105.88</ele>
        <time>2011-10-02T09:25:17Z</time>
      </trkpt>
      <trkpt lat="48.40712" lon="2.59194">
        <ele>105.88</ele>
        <time>2011-10-02T09:25:18Z</time>
      </trkpt>
      <trkpt lat="48.4071" lon="2.59195">
        <ele>105.88</ele>
        <time>2011-10-02T09:25:19Z</time>
      </trkpt>
      <trkpt lat="48.40696" lon="2.59211">
        <ele>108.29</ele>
        <time>2011-10-02T09:25:32Z</time>
      </trkpt>
      <trkpt lat="48.40678" lon="2.59228">
        <ele>110.69</ele>
        <time>2011-10-02T09:25:48Z</time>
      </trkpt>
      <trkpt lat="48.40677" lon="2.59228">
        <ele>110.69</ele>
        <time>2011-10-02T09:25:49Z</time>
      </trkpt>
      <trkpt lat="48.40675" lon="2.59228">
        <ele>110.69</ele>
        <time>2011-10-02T09:25:50Z</time>
      </trkpt>
      <trkpt lat="48.40674" lon="2.59228">
        <ele>111.17</ele>
        <time>2011-10-02T09:25:51Z</time>
      </trkpt>
      <trkpt lat="48.40663" lon="2.59214">
        <ele>112.61</ele>
        <time>2011-10-02T09:26:04Z</time>
      </trkpt>
      <trkpt lat="48.40662" lon="2.59211">
        <ele>112.13</ele>
        <time>2011-10-02T09:26:06Z</time>
      </trkpt>
      <trkpt lat="48.4066" lon="2.59208">
        <ele>112.13</ele>
        <time>2011-10-02T09:26:18Z</time>
      </trkpt>
      <trkpt lat="48.4066" lon="2.59208">
        <ele>112.61</ele>
        <time>2011-10-02T09:26:50Z</time>
      </trkpt>
      <trkpt lat="48.4066" lon="2.59209">
        <ele>112.61</ele>
        <time>2011-10-02T09:27:22Z</time>
      </trkpt>
      <trkpt lat="48.4066" lon="2.59209">
        <ele>112.61</ele>
        <time>2011-10-02T09:28:00Z</time>
      </trkpt>
      <trkpt lat="48.4066" lon="2.5921">
        <ele>113.09</ele>
        <time>2011-10-02T09:28:38Z</time>
      </trkpt>
      <trkpt lat="48.4066" lon="2.59209">
        <ele>112.61</ele>
        <time>2011-10-02T09:29:11Z</time>
      </trkpt>
      <trkpt lat="48.4066" lon="2.59209">
        <ele>113.09</ele>
        <time>2011-10-02T09:29:45Z</time>
      </trkpt>
      <trkpt lat="48.40656" lon="2.59206">
        <ele>113.09</ele>
        <time>2011-10-02T09:29:51Z</time>
      </trkpt>
      <trkpt lat="48.40655" lon="2.59205">
        <ele>113.57</ele>
        <time>2011-10-02T09:29:52Z</time>
      </trkpt>
      <trkpt lat="48.40653" lon="2.59204">
        <ele>112.61</ele>
        <time>2011-10-02T09:29:53Z</time>
      </trkpt>
      <trkpt lat="48.40642" lon="2.592">
        <ele>111.17</ele>
        <time>2011-10-02T09:29:57Z</time>
      </trkpt>
      <trkpt lat="48.40629" lon="2.59196">
        <ele>108.29</ele>
        <time>2011-10-02T09:30:01Z</time>
      </trkpt>
      <trkpt lat="48.40619" lon="2.59157">
        <ele>103.96</ele>
        <time>2011-10-02T09:30:05Z</time>
      </trkpt>
      <trkpt lat="48.4062" lon="2.59116">
        <ele>100.11</ele>
        <time>2011-10-02T09:30:08Z</time>
      </trkpt>
      <trkpt lat="48.40623" lon="2.59103">
        <ele>100.11</ele>
        <time>2011-10-02T09:30:09Z</time>
      </trkpt>
      <trkpt lat="48.40624" lon="2.59064">
        <ele>97.71</ele>
        <time>2011-10-02T09:30:12Z</time>
      </trkpt>
      <trkpt lat="48.40622" lon="2.59052">
        <ele>96.75</ele>
        <time>2011-10-02T09:30:13Z</time>
      </trkpt>
      <trkpt lat="48.40619" lon="2.59039">
        <ele>95.31</ele>
        <time>2011-10-02T09:30:14Z</time>
      </trkpt>
      <trkpt lat="48.40614" lon="2.59028">
        <ele>94.35</ele>
        <time>2011-10-02T09:30:15Z</time>
      </trkpt>
      <trkpt lat="48.40608" lon="2.59019">
        <ele>93.39</ele>
        <time>2011-10-02T09:30:16Z</time>
      </trkpt>
      <trkpt lat="48.40602" lon="2.59012">
        <ele>91.94</ele>
        <time>2011-10-02T09:30:17Z</time>
      </trkpt>
      <trkpt lat="48.40596" lon="2.59009">
        <ele>90.5</ele>
        <time>2011-10-02T09:30:18Z</time>
      </trkpt>
      <trkpt lat="48.40588" lon="2.59008">
        <ele>89.06</ele>
        <time>2011-10-02T09:30:19Z</time>
      </trkpt>
      <trkpt lat="48.4058" lon="2.59009">
        <ele>87.62</ele>
        <time>2011-10-02T09:30:20Z</time>
      </trkpt>
      <trkpt lat="48.40571" lon="2.5901">
        <ele>87.62</ele>
        <time>2011-10-02T09:30:21Z</time>
      </trkpt>
      <trkpt lat="48.40563" lon="2.59011">
        <ele>87.62</ele>
        <time>2011-10-02T09:30:22Z</time>
      </trkpt>
      <trkpt lat="48.40557" lon="2.59009">
        <ele>87.62</ele>
        <time>2011-10-02T09:30:23Z</time>
      </trkpt>
      <trkpt lat="48.40551" lon="2.59005">
        <ele>86.18</ele>
        <time>2011-10-02T09:30:24Z</time>
      </trkpt>
      <trkpt lat="48.40546" lon="2.58998">
        <ele>85.69</ele>
        <time>2011-10-02T09:30:25Z</time>
      </trkpt>
      <trkpt lat="48.40542" lon="2.5899">
        <ele>85.21</ele>
        <time>2011-10-02T09:30:26Z</time>
      </trkpt>
      <trkpt lat="48.40538" lon="2.5898">
        <ele>84.73</ele>
        <time>2011-10-02T09:30:27Z</time>
      </trkpt>
      <trkpt lat="48.40528" lon="2.58963">
        <ele>83.77</ele>
        <time>2011-10-02T09:30:29Z</time>
      </trkpt>
      <trkpt lat="48.40522" lon="2.58956">
        <ele>82.81</ele>
        <time>2011-10-02T09:30:30Z</time>
      </trkpt>
      <trkpt lat="48.40515" lon="2.5895">
        <ele>82.81</ele>
        <time>2011-10-02T09:30:31Z</time>
      </trkpt>
      <trkpt lat="48.40493" lon="2.58937">
        <ele>82.33</ele>
        <time>2011-10-02T09:30:34Z</time>
      </trkpt>
      <trkpt lat="48.40482" lon="2.58943">
        <ele>82.33</ele>
        <time>2011-10-02T09:30:39Z</time>
      </trkpt>
      <trkpt lat="48.4048" lon="2.58955">
        <ele>82.33</ele>
        <time>2011-10-02T09:30:46Z</time>
      </trkpt>
      <trkpt lat="48.40482" lon="2.5899">
        <ele>82.33</ele>
        <time>2011-10-02T09:30:59Z</time>
      </trkpt>
      <trkpt lat="48.4048" lon="2.59027">
        <ele>82.81</ele>
        <time>2011-10-02T09:31:13Z</time>
      </trkpt>
      <trkpt lat="48.4048" lon="2.5904">
        <ele>82.81</ele>
        <time>2011-10-02T09:31:18Z</time>
      </trkpt>
      <trkpt lat="48.40477" lon="2.5906">
        <ele>83.77</ele>
        <time>2011-10-02T09:31:24Z</time>
      </trkpt>
      <trkpt lat="48.40475" lon="2.59081">
        <ele>83.77</ele>
        <time>2011-10-02T09:31:30Z</time>
      </trkpt>
      <trkpt lat="48.40474" lon="2.59096">
        <ele>83.77</ele>
        <time>2011-10-02T09:31:34Z</time>
      </trkpt>
      <trkpt lat="48.40474" lon="2.59148">
        <ele>85.21</ele>
        <time>2011-10-02T09:31:49Z</time>
      </trkpt>
      <trkpt lat="48.4048" lon="2.5919">
        <ele>86.66</ele>
        <time>2011-10-02T09:32:03Z</time>
      </trkpt>
      <trkpt lat="48.40484" lon="2.59228">
        <ele>88.1</ele>
        <time>2011-10-02T09:32:16Z</time>
      </trkpt>
      <trkpt lat="48.40488" lon="2.5923">
        <ele>88.58</ele>
        <time>2011-10-02T09:32:23Z</time>
      </trkpt>
      <trkpt lat="48.40485" lon="2.59227">
        <ele>88.58</ele>
        <time>2011-10-02T09:32:25Z</time>
      </trkpt>
      <trkpt lat="48.40457" lon="2.59202">
        <ele>90.02</ele>
        <time>2011-10-02T09:32:39Z</time>
      </trkpt>
      <trkpt lat="48.40456" lon="2.59201">
        <ele>90.02</ele>
        <time>2011-10-02T09:32:40Z</time>
      </trkpt>
      <trkpt lat="48.40443" lon="2.59186">
        <ele>91.94</ele>
        <time>2011-10-02T09:32:53Z</time>
      </trkpt>
      <trkpt lat="48.40422" lon="2.59174">
        <ele>92.9</ele>
        <time>2011-10-02T09:33:06Z</time>
      </trkpt>
      <trkpt lat="48.40383" lon="2.59157">
        <ele>93.87</ele>
        <time>2011-10-02T09:33:21Z</time>
      </trkpt>
      <trkpt lat="48.40361" lon="2.59173">
        <ele>96.75</ele>
        <time>2011-10-02T09:33:33Z</time>
      </trkpt>
      <trkpt lat="48.40354" lon="2.59181">
        <ele>97.23</ele>
        <time>2011-10-02T09:33:39Z</time>
      </trkpt>
      <trkpt lat="48.40338" lon="2.59191">
        <ele>96.75</ele>
        <time>2011-10-02T09:33:54Z</time>
      </trkpt>
      <trkpt lat="48.40336" lon="2.59192">
        <ele>96.27</ele>
        <time>2011-10-02T09:33:56Z</time>
      </trkpt>
      <trkpt lat="48.4033" lon="2.59193">
        <ele>94.83</ele>
        <time>2011-10-02T09:34:00Z</time>
      </trkpt>
      <trkpt lat="48.40323" lon="2.59207">
        <ele>93.87</ele>
        <time>2011-10-02T09:34:14Z</time>
      </trkpt>
      <trkpt lat="48.40323" lon="2.59211">
        <ele>93.87</ele>
        <time>2011-10-02T09:34:35Z</time>
      </trkpt>
      <trkpt lat="48.40317" lon="2.59237">
        <ele>90.5</ele>
        <time>2011-10-02T09:34:46Z</time>
      </trkpt>
      <trkpt lat="48.40312" lon="2.59251">
        <ele>87.62</ele>
        <time>2011-10-02T09:34:50Z</time>
      </trkpt>
      <trkpt lat="48.40289" lon="2.59293">
        <ele>88.58</ele>
        <time>2011-10-02T09:35:01Z</time>
      </trkpt>
      <trkpt lat="48.40287" lon="2.59295">
        <ele>88.58</ele>
        <time>2011-10-02T09:35:16Z</time>
      </trkpt>
      <trkpt lat="48.40282" lon="2.593">
        <ele>89.06</ele>
        <time>2011-10-02T09:35:32Z</time>
      </trkpt>
      <trkpt lat="48.40284" lon="2.59344">
        <ele>90.5</ele>
        <time>2011-10-02T09:35:47Z</time>
      </trkpt>
      <trkpt lat="48.40292" lon="2.5939">
        <ele>92.42</ele>
        <time>2011-10-02T09:36:02Z</time>
      </trkpt>
      <trkpt lat="48.40293" lon="2.59421">
        <ele>94.35</ele>
        <time>2011-10-02T09:36:16Z</time>
      </trkpt>
      <trkpt lat="48.40288" lon="2.59451">
        <ele>95.31</ele>
        <time>2011-10-02T09:36:30Z</time>
      </trkpt>
      <trkpt lat="48.40281" lon="2.59476">
        <ele>97.23</ele>
        <time>2011-10-02T09:36:44Z</time>
      </trkpt>
      <trkpt lat="48.40277" lon="2.59503">
        <ele>99.15</ele>
        <time>2011-10-02T09:36:58Z</time>
      </trkpt>
      <trkpt lat="48.40275" lon="2.59535">
        <ele>100.11</ele>
        <time>2011-10-02T09:37:14Z</time>
      </trkpt>
      <trkpt lat="48.40274" lon="2.59566">
        <ele>101.56</ele>
        <time>2011-10-02T09:37:30Z</time>
      </trkpt>
      <trkpt lat="48.40274" lon="2.596">
        <ele>103</ele>
        <time>2011-10-02T09:37:48Z</time>
      </trkpt>
      <trkpt lat="48.40276" lon="2.59635">
        <ele>103.96</ele>
        <time>2011-10-02T09:38:04Z</time>
      </trkpt>
      <trkpt lat="48.40277" lon="2.59666">
        <ele>105.88</ele>
        <time>2011-10-02T09:38:20Z</time>
      </trkpt>
      <trkpt lat="48.40275" lon="2.59689">
        <ele>107.32</ele>
        <time>2011-10-02T09:38:33Z</time>
      </trkpt>
      <trkpt lat="48.40274" lon="2.59696">
        <ele>107.81</ele>
        <time>2011-10-02T09:38:37Z</time>
      </trkpt>
      <trkpt lat="48.40271" lon="2.59706">
        <ele>108.29</ele>
        <time>2011-10-02T09:38:43Z</time>
      </trkpt>
      <trkpt lat="48.40265" lon="2.59737">
        <ele>109.25</ele>
        <time>2011-10-02T09:38:59Z</time>
      </trkpt>
      <trkpt lat="48.40262" lon="2.59749">
        <ele>109.73</ele>
        <time>2011-10-02T09:39:05Z</time>
      </trkpt>
      <trkpt lat="48.40257" lon="2.59758">
        <ele>110.69</ele>
        <time>2011-10-02T09:39:18Z</time>
      </trkpt>
      <trkpt lat="48.40254" lon="2.59757">
        <ele>111.17</ele>
        <time>2011-10-02T09:39:34Z</time>
      </trkpt>
      <trkpt lat="48.40253" lon="2.59759">
        <ele>111.17</ele>
        <time>2011-10-02T09:39:39Z</time>
      </trkpt>
      <trkpt lat="48.40242" lon="2.59766">
        <ele>112.13</ele>
        <time>2011-10-02T09:39:48Z</time>
      </trkpt>
      <trkpt lat="48.40226" lon="2.59778">
        <ele>114.05</ele>
        <time>2011-10-02T09:40:04Z</time>
      </trkpt>
      <trkpt lat="48.40217" lon="2.59786">
        <ele>115.5</ele>
        <time>2011-10-02T09:40:16Z</time>
      </trkpt>
      <trkpt lat="48.40206" lon="2.59796">
        <ele>116.94</ele>
        <time>2011-10-02T09:40:30Z</time>
      </trkpt>
      <trkpt lat="48.40194" lon="2.59802">
        <ele>118.38</ele>
        <time>2011-10-02T09:40:45Z</time>
      </trkpt>
      <trkpt lat="48.40188" lon="2.59807">
        <ele>120.3</ele>
        <time>2011-10-02T09:40:59Z</time>
      </trkpt>
      <trkpt lat="48.40175" lon="2.59815">
        <ele>122.22</ele>
        <time>2011-10-02T09:41:14Z</time>
      </trkpt>
      <trkpt lat="48.40163" lon="2.59823">
        <ele>122.71</ele>
        <time>2011-10-02T09:41:28Z</time>
      </trkpt>
      <trkpt lat="48.40159" lon="2.59825">
        <ele>122.71</ele>
        <time>2011-10-02T09:41:32Z</time>
      </trkpt>
      <trkpt lat="48.40139" lon="2.59832">
        <ele>123.19</ele>
        <time>2011-10-02T09:41:46Z</time>
      </trkpt>
      <trkpt lat="48.40113" lon="2.59827">
        <ele>123.19</ele>
        <time>2011-10-02T09:42:01Z</time>
      </trkpt>
      <trkpt lat="48.40078" lon="2.59816">
        <ele>123.19</ele>
        <time>2011-10-02T09:42:15Z</time>
      </trkpt>
      <trkpt lat="48.40042" lon="2.59817">
        <ele>121.26</ele>
        <time>2011-10-02T09:42:29Z</time>
      </trkpt>
      <trkpt lat="48.40034" lon="2.59773">
        <ele>120.78</ele>
        <time>2011-10-02T09:42:40Z</time>
      </trkpt>
      <trkpt lat="48.40028" lon="2.59716">
        <ele>120.78</ele>
        <time>2011-10-02T09:42:52Z</time>
      </trkpt>
      <trkpt lat="48.40017" lon="2.59654">
        <ele>120.78</ele>
        <time>2011-10-02T09:43:04Z</time>
      </trkpt>
      <trkpt lat="48.40014" lon="2.5959">
        <ele>120.78</ele>
        <time>2011-10-02T09:43:17Z</time>
      </trkpt>
      <trkpt lat="48.40022" lon="2.59523">
        <ele>121.26</ele>
        <time>2011-10-02T09:43:30Z</time>
      </trkpt>
      <trkpt lat="48.40041" lon="2.59459">
        <ele>120.78</ele>
        <time>2011-10-02T09:43:44Z</time>
      </trkpt>
      <trkpt lat="48.40044" lon="2.59446">
        <ele>121.26</ele>
        <time>2011-10-02T09:43:49Z</time>
      </trkpt>
      <trkpt lat="48.40059" lon="2.59431">
        <ele>121.74</ele>
        <time>2011-10-02T09:44:02Z</time>
      </trkpt>
      <trkpt lat="48.40083" lon="2.59417">
        <ele>122.22</ele>
        <time>2011-10-02T09:44:15Z</time>
      </trkpt>
      <trkpt lat="48.40123" lon="2.59385">
        <ele>121.26</ele>
        <time>2011-10-02T09:44:26Z</time>
      </trkpt>
      <trkpt lat="48.40126" lon="2.5938">
        <ele>121.26</ele>
        <time>2011-10-02T09:44:27Z</time>
      </trkpt>
      <trkpt lat="48.40124" lon="2.59321">
        <ele>121.74</ele>
        <time>2011-10-02T09:44:38Z</time>
      </trkpt>
      <trkpt lat="48.40128" lon="2.5926">
        <ele>121.74</ele>
        <time>2011-10-02T09:44:50Z</time>
      </trkpt>
      <trkpt lat="48.40133" lon="2.59247">
        <ele>121.74</ele>
        <time>2011-10-02T09:44:56Z</time>
      </trkpt>
      <trkpt lat="48.40131" lon="2.59243">
        <ele>121.74</ele>
        <time>2011-10-02T09:44:59Z</time>
      </trkpt>
      <trkpt lat="48.4013" lon="2.59243">
        <ele>121.74</ele>
        <time>2011-10-02T09:45:14Z</time>
      </trkpt>
      <trkpt lat="48.4013" lon="2.59243">
        <ele>118.38</ele>
        <time>2011-10-02T09:45:32Z</time>
      </trkpt>
      <trkpt lat="48.4013" lon="2.59243">
        <ele>122.22</ele>
        <time>2011-10-02T09:45:33Z</time>
      </trkpt>
      <trkpt lat="48.4013" lon="2.59243">
        <ele>122.22</ele>
        <time>2011-10-02T09:45:57Z</time>
      </trkpt>
      <trkpt lat="48.4013" lon="2.59243">
        <ele>122.22</ele>
        <time>2011-10-02T09:46:19Z</time>
      </trkpt>
      <trkpt lat="48.4013" lon="2.59243">
        <ele>122.22</ele>
        <time>2011-10-02T09:46:42Z</time>
      </trkpt>
      <trkpt lat="48.4013" lon="2.59243">
        <ele>122.22</ele>
        <time>2011-10-02T09:46:59Z</time>
      </trkpt>
      <trkpt lat="48.4013" lon="2.59243">
        <ele>122.22</ele>
        <time>2011-10-02T09:47:19Z</time>
      </trkpt>
      <trkpt lat="48.40129" lon="2.59243">
        <ele>122.22</ele>
        <time>2011-10-02T09:47:42Z</time>
      </trkpt>
      <trkpt lat="48.40128" lon="2.59242">
        <ele>122.22</ele>
        <time>2011-10-02T09:47:56Z</time>
      </trkpt>
      <trkpt lat="48.40129" lon="2.59242">
        <ele>121.74</ele>
        <time>2011-10-02T09:48:14Z</time>
      </trkpt>
      <trkpt lat="48.40129" lon="2.59242">
        <ele>121.74</ele>
        <time>2011-10-02T09:48:41Z</time>
      </trkpt>
      <trkpt lat="48.40128" lon="2.59243">
        <ele>121.74</ele>
        <time>2011-10-02T09:49:13Z</time>
      </trkpt>
      <trkpt lat="48.40128" lon="2.59242">
        <ele>122.22</ele>
        <time>2011-10-02T09:49:37Z</time>
      </trkpt>
      <trkpt lat="48.40129" lon="2.59243">
        <ele>121.74</ele>
        <time>2011-10-02T09:50:07Z</time>
      </trkpt>
      <trkpt lat="48.40129" lon="2.59243">
        <ele>122.22</ele>
        <time>2011-10-02T09:50:31Z</time>
      </trkpt>
      <trkpt lat="48.40127" lon="2.59243">
        <ele>122.22</ele>
        <time>2011-10-02T09:50:56Z</time>
      </trkpt>
      <trkpt lat="48.40127" lon="2.59242">
        <ele>122.22</ele>
        <time>2011-10-02T09:51:26Z</time>
      </trkpt>
      <trkpt lat="48.40127" lon="2.59242">
        <ele>122.22</ele>
        <time>2011-10-02T09:51:54Z</time>
      </trkpt>
      <trkpt lat="48.40126" lon="2.59242">
        <ele>122.22</ele>
        <time>2011-10-02T09:52:28Z</time>
      </trkpt>
      <trkpt lat="48.40126" lon="2.59242">
        <ele>122.22</ele>
        <time>2011-10-02T09:53:00Z</time>
      </trkpt>
      <trkpt lat="48.40126" lon="2.59242">
        <ele>122.22</ele>
        <time>2011-10-02T09:53:24Z</time>
      </trkpt>
      <trkpt lat="48.40126" lon="2.59242">
        <ele>122.22</ele>
        <time>2011-10-02T09:53:52Z</time>
      </trkpt>
      <trkpt lat="48.40127" lon="2.59242">
        <ele>122.22</ele>
        <time>2011-10-02T09:54:22Z</time>
      </trkpt>
      <trkpt lat="48.40127" lon="2.59242">
        <ele>122.22</ele>
        <time>2011-10-02T09:54:41Z</time>
      </trkpt>
      <trkpt lat="48.40128" lon="2.59241">
        <ele>121.74</ele>
        <time>2011-10-02T09:55:13Z</time>
      </trkpt>
      <trkpt lat="48.40128" lon="2.59241">
        <ele>122.22</ele>
        <time>2011-10-02T09:55:41Z</time>
      </trkpt>
      <trkpt lat="48.40127" lon="2.59241">
        <ele>121.74</ele>
        <time>2011-10-02T09:56:04Z</time>
      </trkpt>
      <trkpt lat="48.40127" lon="2.59239">
        <ele>121.74</ele>
        <time>2011-10-02T09:56:28Z</time>
      </trkpt>
      <trkpt lat="48.40127" lon="2.59239">
        <ele>122.22</ele>
        <time>2011-10-02T09:56:52Z</time>
      </trkpt>
      <trkpt lat="48.40126" lon="2.5924">
        <ele>121.74</ele>
        <time>2011-10-02T09:57:21Z</time>
      </trkpt>
      <trkpt lat="48.40126" lon="2.59239">
        <ele>121.74</ele>
        <time>2011-10-02T09:57:54Z</time>
      </trkpt>
      <trkpt lat="48.40126" lon="2.59238">
        <ele>121.74</ele>
        <time>2011-10-02T09:58:28Z</time>
      </trkpt>
      <trkpt lat="48.40126" lon="2.59238">
        <ele>121.74</ele>
        <time>2011-10-02T09:58:56Z</time>
      </trkpt>
      <trkpt lat="48.40127" lon="2.59239">
        <ele>121.74</ele>
        <time>2011-10-02T09:59:32Z</time>
      </trkpt>
      <trkpt lat="48.40127" lon="2.59237">
        <ele>121.26</ele>
        <time>2011-10-02T09:59:51Z</time>
      </trkpt>
      <trkpt lat="48.40127" lon="2.59237">
        <ele>121.74</ele>
        <time>2011-10-02T10:00:19Z</time>
      </trkpt>
      <trkpt lat="48.40127" lon="2.59238">
        <ele>121.26</ele>
        <time>2011-10-02T10:00:46Z</time>
      </trkpt>
      <trkpt lat="48.40127" lon="2.59237">
        <ele>121.74</ele>
        <time>2011-10-02T10:01:15Z</time>
      </trkpt>
      <trkpt lat="48.40127" lon="2.59237">
        <ele>121.26</ele>
        <time>2011-10-02T10:01:43Z</time>
      </trkpt>
      <trkpt lat="48.40126" lon="2.59239">
        <ele>118.38</ele>
        <time>2011-10-02T10:02:03Z</time>
      </trkpt>
      <trkpt lat="48.40126" lon="2.59239">
        <ele>124.63</ele>
        <time>2011-10-02T10:02:04Z</time>
      </trkpt>
      <trkpt lat="48.40126" lon="2.59239">
        <ele>121.26</ele>
        <time>2011-10-02T10:02:07Z</time>
      </trkpt>
      <trkpt lat="48.40126" lon="2.59239">
        <ele>123.67</ele>
        <time>2011-10-02T10:02:25Z</time>
      </trkpt>
      <trkpt lat="48.40126" lon="2.59239">
        <ele>121.74</ele>
        <time>2011-10-02T10:02:27Z</time>
      </trkpt>
      <trkpt lat="48.40126" lon="2.59239">
        <ele>121.26</ele>
        <time>2011-10-02T10:02:52Z</time>
      </trkpt>
      <trkpt lat="48.40126" lon="2.59239">
        <ele>121.26</ele>
        <time>2011-10-02T10:03:18Z</time>
      </trkpt>
      <trkpt lat="48.40126" lon="2.5924">
        <ele>120.3</ele>
        <time>2011-10-02T10:03:44Z</time>
      </trkpt>
      <trkpt lat="48.40126" lon="2.5924">
        <ele>121.74</ele>
        <time>2011-10-02T10:04:14Z</time>
      </trkpt>
      <trkpt lat="48.40125" lon="2.5924">
        <ele>121.74</ele>
        <time>2011-10-02T10:04:48Z</time>
      </trkpt>
      <trkpt lat="48.40125" lon="2.5924">
        <ele>121.74</ele>
        <time>2011-10-02T10:05:22Z</time>
      </trkpt>
      <trkpt lat="48.40126" lon="2.59242">
        <ele>121.26</ele>
        <time>2011-10-02T10:05:59Z</time>
      </trkpt>
      <trkpt lat="48.40126" lon="2.59242">
        <ele>121.26</ele>
        <time>2011-10-02T10:06:31Z</time>
      </trkpt>
      <trkpt lat="48.40126" lon="2.59242">
        <ele>121.26</ele>
        <time>2011-10-02T10:07:00Z</time>
      </trkpt>
      <trkpt lat="48.40125" lon="2.5924">
        <ele>121.26</ele>
        <time>2011-10-02T10:07:31Z</time>
      </trkpt>
      <trkpt lat="48.40124" lon="2.59239">
        <ele>121.74</ele>
        <time>2011-10-02T10:08:04Z</time>
      </trkpt>
      <trkpt lat="48.40124" lon="2.59239">
        <ele>120.78</ele>
        <time>2011-10-02T10:08:32Z</time>
      </trkpt>
      <trkpt lat="48.40124" lon="2.59246">
        <ele>121.26</ele>
        <time>2011-10-02T10:08:49Z</time>
      </trkpt>
      <trkpt lat="48.40124" lon="2.59246">
        <ele>121.26</ele>
        <time>2011-10-02T10:09:09Z</time>
      </trkpt>
      <trkpt lat="48.40124" lon="2.5927">
        <ele>121.74</ele>
        <time>2011-10-02T10:09:23Z</time>
      </trkpt>
      <trkpt lat="48.40122" lon="2.5927">
        <ele>123.19</ele>
        <time>2011-10-02T10:09:37Z</time>
      </trkpt>
      <trkpt lat="48.40123" lon="2.5927">
        <ele>122.22</ele>
        <time>2011-10-02T10:09:39Z</time>
      </trkpt>
      <trkpt lat="48.40123" lon="2.59273">
        <ele>121.74</ele>
        <time>2011-10-02T10:09:51Z</time>
      </trkpt>
      <trkpt lat="48.40124" lon="2.59285">
        <ele>121.74</ele>
        <time>2011-10-02T10:09:56Z</time>
      </trkpt>
      <trkpt lat="48.4012" lon="2.59332">
        <ele>122.22</ele>
        <time>2011-10-02T10:10:14Z</time>
      </trkpt>
      <trkpt lat="48.40123" lon="2.59374">
        <ele>121.74</ele>
        <time>2011-10-02T10:10:26Z</time>
      </trkpt>
      <trkpt lat="48.40124" lon="2.59386">
        <ele>121.74</ele>
        <time>2011-10-02T10:10:30Z</time>
      </trkpt>
      <trkpt lat="48.40103" lon="2.59405">
        <ele>120.3</ele>
        <time>2011-10-02T10:10:44Z</time>
      </trkpt>
      <trkpt lat="48.4008" lon="2.5942">
        <ele>122.22</ele>
        <time>2011-10-02T10:10:58Z</time>
      </trkpt>
      <trkpt lat="48.40053" lon="2.59437">
        <ele>122.22</ele>
        <time>2011-10-02T10:11:12Z</time>
      </trkpt>
      <trkpt lat="48.40037" lon="2.59469">
        <ele>121.26</ele>
        <time>2011-10-02T10:11:25Z</time>
      </trkpt>
      <trkpt lat="48.40029" lon="2.595">
        <ele>121.74</ele>
        <time>2011-10-02T10:11:38Z</time>
      </trkpt>
      <trkpt lat="48.40024" lon="2.59512">
        <ele>121.26</ele>
        <time>2011-10-02T10:11:50Z</time>
      </trkpt>
      <trkpt lat="48.40024" lon="2.59512">
        <ele>121.26</ele>
        <time>2011-10-02T10:12:09Z</time>
      </trkpt>
      <trkpt lat="48.40024" lon="2.59512">
        <ele>121.74</ele>
        <time>2011-10-02T10:12:28Z</time>
      </trkpt>
      <trkpt lat="48.40024" lon="2.59512">
        <ele>121.74</ele>
        <time>2011-10-02T10:13:07Z</time>
      </trkpt>
      <trkpt lat="48.40024" lon="2.59512">
        <ele>121.74</ele>
        <time>2011-10-02T10:13:45Z</time>
      </trkpt>
      <trkpt lat="48.40024" lon="2.59512">
        <ele>121.74</ele>
        <time>2011-10-02T10:14:12Z</time>
      </trkpt>
      <trkpt lat="48.40024" lon="2.59512">
        <ele>121.74</ele>
        <time>2011-10-02T10:14:40Z</time>
      </trkpt>
      <trkpt lat="48.40024" lon="2.59512">
        <ele>121.26</ele>
        <time>2011-10-02T10:15:10Z</time>
      </trkpt>
      <trkpt lat="48.4002" lon="2.59538">
        <ele>121.26</ele>
        <time>2011-10-02T10:15:27Z</time>
      </trkpt>
      <trkpt lat="48.40013" lon="2.59599">
        <ele>122.22</ele>
        <time>2011-10-02T10:15:43Z</time>
      </trkpt>
      <trkpt lat="48.40015" lon="2.59657">
        <ele>121.74</ele>
        <time>2011-10-02T10:15:57Z</time>
      </trkpt>
      <trkpt lat="48.40025" lon="2.59709">
        <ele>122.71</ele>
        <time>2011-10-02T10:16:11Z</time>
      </trkpt>
      <trkpt lat="48.40034" lon="2.59746">
        <ele>122.22</ele>
        <time>2011-10-02T10:16:23Z</time>
      </trkpt>
      <trkpt lat="48.40041" lon="2.5979">
        <ele>121.74</ele>
        <time>2011-10-02T10:16:35Z</time>
      </trkpt>
      <trkpt lat="48.40054" lon="2.59834">
        <ele>122.71</ele>
        <time>2011-10-02T10:16:49Z</time>
      </trkpt>
      <trkpt lat="48.40055" lon="2.59837">
        <ele>122.71</ele>
        <time>2011-10-02T10:17:02Z</time>
      </trkpt>
      <trkpt lat="48.40055" lon="2.59837">
        <ele>122.22</ele>
        <time>2011-10-02T10:17:17Z</time>
      </trkpt>
      <trkpt lat="48.40055" lon="2.59845">
        <ele>122.71</ele>
        <time>2011-10-02T10:17:21Z</time>
      </trkpt>
      <trkpt lat="48.40058" lon="2.59893">
        <ele>122.22</ele>
        <time>2011-10-02T10:17:36Z</time>
      </trkpt>
      <trkpt lat="48.40051" lon="2.59945">
        <ele>122.22</ele>
        <time>2011-10-02T10:17:50Z</time>
      </trkpt>
      <trkpt lat="48.40028" lon="2.59988">
        <ele>122.22</ele>
        <time>2011-10-02T10:18:05Z</time>
      </trkpt>
      <trkpt lat="48.40011" lon="2.60041">
        <ele>122.22</ele>
        <time>2011-10-02T10:18:21Z</time>
      </trkpt>
      <trkpt lat="48.4001" lon="2.6009">
        <ele>122.22</ele>
        <time>2011-10-02T10:18:34Z</time>
      </trkpt>
      <trkpt lat="48.40005" lon="2.60138">
        <ele>122.71</ele>
        <time>2011-10-02T10:18:49Z</time>
      </trkpt>
      <trkpt lat="48.40008" lon="2.60191">
        <ele>120.78</ele>
        <time>2011-10-02T10:19:03Z</time>
      </trkpt>
      <trkpt lat="48.4001" lon="2.60192">
        <ele>120.78</ele>
        <time>2011-10-02T10:19:04Z</time>
      </trkpt>
      <trkpt lat="48.40011" lon="2.60193">
        <ele>122.22</ele>
        <time>2011-10-02T10:19:12Z</time>
      </trkpt>
      <trkpt lat="48.4001" lon="2.60194">
        <ele>120.78</ele>
        <time>2011-10-02T10:19:29Z</time>
      </trkpt>
      <trkpt lat="48.4001" lon="2.60194">
        <ele>125.11</ele>
        <time>2011-10-02T10:19:40Z</time>
      </trkpt>
      <trkpt lat="48.4001" lon="2.60194">
        <ele>121.74</ele>
        <time>2011-10-02T10:19:42Z</time>
      </trkpt>
      <trkpt lat="48.4001" lon="2.60194">
        <ele>121.74</ele>
        <time>2011-10-02T10:19:43Z</time>
      </trkpt>
      <trkpt lat="48.40007" lon="2.60229">
        <ele>119.34</ele>
        <time>2011-10-02T10:19:58Z</time>
      </trkpt>
      <trkpt lat="48.40007" lon="2.60249">
        <ele>119.82</ele>
        <time>2011-10-02T10:20:05Z</time>
      </trkpt>
      <trkpt lat="48.40005" lon="2.60249">
        <ele>119.34</ele>
        <time>2011-10-02T10:20:07Z</time>
      </trkpt>
      <trkpt lat="48.40014" lon="2.60295">
        <ele>117.42</ele>
        <time>2011-10-02T10:20:19Z</time>
      </trkpt>
      <trkpt lat="48.4" lon="2.60362">
        <ele>115.01</ele>
        <time>2011-10-02T10:20:33Z</time>
      </trkpt>
      <trkpt lat="48.39993" lon="2.60399">
        <ele>114.53</ele>
        <time>2011-10-02T10:20:46Z</time>
      </trkpt>
      <trkpt lat="48.39978" lon="2.60457">
        <ele>113.09</ele>
        <time>2011-10-02T10:21:02Z</time>
      </trkpt>
      <trkpt lat="48.39971" lon="2.60484">
        <ele>112.61</ele>
        <time>2011-10-02T10:21:16Z</time>
      </trkpt>
      <trkpt lat="48.39962" lon="2.60521">
        <ele>112.61</ele>
        <time>2011-10-02T10:21:29Z</time>
      </trkpt>
      <trkpt lat="48.39954" lon="2.60555">
        <ele>113.57</ele>
        <time>2011-10-02T10:21:41Z</time>
      </trkpt>
      <trkpt lat="48.39946" lon="2.60592">
        <ele>114.53</ele>
        <time>2011-10-02T10:21:54Z</time>
      </trkpt>
      <trkpt lat="48.39937" lon="2.60631">
        <ele>115.5</ele>
        <time>2011-10-02T10:22:08Z</time>
      </trkpt>
      <trkpt lat="48.39925" lon="2.60676">
        <ele>116.94</ele>
        <time>2011-10-02T10:22:24Z</time>
      </trkpt>
      <trkpt lat="48.39913" lon="2.60712">
        <ele>118.86</ele>
        <time>2011-10-02T10:22:37Z</time>
      </trkpt>
      <trkpt lat="48.39904" lon="2.60743">
        <ele>120.78</ele>
        <time>2011-10-02T10:22:50Z</time>
      </trkpt>
      <trkpt lat="48.39899" lon="2.60775">
        <ele>121.74</ele>
        <time>2011-10-02T10:23:03Z</time>
      </trkpt>
      <trkpt lat="48.39891" lon="2.60804">
        <ele>123.67</ele>
        <time>2011-10-02T10:23:16Z</time>
      </trkpt>
      <trkpt lat="48.39883" lon="2.60829">
        <ele>124.15</ele>
        <time>2011-10-02T10:23:28Z</time>
      </trkpt>
      <trkpt lat="48.39879" lon="2.60849">
        <ele>125.11</ele>
        <time>2011-10-02T10:23:38Z</time>
      </trkpt>
      <trkpt lat="48.39874" lon="2.60874">
        <ele>125.59</ele>
        <time>2011-10-02T10:23:53Z</time>
      </trkpt>
      <trkpt lat="48.39867" lon="2.60909">
        <ele>125.59</ele>
        <time>2011-10-02T10:24:09Z</time>
      </trkpt>
      <trkpt lat="48.39857" lon="2.60944">
        <ele>126.07</ele>
        <time>2011-10-02T10:24:22Z</time>
      </trkpt>
      <trkpt lat="48.39854" lon="2.60958">
        <ele>126.55</ele>
        <time>2011-10-02T10:24:27Z</time>
      </trkpt>
      <trkpt lat="48.3984" lon="2.61008">
        <ele>126.55</ele>
        <time>2011-10-02T10:24:42Z</time>
      </trkpt>
      <trkpt lat="48.39823" lon="2.61072">
        <ele>126.55</ele>
        <time>2011-10-02T10:24:58Z</time>
      </trkpt>
      <trkpt lat="48.39804" lon="2.61143">
        <ele>127.03</ele>
        <time>2011-10-02T10:25:15Z</time>
      </trkpt>
      <trkpt lat="48.39785" lon="2.61208">
        <ele>127.51</ele>
        <time>2011-10-02T10:25:30Z</time>
      </trkpt>
      <trkpt lat="48.39769" lon="2.61269">
        <ele>127.51</ele>
        <time>2011-10-02T10:25:43Z</time>
      </trkpt>
      <trkpt lat="48.39752" lon="2.61342">
        <ele>127.51</ele>
        <time>2011-10-02T10:26:00Z</time>
      </trkpt>
      <trkpt lat="48.39737" lon="2.61395">
        <ele>127.51</ele>
        <time>2011-10-02T10:26:13Z</time>
      </trkpt>
      <trkpt lat="48.39737" lon="2.61438">
        <ele>127.51</ele>
        <time>2011-10-02T10:26:26Z</time>
      </trkpt>
      <trkpt lat="48.39744" lon="2.61498">
        <ele>127.51</ele>
        <time>2011-10-02T10:26:41Z</time>
      </trkpt>
      <trkpt lat="48.3975" lon="2.61559">
        <ele>127.99</ele>
        <time>2011-10-02T10:26:57Z</time>
      </trkpt>
      <trkpt lat="48.39754" lon="2.61611">
        <ele>127.99</ele>
        <time>2011-10-02T10:27:10Z</time>
      </trkpt>
      <trkpt lat="48.39761" lon="2.61671">
        <ele>127.03</ele>
        <time>2011-10-02T10:27:24Z</time>
      </trkpt>
      <trkpt lat="48.39765" lon="2.61721">
        <ele>127.99</ele>
        <time>2011-10-02T10:27:36Z</time>
      </trkpt>
      <trkpt lat="48.39772" lon="2.6178">
        <ele>127.99</ele>
        <time>2011-10-02T10:27:51Z</time>
      </trkpt>
      <trkpt lat="48.39776" lon="2.61829">
        <ele>127.99</ele>
        <time>2011-10-02T10:28:04Z</time>
      </trkpt>
      <trkpt lat="48.39783" lon="2.6188">
        <ele>128.47</ele>
        <time>2011-10-02T10:28:17Z</time>
      </trkpt>
      <trkpt lat="48.39787" lon="2.61928">
        <ele>128.47</ele>
        <time>2011-10-02T10:28:30Z</time>
      </trkpt>
      <trkpt lat="48.39793" lon="2.61962">
        <ele>128.47</ele>
        <time>2011-10-02T10:28:43Z</time>
      </trkpt>
      <trkpt lat="48.39795" lon="2.61962">
        <ele>128.47</ele>
        <time>2011-10-02T10:28:51Z</time>
      </trkpt>
      <trkpt lat="48.39813" lon="2.61969">
        <ele>128.47</ele>
        <time>2011-10-02T10:29:03Z</time>
      </trkpt>
      <trkpt lat="48.3984" lon="2.61988">
        <ele>127.99</ele>
        <time>2011-10-02T10:29:16Z</time>
      </trkpt>
      <trkpt lat="48.39875" lon="2.62014">
        <ele>127.51</ele>
        <time>2011-10-02T10:29:30Z</time>
      </trkpt>
      <trkpt lat="48.39907" lon="2.62039">
        <ele>127.03</ele>
        <time>2011-10-02T10:29:44Z</time>
      </trkpt>
      <trkpt lat="48.39936" lon="2.62069">
        <ele>127.99</ele>
        <time>2011-10-02T10:29:58Z</time>
      </trkpt>
      <trkpt lat="48.39968" lon="2.62092">
        <ele>128.95</ele>
        <time>2011-10-02T10:30:11Z</time>
      </trkpt>
      <trkpt lat="48.40001" lon="2.62122">
        <ele>128.95</ele>
        <time>2011-10-02T10:30:24Z</time>
      </trkpt>
      <trkpt lat="48.40024" lon="2.62132">
        <ele>129.92</ele>
        <time>2011-10-02T10:30:36Z</time>
      </trkpt>
      <trkpt lat="48.40048" lon="2.62142">
        <ele>129.43</ele>
        <time>2011-10-02T10:30:49Z</time>
      </trkpt>
      <trkpt lat="48.40081" lon="2.62169">
        <ele>127.51</ele>
        <time>2011-10-02T10:31:00Z</time>
      </trkpt>
      <trkpt lat="48.40108" lon="2.62192">
        <ele>127.51</ele>
        <time>2011-10-02T10:31:13Z</time>
      </trkpt>
      <trkpt lat="48.40131" lon="2.6221">
        <ele>128.47</ele>
        <time>2011-10-02T10:31:26Z</time>
      </trkpt>
      <trkpt lat="48.40159" lon="2.62235">
        <ele>129.43</ele>
        <time>2011-10-02T10:31:41Z</time>
      </trkpt>
      <trkpt lat="48.40184" lon="2.62255">
        <ele>129.43</ele>
        <time>2011-10-02T10:31:55Z</time>
      </trkpt>
      <trkpt lat="48.4021" lon="2.62272">
        <ele>129.92</ele>
        <time>2011-10-02T10:32:07Z</time>
      </trkpt>
      <trkpt lat="48.40235" lon="2.62292">
        <ele>129.92</ele>
        <time>2011-10-02T10:32:20Z</time>
      </trkpt>
      <trkpt lat="48.40272" lon="2.62319">
        <ele>129.43</ele>
        <time>2011-10-02T10:32:35Z</time>
      </trkpt>
      <trkpt lat="48.40311" lon="2.62347">
        <ele>129.43</ele>
        <time>2011-10-02T10:32:52Z</time>
      </trkpt>
      <trkpt lat="48.40343" lon="2.62374">
        <ele>129.43</ele>
        <time>2011-10-02T10:33:06Z</time>
      </trkpt>
      <trkpt lat="48.4038" lon="2.62402">
        <ele>129.43</ele>
        <time>2011-10-02T10:33:18Z</time>
      </trkpt>
      <trkpt lat="48.40415" lon="2.62429">
        <ele>128.95</ele>
        <time>2011-10-02T10:33:30Z</time>
      </trkpt>
      <trkpt lat="48.40456" lon="2.62461">
        <ele>128.47</ele>
        <time>2011-10-02T10:33:44Z</time>
      </trkpt>
      <trkpt lat="48.40488" lon="2.62492">
        <ele>126.07</ele>
        <time>2011-10-02T10:33:56Z</time>
      </trkpt>
      <trkpt lat="48.40503" lon="2.62519">
        <ele>122.22</ele>
        <time>2011-10-02T10:34:03Z</time>
      </trkpt>
      <trkpt lat="48.40515" lon="2.62529">
        <ele>118.38</ele>
        <time>2011-10-02T10:34:06Z</time>
      </trkpt>
      <trkpt lat="48.40525" lon="2.62535">
        <ele>115.01</ele>
        <time>2011-10-02T10:34:09Z</time>
      </trkpt>
      <trkpt lat="48.40542" lon="2.62541">
        <ele>114.53</ele>
        <time>2011-10-02T10:34:12Z</time>
      </trkpt>
      <trkpt lat="48.40546" lon="2.62538">
        <ele>115.01</ele>
        <time>2011-10-02T10:34:13Z</time>
      </trkpt>
      <trkpt lat="48.4055" lon="2.62538">
        <ele>114.53</ele>
        <time>2011-10-02T10:34:14Z</time>
      </trkpt>
      <trkpt lat="48.40555" lon="2.6254">
        <ele>114.53</ele>
        <time>2011-10-02T10:34:15Z</time>
      </trkpt>
      <trkpt lat="48.40559" lon="2.62542">
        <ele>114.05</ele>
        <time>2011-10-02T10:34:16Z</time>
      </trkpt>
      <trkpt lat="48.40578" lon="2.62558">
        <ele>112.61</ele>
        <time>2011-10-02T10:34:21Z</time>
      </trkpt>
      <trkpt lat="48.40583" lon="2.6256">
        <ele>112.61</ele>
        <time>2011-10-02T10:34:22Z</time>
      </trkpt>
      <trkpt lat="48.40588" lon="2.62561">
        <ele>112.13</ele>
        <time>2011-10-02T10:34:23Z</time>
      </trkpt>
      <trkpt lat="48.40622" lon="2.62572">
        <ele>109.25</ele>
        <time>2011-10-02T10:34:34Z</time>
      </trkpt>
      <trkpt lat="48.40641" lon="2.62591">
        <ele>106.36</ele>
        <time>2011-10-02T10:34:41Z</time>
      </trkpt>
      <trkpt lat="48.40663" lon="2.62614">
        <ele>105.4</ele>
        <time>2011-10-02T10:34:45Z</time>
      </trkpt>
      <trkpt lat="48.40668" lon="2.62618">
        <ele>105.4</ele>
        <time>2011-10-02T10:34:46Z</time>
      </trkpt>
      <trkpt lat="48.40672" lon="2.62623">
        <ele>105.4</ele>
        <time>2011-10-02T10:34:47Z</time>
      </trkpt>
      <trkpt lat="48.40697" lon="2.62668">
        <ele>104.44</ele>
        <time>2011-10-02T10:35:00Z</time>
      </trkpt>
      <trkpt lat="48.40708" lon="2.62695">
        <ele>104.44</ele>
        <time>2011-10-02T10:35:10Z</time>
      </trkpt>
      <trkpt lat="48.4071" lon="2.62708">
        <ele>104.44</ele>
        <time>2011-10-02T10:35:17Z</time>
      </trkpt>
      <trkpt lat="48.40718" lon="2.62712">
        <ele>105.4</ele>
        <time>2011-10-02T10:35:22Z</time>
      </trkpt>
      <trkpt lat="48.40718" lon="2.62714">
        <ele>104.92</ele>
        <time>2011-10-02T10:35:23Z</time>
      </trkpt>
      <trkpt lat="48.40719" lon="2.6272">
        <ele>105.4</ele>
        <time>2011-10-02T10:35:28Z</time>
      </trkpt>
      <trkpt lat="48.40718" lon="2.62721">
        <ele>105.4</ele>
        <time>2011-10-02T10:35:29Z</time>
      </trkpt>
      <trkpt lat="48.40719" lon="2.62723">
        <ele>105.4</ele>
        <time>2011-10-02T10:35:41Z</time>
      </trkpt>
      <trkpt lat="48.40727" lon="2.62734">
        <ele>106.36</ele>
        <time>2011-10-02T10:35:54Z</time>
      </trkpt>
      <trkpt lat="48.40736" lon="2.62743">
        <ele>106.84</ele>
        <time>2011-10-02T10:36:10Z</time>
      </trkpt>
      <trkpt lat="48.40736" lon="2.62744">
        <ele>107.32</ele>
        <time>2011-10-02T10:36:29Z</time>
      </trkpt>
      <trkpt lat="48.40733" lon="2.62737">
        <ele>107.32</ele>
        <time>2011-10-02T10:36:42Z</time>
      </trkpt>
      <trkpt lat="48.40728" lon="2.62731">
        <ele>106.36</ele>
        <time>2011-10-02T10:36:49Z</time>
      </trkpt>
      <trkpt lat="48.40727" lon="2.6273">
        <ele>106.84</ele>
        <time>2011-10-02T10:36:50Z</time>
      </trkpt>
      <trkpt lat="48.40727" lon="2.62729">
        <ele>105.88</ele>
        <time>2011-10-02T10:36:51Z</time>
      </trkpt>
      <trkpt lat="48.40722" lon="2.62717">
        <ele>105.88</ele>
        <time>2011-10-02T10:37:07Z</time>
      </trkpt>
      <trkpt lat="48.40718" lon="2.62709">
        <ele>105.4</ele>
        <time>2011-10-02T10:37:17Z</time>
      </trkpt>
      <trkpt lat="48.40717" lon="2.62708">
        <ele>105.4</ele>
        <time>2011-10-02T10:37:18Z</time>
      </trkpt>
      <trkpt lat="48.4071" lon="2.62697">
        <ele>104.92</ele>
        <time>2011-10-02T10:37:31Z</time>
      </trkpt>
      <trkpt lat="48.4071" lon="2.6269">
        <ele>104.92</ele>
        <time>2011-10-02T10:37:36Z</time>
      </trkpt>
      <trkpt lat="48.4071" lon="2.62684">
        <ele>104.44</ele>
        <time>2011-10-02T10:37:42Z</time>
      </trkpt>
      <trkpt lat="48.4071" lon="2.62681">
        <ele>104.44</ele>
        <time>2011-10-02T10:37:43Z</time>
      </trkpt>
      <trkpt lat="48.4071" lon="2.62678">
        <ele>104.44</ele>
        <time>2011-10-02T10:37:44Z</time>
      </trkpt>
      <trkpt lat="48.40709" lon="2.62675">
        <ele>104.44</ele>
        <time>2011-10-02T10:37:45Z</time>
      </trkpt>
      <trkpt lat="48.4071" lon="2.62672">
        <ele>104.44</ele>
        <time>2011-10-02T10:37:46Z</time>
      </trkpt>
      <trkpt lat="48.4071" lon="2.62669">
        <ele>104.44</ele>
        <time>2011-10-02T10:37:47Z</time>
      </trkpt>
      <trkpt lat="48.40713" lon="2.62652">
        <ele>104.44</ele>
        <time>2011-10-02T10:37:59Z</time>
      </trkpt>
      <trkpt lat="48.40703" lon="2.62662">
        <ele>103.96</ele>
        <time>2011-10-02T10:38:11Z</time>
      </trkpt>
      <trkpt lat="48.40703" lon="2.62662">
        <ele>104.44</ele>
        <time>2011-10-02T10:38:36Z</time>
      </trkpt>
      <trkpt lat="48.40703" lon="2.62662">
        <ele>104.44</ele>
        <time>2011-10-02T10:38:55Z</time>
      </trkpt>
      <trkpt lat="48.40703" lon="2.62662">
        <ele>104.44</ele>
        <time>2011-10-02T10:39:25Z</time>
      </trkpt>
      <trkpt lat="48.40707" lon="2.62656">
        <ele>104.44</ele>
        <time>2011-10-02T10:39:45Z</time>
      </trkpt>
      <trkpt lat="48.4071" lon="2.6264">
        <ele>104.44</ele>
        <time>2011-10-02T10:39:59Z</time>
      </trkpt>
      <trkpt lat="48.40713" lon="2.62634">
        <ele>104.44</ele>
        <time>2011-10-02T10:40:03Z</time>
      </trkpt>
      <trkpt lat="48.4071" lon="2.62619">
        <ele>104.44</ele>
        <time>2011-10-02T10:40:19Z</time>
      </trkpt>
      <trkpt lat="48.40712" lon="2.62609">
        <ele>104.44</ele>
        <time>2011-10-02T10:40:34Z</time>
      </trkpt>
      <trkpt lat="48.40713" lon="2.62607">
        <ele>104.44</ele>
        <time>2011-10-02T10:40:46Z</time>
      </trkpt>
      <trkpt lat="48.40714" lon="2.62614">
        <ele>104.92</ele>
        <time>2011-10-02T10:40:50Z</time>
      </trkpt>
      <trkpt lat="48.40713" lon="2.62616">
        <ele>104.44</ele>
        <time>2011-10-02T10:40:51Z</time>
      </trkpt>
      <trkpt lat="48.4071" lon="2.62652">
        <ele>104.44</ele>
        <time>2011-10-02T10:41:08Z</time>
      </trkpt>
      <trkpt lat="48.4071" lon="2.62682">
        <ele>104.44</ele>
        <time>2011-10-02T10:41:22Z</time>
      </trkpt>
      <trkpt lat="48.40706" lon="2.62705">
        <ele>105.4</ele>
        <time>2011-10-02T10:41:36Z</time>
      </trkpt>
      <trkpt lat="48.40708" lon="2.62708">
        <ele>105.88</ele>
        <time>2011-10-02T10:41:39Z</time>
      </trkpt>
      <trkpt lat="48.40709" lon="2.62709">
        <ele>105.4</ele>
        <time>2011-10-02T10:41:40Z</time>
      </trkpt>
      <trkpt lat="48.40711" lon="2.6271">
        <ele>105.88</ele>
        <time>2011-10-02T10:41:41Z</time>
      </trkpt>
      <trkpt lat="48.40712" lon="2.6271">
        <ele>105.88</ele>
        <time>2011-10-02T10:41:42Z</time>
      </trkpt>
      <trkpt lat="48.40714" lon="2.6271">
        <ele>105.88</ele>
        <time>2011-10-02T10:41:44Z</time>
      </trkpt>
      <trkpt lat="48.40721" lon="2.62724">
        <ele>106.36</ele>
        <time>2011-10-02T10:41:58Z</time>
      </trkpt>
      <trkpt lat="48.40723" lon="2.62726">
        <ele>106.36</ele>
        <time>2011-10-02T10:41:59Z</time>
      </trkpt>
      <trkpt lat="48.40724" lon="2.62728">
        <ele>106.36</ele>
        <time>2011-10-02T10:42:00Z</time>
      </trkpt>
      <trkpt lat="48.40732" lon="2.62739">
        <ele>107.32</ele>
        <time>2011-10-02T10:42:11Z</time>
      </trkpt>
      <trkpt lat="48.40739" lon="2.62757">
        <ele>108.29</ele>
        <time>2011-10-02T10:42:26Z</time>
      </trkpt>
      <trkpt lat="48.40746" lon="2.62771">
        <ele>109.25</ele>
        <time>2011-10-02T10:42:41Z</time>
      </trkpt>
      <trkpt lat="48.40757" lon="2.6278">
        <ele>110.69</ele>
        <time>2011-10-02T10:42:55Z</time>
      </trkpt>
      <trkpt lat="48.40762" lon="2.62783">
        <ele>111.65</ele>
        <time>2011-10-02T10:43:03Z</time>
      </trkpt>
      <trkpt lat="48.40762" lon="2.62783">
        <ele>111.17</ele>
        <time>2011-10-02T10:43:19Z</time>
      </trkpt>
      <trkpt lat="48.40763" lon="2.62783">
        <ele>111.65</ele>
        <time>2011-10-02T10:43:41Z</time>
      </trkpt>
      <trkpt lat="48.40777" lon="2.62785">
        <ele>112.13</ele>
        <time>2011-10-02T10:43:55Z</time>
      </trkpt>
      <trkpt lat="48.40786" lon="2.62791">
        <ele>113.57</ele>
        <time>2011-10-02T10:44:08Z</time>
      </trkpt>
      <trkpt lat="48.40792" lon="2.62804">
        <ele>115.01</ele>
        <time>2011-10-02T10:44:24Z</time>
      </trkpt>
      <trkpt lat="48.408" lon="2.62815">
        <ele>115.5</ele>
        <time>2011-10-02T10:44:37Z</time>
      </trkpt>
      <trkpt lat="48.40804" lon="2.62823">
        <ele>115.98</ele>
        <time>2011-10-02T10:44:52Z</time>
      </trkpt>
      <trkpt lat="48.40806" lon="2.62827">
        <ele>116.46</ele>
        <time>2011-10-02T10:45:03Z</time>
      </trkpt>
      <trkpt lat="48.40808" lon="2.62835">
        <ele>116.94</ele>
        <time>2011-10-02T10:45:17Z</time>
      </trkpt>
      <trkpt lat="48.40809" lon="2.62845">
        <ele>118.38</ele>
        <time>2011-10-02T10:45:32Z</time>
      </trkpt>
      <trkpt lat="48.40812" lon="2.62855">
        <ele>119.82</ele>
        <time>2011-10-02T10:45:45Z</time>
      </trkpt>
      <trkpt lat="48.40813" lon="2.62862">
        <ele>120.3</ele>
        <time>2011-10-02T10:45:58Z</time>
      </trkpt>
      <trkpt lat="48.40817" lon="2.62864">
        <ele>121.26</ele>
        <time>2011-10-02T10:46:11Z</time>
      </trkpt>
      <trkpt lat="48.40819" lon="2.62865">
        <ele>121.26</ele>
        <time>2011-10-02T10:46:26Z</time>
      </trkpt>
      <trkpt lat="48.40821" lon="2.62866">
        <ele>121.74</ele>
        <time>2011-10-02T10:46:31Z</time>
      </trkpt>
      <trkpt lat="48.40822" lon="2.62866">
        <ele>121.74</ele>
        <time>2011-10-02T10:46:38Z</time>
      </trkpt>
      <trkpt lat="48.40824" lon="2.62866">
        <ele>122.22</ele>
        <time>2011-10-02T10:46:39Z</time>
      </trkpt>
      <trkpt lat="48.40829" lon="2.62869">
        <ele>123.19</ele>
        <time>2011-10-02T10:46:52Z</time>
      </trkpt>
      <trkpt lat="48.40832" lon="2.6287">
        <ele>123.19</ele>
        <time>2011-10-02T10:47:08Z</time>
      </trkpt>
      <trkpt lat="48.40844" lon="2.62867">
        <ele>123.67</ele>
        <time>2011-10-02T10:47:22Z</time>
      </trkpt>
      <trkpt lat="48.40844" lon="2.62866">
        <ele>124.15</ele>
        <time>2011-10-02T10:47:34Z</time>
      </trkpt>
      <trkpt lat="48.40846" lon="2.62866">
        <ele>124.15</ele>
        <time>2011-10-02T10:47:48Z</time>
      </trkpt>
      <trkpt lat="48.40855" lon="2.6287">
        <ele>125.11</ele>
        <time>2011-10-02T10:48:03Z</time>
      </trkpt>
      <trkpt lat="48.40857" lon="2.62883">
        <ele>124.63</ele>
        <time>2011-10-02T10:48:16Z</time>
      </trkpt>
      <trkpt lat="48.40857" lon="2.62883">
        <ele>125.11</ele>
        <time>2011-10-02T10:48:38Z</time>
      </trkpt>
      <trkpt lat="48.40857" lon="2.62882">
        <ele>124.63</ele>
        <time>2011-10-02T10:49:03Z</time>
      </trkpt>
      <trkpt lat="48.40857" lon="2.62882">
        <ele>125.11</ele>
        <time>2011-10-02T10:49:36Z</time>
      </trkpt>
      <trkpt lat="48.4086" lon="2.62884">
        <ele>125.11</ele>
        <time>2011-10-02T10:50:00Z</time>
      </trkpt>
      <trkpt lat="48.40871" lon="2.62893">
        <ele>125.11</ele>
        <time>2011-10-02T10:50:16Z</time>
      </trkpt>
      <trkpt lat="48.40881" lon="2.62904">
        <ele>126.07</ele>
        <time>2011-10-02T10:50:30Z</time>
      </trkpt>
      <trkpt lat="48.40885" lon="2.62914">
        <ele>126.55</ele>
        <time>2011-10-02T10:50:45Z</time>
      </trkpt>
      <trkpt lat="48.40894" lon="2.62913">
        <ele>127.03</ele>
        <time>2011-10-02T10:50:57Z</time>
      </trkpt>
      <trkpt lat="48.40895" lon="2.62913">
        <ele>127.51</ele>
        <time>2011-10-02T10:50:58Z</time>
      </trkpt>
      <trkpt lat="48.40896" lon="2.62914">
        <ele>127.51</ele>
        <time>2011-10-02T10:50:59Z</time>
      </trkpt>
      <trkpt lat="48.40907" lon="2.62916">
        <ele>128.95</ele>
        <time>2011-10-02T10:51:13Z</time>
      </trkpt>
      <trkpt lat="48.40916" lon="2.62919">
        <ele>129.43</ele>
        <time>2011-10-02T10:51:27Z</time>
      </trkpt>
      <trkpt lat="48.40927" lon="2.62921">
        <ele>129.92</ele>
        <time>2011-10-02T10:51:41Z</time>
      </trkpt>
      <trkpt lat="48.40939" lon="2.62927">
        <ele>129.92</ele>
        <time>2011-10-02T10:51:56Z</time>
      </trkpt>
      <trkpt lat="48.40949" lon="2.6293">
        <ele>129.43</ele>
        <time>2011-10-02T10:52:11Z</time>
      </trkpt>
      <trkpt lat="48.40954" lon="2.62933">
        <ele>129.43</ele>
        <time>2011-10-02T10:52:16Z</time>
      </trkpt>
      <trkpt lat="48.40955" lon="2.62934">
        <ele>129.43</ele>
        <time>2011-10-02T10:52:17Z</time>
      </trkpt>
      <trkpt lat="48.40957" lon="2.62935">
        <ele>129.43</ele>
        <time>2011-10-02T10:52:18Z</time>
      </trkpt>
      <trkpt lat="48.40958" lon="2.62935">
        <ele>129.43</ele>
        <time>2011-10-02T10:52:19Z</time>
      </trkpt>
      <trkpt lat="48.4096" lon="2.62936">
        <ele>129.43</ele>
        <time>2011-10-02T10:52:20Z</time>
      </trkpt>
      <trkpt lat="48.40976" lon="2.62943">
        <ele>128.95</ele>
        <time>2011-10-02T10:52:33Z</time>
      </trkpt>
      <trkpt lat="48.40977" lon="2.62944">
        <ele>128.95</ele>
        <time>2011-10-02T10:52:34Z</time>
      </trkpt>
      <trkpt lat="48.40979" lon="2.62946">
        <ele>129.43</ele>
        <time>2011-10-02T10:52:35Z</time>
      </trkpt>
      <trkpt lat="48.4098" lon="2.62947">
        <ele>129.43</ele>
        <time>2011-10-02T10:52:36Z</time>
      </trkpt>
      <trkpt lat="48.40981" lon="2.62949">
        <ele>129.43</ele>
        <time>2011-10-02T10:52:37Z</time>
      </trkpt>
      <trkpt lat="48.40982" lon="2.6295">
        <ele>129.43</ele>
        <time>2011-10-02T10:52:38Z</time>
      </trkpt>
      <trkpt lat="48.40986" lon="2.62961">
        <ele>129.92</ele>
        <time>2011-10-02T10:52:44Z</time>
      </trkpt>
      <trkpt lat="48.40992" lon="2.62977">
        <ele>130.4</ele>
        <time>2011-10-02T10:52:53Z</time>
      </trkpt>
      <trkpt lat="48.41009" lon="2.63003">
        <ele>131.36</ele>
        <time>2011-10-02T10:53:07Z</time>
      </trkpt>
      <trkpt lat="48.41013" lon="2.63038">
        <ele>131.84</ele>
        <time>2011-10-02T10:53:23Z</time>
      </trkpt>
      <trkpt lat="48.41017" lon="2.6304">
        <ele>131.84</ele>
        <time>2011-10-02T10:53:31Z</time>
      </trkpt>
      <trkpt lat="48.41019" lon="2.63034">
        <ele>132.32</ele>
        <time>2011-10-02T10:53:35Z</time>
      </trkpt>
      <trkpt lat="48.41021" lon="2.63026">
        <ele>131.84</ele>
        <time>2011-10-02T10:53:39Z</time>
      </trkpt>
      <trkpt lat="48.41023" lon="2.63011">
        <ele>132.32</ele>
        <time>2011-10-02T10:53:50Z</time>
      </trkpt>
      <trkpt lat="48.41037" lon="2.63038">
        <ele>132.32</ele>
        <time>2011-10-02T10:54:08Z</time>
      </trkpt>
      <trkpt lat="48.41046" lon="2.63051">
        <ele>132.32</ele>
        <time>2011-10-02T10:54:16Z</time>
      </trkpt>
      <trkpt lat="48.41055" lon="2.63062">
        <ele>132.32</ele>
        <time>2011-10-02T10:54:22Z</time>
      </trkpt>
      <trkpt lat="48.41063" lon="2.63072">
        <ele>132.8</ele>
        <time>2011-10-02T10:54:26Z</time>
      </trkpt>
      <trkpt lat="48.4109" lon="2.63106">
        <ele>132.32</ele>
        <time>2011-10-02T10:54:43Z</time>
      </trkpt>
      <trkpt lat="48.41095" lon="2.63111">
        <ele>131.84</ele>
        <time>2011-10-02T10:54:46Z</time>
      </trkpt>
      <trkpt lat="48.411" lon="2.6312">
        <ele>131.84</ele>
        <time>2011-10-02T10:54:50Z</time>
      </trkpt>
      <trkpt lat="48.41116" lon="2.63145">
        <ele>132.32</ele>
        <time>2011-10-02T10:55:06Z</time>
      </trkpt>
      <trkpt lat="48.41119" lon="2.63144">
        <ele>132.8</ele>
        <time>2011-10-02T10:55:08Z</time>
      </trkpt>
      <trkpt lat="48.41122" lon="2.63145">
        <ele>132.8</ele>
        <time>2011-10-02T10:55:12Z</time>
      </trkpt>
      <trkpt lat="48.41122" lon="2.63152">
        <ele>132.32</ele>
        <time>2011-10-02T10:55:16Z</time>
      </trkpt>
      <trkpt lat="48.41128" lon="2.63182">
        <ele>132.32</ele>
        <time>2011-10-02T10:55:29Z</time>
      </trkpt>
      <trkpt lat="48.41131" lon="2.63188">
        <ele>132.32</ele>
        <time>2011-10-02T10:55:32Z</time>
      </trkpt>
      <trkpt lat="48.41147" lon="2.63217">
        <ele>132.32</ele>
        <time>2011-10-02T10:55:45Z</time>
      </trkpt>
      <trkpt lat="48.41176" lon="2.63243">
        <ele>131.84</ele>
        <time>2011-10-02T10:55:58Z</time>
      </trkpt>
      <trkpt lat="48.41182" lon="2.63236">
        <ele>131.84</ele>
        <time>2011-10-02T10:56:08Z</time>
      </trkpt>
      <trkpt lat="48.41194" lon="2.63246">
        <ele>131.84</ele>
        <time>2011-10-02T10:56:20Z</time>
      </trkpt>
      <trkpt lat="48.41196" lon="2.63255">
        <ele>132.32</ele>
        <time>2011-10-02T10:56:34Z</time>
      </trkpt>
      <trkpt lat="48.41196" lon="2.63255">
        <ele>132.32</ele>
        <time>2011-10-02T10:56:35Z</time>
      </trkpt>
      <trkpt lat="48.41192" lon="2.63259">
        <ele>131.84</ele>
        <time>2011-10-02T10:56:39Z</time>
      </trkpt>
      <trkpt lat="48.41183" lon="2.63259">
        <ele>131.84</ele>
        <time>2011-10-02T10:56:43Z</time>
      </trkpt>
      <trkpt lat="48.41164" lon="2.63259">
        <ele>132.32</ele>
        <time>2011-10-02T10:56:58Z</time>
      </trkpt>
      <trkpt lat="48.41159" lon="2.63259">
        <ele>132.32</ele>
        <time>2011-10-02T10:57:12Z</time>
      </trkpt>
      <trkpt lat="48.4116" lon="2.63259">
        <ele>131.84</ele>
        <time>2011-10-02T10:57:29Z</time>
      </trkpt>
      <trkpt lat="48.41163" lon="2.63259">
        <ele>132.32</ele>
        <time>2011-10-02T10:57:34Z</time>
      </trkpt>
      <trkpt lat="48.41185" lon="2.63253">
        <ele>131.84</ele>
        <time>2011-10-02T10:57:48Z</time>
      </trkpt>
      <trkpt lat="48.4121" lon="2.63247">
        <ele>131.84</ele>
        <time>2011-10-02T10:58:00Z</time>
      </trkpt>
      <trkpt lat="48.41213" lon="2.63247">
        <ele>131.36</ele>
        <time>2011-10-02T10:58:06Z</time>
      </trkpt>
      <trkpt lat="48.41225" lon="2.63245">
        <ele>131.36</ele>
        <time>2011-10-02T10:58:12Z</time>
      </trkpt>
      <trkpt lat="48.41236" lon="2.63243">
        <ele>130.88</ele>
        <time>2011-10-02T10:58:17Z</time>
      </trkpt>
      <trkpt lat="48.41257" lon="2.6324">
        <ele>130.88</ele>
        <time>2011-10-02T10:58:29Z</time>
      </trkpt>
      <trkpt lat="48.41258" lon="2.63239">
        <ele>130.88</ele>
        <time>2011-10-02T10:58:57Z</time>
      </trkpt>
      <trkpt lat="48.41257" lon="2.63239">
        <ele>130.88</ele>
        <time>2011-10-02T10:59:24Z</time>
      </trkpt>
      <trkpt lat="48.41257" lon="2.63239">
        <ele>131.36</ele>
        <time>2011-10-02T10:59:50Z</time>
      </trkpt>
      <trkpt lat="48.41258" lon="2.6324">
        <ele>126.55</ele>
        <time>2011-10-02T11:00:03Z</time>
      </trkpt>
      <trkpt lat="48.41258" lon="2.6324">
        <ele>130.88</ele>
        <time>2011-10-02T11:00:04Z</time>
      </trkpt>
      <trkpt lat="48.41284" lon="2.63237">
        <ele>129.92</ele>
        <time>2011-10-02T11:00:17Z</time>
      </trkpt>
      <trkpt lat="48.41339" lon="2.6323">
        <ele>128.47</ele>
        <time>2011-10-02T11:00:32Z</time>
      </trkpt>
      <trkpt lat="48.41398" lon="2.6322">
        <ele>126.55</ele>
        <time>2011-10-02T11:00:46Z</time>
      </trkpt>
      <trkpt lat="48.41441" lon="2.63211">
        <ele>124.63</ele>
        <time>2011-10-02T11:00:57Z</time>
      </trkpt>
      <trkpt lat="48.41471" lon="2.63209">
        <ele>121.74</ele>
        <time>2011-10-02T11:01:05Z</time>
      </trkpt>
      <trkpt lat="48.41497" lon="2.63204">
        <ele>120.3</ele>
        <time>2011-10-02T11:01:13Z</time>
      </trkpt>
      <trkpt lat="48.41497" lon="2.63258">
        <ele>121.74</ele>
        <time>2011-10-02T11:01:25Z</time>
      </trkpt>
      <trkpt lat="48.41488" lon="2.63308">
        <ele>122.22</ele>
        <time>2011-10-02T11:01:32Z</time>
      </trkpt>
      <trkpt lat="48.41473" lon="2.63408">
        <ele>124.15</ele>
        <time>2011-10-02T11:01:47Z</time>
      </trkpt>
      <trkpt lat="48.4146" lon="2.63487">
        <ele>126.55</ele>
        <time>2011-10-02T11:02:01Z</time>
      </trkpt>
      <trkpt lat="48.41449" lon="2.63552">
        <ele>127.03</ele>
        <time>2011-10-02T11:02:14Z</time>
      </trkpt>
      <trkpt lat="48.41437" lon="2.63633">
        <ele>127.99</ele>
        <time>2011-10-02T11:02:31Z</time>
      </trkpt>
      <trkpt lat="48.41426" lon="2.63681">
        <ele>128.95</ele>
        <time>2011-10-02T11:02:44Z</time>
      </trkpt>
      <trkpt lat="48.41426" lon="2.63685">
        <ele>128.95</ele>
        <time>2011-10-02T11:02:59Z</time>
      </trkpt>
      <trkpt lat="48.41427" lon="2.63684">
        <ele>128.47</ele>
        <time>2011-10-02T11:03:21Z</time>
      </trkpt>
      <trkpt lat="48.41448" lon="2.63681">
        <ele>129.92</ele>
        <time>2011-10-02T11:03:33Z</time>
      </trkpt>
      <trkpt lat="48.41449" lon="2.63681">
        <ele>129.92</ele>
        <time>2011-10-02T11:03:47Z</time>
      </trkpt>
      <trkpt lat="48.41449" lon="2.63681">
        <ele>129.43</ele>
        <time>2011-10-02T11:03:48Z</time>
      </trkpt>
      <trkpt lat="48.41451" lon="2.63682">
        <ele>129.43</ele>
        <time>2011-10-02T11:03:49Z</time>
      </trkpt>
      <trkpt lat="48.41453" lon="2.63683">
        <ele>129.92</ele>
        <time>2011-10-02T11:03:50Z</time>
      </trkpt>
      <trkpt lat="48.41454" lon="2.63685">
        <ele>129.43</ele>
        <time>2011-10-02T11:04:03Z</time>
      </trkpt>
      <trkpt lat="48.41456" lon="2.63686">
        <ele>129.92</ele>
        <time>2011-10-02T11:04:10Z</time>
      </trkpt>
      <trkpt lat="48.41476" lon="2.63699">
        <ele>130.4</ele>
        <time>2011-10-02T11:04:23Z</time>
      </trkpt>
      <trkpt lat="48.41495" lon="2.63716">
        <ele>130.88</ele>
        <time>2011-10-02T11:04:36Z</time>
      </trkpt>
      <trkpt lat="48.41513" lon="2.63728">
        <ele>131.36</ele>
        <time>2011-10-02T11:04:49Z</time>
      </trkpt>
      <trkpt lat="48.4154" lon="2.63751">
        <ele>132.32</ele>
        <time>2011-10-02T11:05:04Z</time>
      </trkpt>
      <trkpt lat="48.41572" lon="2.6377">
        <ele>132.8</ele>
        <time>2011-10-02T11:05:18Z</time>
      </trkpt>
      <trkpt lat="48.416" lon="2.63791">
        <ele>133.76</ele>
        <time>2011-10-02T11:05:31Z</time>
      </trkpt>
      <trkpt lat="48.41633" lon="2.63817">
        <ele>134.72</ele>
        <time>2011-10-02T11:05:46Z</time>
      </trkpt>
      <trkpt lat="48.41666" lon="2.63844">
        <ele>134.72</ele>
        <time>2011-10-02T11:06:00Z</time>
      </trkpt>
      <trkpt lat="48.41714" lon="2.63882">
        <ele>134.24</ele>
        <time>2011-10-02T11:06:17Z</time>
      </trkpt>
      <trkpt lat="48.41753" lon="2.63911">
        <ele>134.24</ele>
        <time>2011-10-02T11:06:32Z</time>
      </trkpt>
      <trkpt lat="48.41781" lon="2.63932">
        <ele>134.24</ele>
        <time>2011-10-02T11:06:43Z</time>
      </trkpt>
      <trkpt lat="48.4182" lon="2.63966">
        <ele>134.72</ele>
        <time>2011-10-02T11:06:58Z</time>
      </trkpt>
      <trkpt lat="48.41853" lon="2.63992">
        <ele>134.72</ele>
        <time>2011-10-02T11:07:10Z</time>
      </trkpt>
      <trkpt lat="48.41891" lon="2.64019">
        <ele>134.72</ele>
        <time>2011-10-02T11:07:23Z</time>
      </trkpt>
      <trkpt lat="48.41925" lon="2.64047">
        <ele>134.72</ele>
        <time>2011-10-02T11:07:36Z</time>
      </trkpt>
      <trkpt lat="48.41965" lon="2.64084">
        <ele>134.72</ele>
        <time>2011-10-02T11:07:51Z</time>
      </trkpt>
      <trkpt lat="48.41997" lon="2.64109">
        <ele>134.72</ele>
        <time>2011-10-02T11:08:04Z</time>
      </trkpt>
      <trkpt lat="48.42032" lon="2.64137">
        <ele>134.24</ele>
        <time>2011-10-02T11:08:18Z</time>
      </trkpt>
      <trkpt lat="48.42036" lon="2.64142">
        <ele>134.24</ele>
        <time>2011-10-02T11:08:21Z</time>
      </trkpt>
      <trkpt lat="48.42036" lon="2.64145">
        <ele>134.24</ele>
        <time>2011-10-02T11:08:36Z</time>
      </trkpt>
      <trkpt lat="48.42036" lon="2.64145">
        <ele>133.76</ele>
        <time>2011-10-02T11:08:54Z</time>
      </trkpt>
      <trkpt lat="48.42038" lon="2.64147">
        <ele>133.76</ele>
        <time>2011-10-02T11:08:55Z</time>
      </trkpt>
      <trkpt lat="48.4204" lon="2.64148">
        <ele>133.76</ele>
        <time>2011-10-02T11:08:56Z</time>
      </trkpt>
      <trkpt lat="48.42078" lon="2.64171">
        <ele>133.28</ele>
        <time>2011-10-02T11:09:09Z</time>
      </trkpt>
      <trkpt lat="48.42124" lon="2.64206">
        <ele>132.32</ele>
        <time>2011-10-02T11:09:23Z</time>
      </trkpt>
      <trkpt lat="48.42172" lon="2.64247">
        <ele>131.36</ele>
        <time>2011-10-02T11:09:38Z</time>
      </trkpt>
      <trkpt lat="48.42232" lon="2.64297">
        <ele>128.95</ele>
        <time>2011-10-02T11:09:56Z</time>
      </trkpt>
      <trkpt lat="48.42248" lon="2.6431">
        <ele>127.99</ele>
        <time>2011-10-02T11:10:00Z</time>
      </trkpt>
      <trkpt lat="48.42252" lon="2.64313">
        <ele>127.99</ele>
        <time>2011-10-02T11:10:01Z</time>
      </trkpt>
      <trkpt lat="48.42273" lon="2.64329">
        <ele>123.67</ele>
        <time>2011-10-02T11:10:06Z</time>
      </trkpt>
      <trkpt lat="48.42285" lon="2.6434">
        <ele>121.74</ele>
        <time>2011-10-02T11:10:09Z</time>
      </trkpt>
      <trkpt lat="48.42293" lon="2.64348">
        <ele>120.78</ele>
        <time>2011-10-02T11:10:11Z</time>
      </trkpt>
      <trkpt lat="48.42319" lon="2.64372">
        <ele>117.9</ele>
        <time>2011-10-02T11:10:16Z</time>
      </trkpt>
      <trkpt lat="48.42328" lon="2.64382">
        <ele>116.46</ele>
        <time>2011-10-02T11:10:18Z</time>
      </trkpt>
      <trkpt lat="48.42339" lon="2.64393">
        <ele>115.5</ele>
        <time>2011-10-02T11:10:20Z</time>
      </trkpt>
      <trkpt lat="48.42344" lon="2.64398">
        <ele>115.5</ele>
        <time>2011-10-02T11:10:21Z</time>
      </trkpt>
      <trkpt lat="48.42397" lon="2.6444">
        <ele>114.05</ele>
        <time>2011-10-02T11:10:30Z</time>
      </trkpt>
      <trkpt lat="48.42401" lon="2.64443">
        <ele>113.57</ele>
        <time>2011-10-02T11:10:31Z</time>
      </trkpt>
      <trkpt lat="48.42414" lon="2.64451">
        <ele>113.57</ele>
        <time>2011-10-02T11:10:34Z</time>
      </trkpt>
      <trkpt lat="48.42419" lon="2.64455">
        <ele>113.57</ele>
        <time>2011-10-02T11:10:35Z</time>
      </trkpt>
      <trkpt lat="48.42428" lon="2.64464">
        <ele>114.05</ele>
        <time>2011-10-02T11:10:37Z</time>
      </trkpt>
      <trkpt lat="48.42431" lon="2.6447">
        <ele>114.53</ele>
        <time>2011-10-02T11:10:38Z</time>
      </trkpt>
      <trkpt lat="48.42434" lon="2.64476">
        <ele>114.53</ele>
        <time>2011-10-02T11:10:39Z</time>
      </trkpt>
      <trkpt lat="48.42437" lon="2.64481">
        <ele>114.53</ele>
        <time>2011-10-02T11:10:40Z</time>
      </trkpt>
      <trkpt lat="48.42439" lon="2.64486">
        <ele>115.01</ele>
        <time>2011-10-02T11:10:41Z</time>
      </trkpt>
      <trkpt lat="48.42442" lon="2.64489">
        <ele>114.53</ele>
        <time>2011-10-02T11:10:42Z</time>
      </trkpt>
      <trkpt lat="48.42444" lon="2.64493">
        <ele>114.53</ele>
        <time>2011-10-02T11:10:43Z</time>
      </trkpt>
      <trkpt lat="48.42447" lon="2.64497">
        <ele>114.53</ele>
        <time>2011-10-02T11:10:44Z</time>
      </trkpt>
      <trkpt lat="48.4245" lon="2.64501">
        <ele>115.01</ele>
        <time>2011-10-02T11:10:45Z</time>
      </trkpt>
      <trkpt lat="48.42452" lon="2.64505">
        <ele>114.53</ele>
        <time>2011-10-02T11:10:46Z</time>
      </trkpt>
      <trkpt lat="48.42454" lon="2.64508">
        <ele>114.53</ele>
        <time>2011-10-02T11:10:47Z</time>
      </trkpt>
      <trkpt lat="48.42456" lon="2.64511">
        <ele>114.53</ele>
        <time>2011-10-02T11:10:48Z</time>
      </trkpt>
      <trkpt lat="48.42458" lon="2.64515">
        <ele>115.01</ele>
        <time>2011-10-02T11:10:49Z</time>
      </trkpt>
      <trkpt lat="48.4246" lon="2.64519">
        <ele>115.01</ele>
        <time>2011-10-02T11:10:50Z</time>
      </trkpt>
      <trkpt lat="48.42462" lon="2.64522">
        <ele>114.53</ele>
        <time>2011-10-02T11:10:51Z</time>
      </trkpt>
      <trkpt lat="48.42465" lon="2.64526">
        <ele>115.01</ele>
        <time>2011-10-02T11:10:52Z</time>
      </trkpt>
      <trkpt lat="48.42467" lon="2.6453">
        <ele>115.01</ele>
        <time>2011-10-02T11:10:53Z</time>
      </trkpt>
      <trkpt lat="48.42469" lon="2.64533">
        <ele>115.01</ele>
        <time>2011-10-02T11:10:54Z</time>
      </trkpt>
      <trkpt lat="48.42472" lon="2.64535">
        <ele>115.01</ele>
        <time>2011-10-02T11:10:55Z</time>
      </trkpt>
      <trkpt lat="48.42475" lon="2.64539">
        <ele>115.01</ele>
        <time>2011-10-02T11:10:56Z</time>
      </trkpt>
      <trkpt lat="48.42477" lon="2.64542">
        <ele>115.01</ele>
        <time>2011-10-02T11:10:57Z</time>
      </trkpt>
      <trkpt lat="48.42479" lon="2.64546">
        <ele>114.53</ele>
        <time>2011-10-02T11:10:58Z</time>
      </trkpt>
      <trkpt lat="48.42481" lon="2.6455">
        <ele>115.5</ele>
        <time>2011-10-02T11:10:59Z</time>
      </trkpt>
      <trkpt lat="48.425" lon="2.64579">
        <ele>115.5</ele>
        <time>2011-10-02T11:11:08Z</time>
      </trkpt>
      <trkpt lat="48.42502" lon="2.64583">
        <ele>115.5</ele>
        <time>2011-10-02T11:11:09Z</time>
      </trkpt>
      <trkpt lat="48.42503" lon="2.64587">
        <ele>115.98</ele>
        <time>2011-10-02T11:11:10Z</time>
      </trkpt>
      <trkpt lat="48.42504" lon="2.64591">
        <ele>115.5</ele>
        <time>2011-10-02T11:11:11Z</time>
      </trkpt>
      <trkpt lat="48.42505" lon="2.64595">
        <ele>116.46</ele>
        <time>2011-10-02T11:11:12Z</time>
      </trkpt>
      <trkpt lat="48.42508" lon="2.64598">
        <ele>115.5</ele>
        <time>2011-10-02T11:11:13Z</time>
      </trkpt>
      <trkpt lat="48.4251" lon="2.646">
        <ele>115.5</ele>
        <time>2011-10-02T11:11:14Z</time>
      </trkpt>
      <trkpt lat="48.42512" lon="2.64602">
        <ele>115.98</ele>
        <time>2011-10-02T11:11:15Z</time>
      </trkpt>
      <trkpt lat="48.42513" lon="2.64606">
        <ele>115.98</ele>
        <time>2011-10-02T11:11:16Z</time>
      </trkpt>
      <trkpt lat="48.42514" lon="2.64609">
        <ele>115.98</ele>
        <time>2011-10-02T11:11:17Z</time>
      </trkpt>
      <trkpt lat="48.42516" lon="2.64613">
        <ele>115.98</ele>
        <time>2011-10-02T11:11:18Z</time>
      </trkpt>
      <trkpt lat="48.42517" lon="2.64616">
        <ele>116.46</ele>
        <time>2011-10-02T11:11:19Z</time>
      </trkpt>
      <trkpt lat="48.42519" lon="2.64619">
        <ele>116.46</ele>
        <time>2011-10-02T11:11:20Z</time>
      </trkpt>
      <trkpt lat="48.42521" lon="2.64623">
        <ele>116.46</ele>
        <time>2011-10-02T11:11:21Z</time>
      </trkpt>
      <trkpt lat="48.42544" lon="2.64669">
        <ele>116.94</ele>
        <time>2011-10-02T11:11:34Z</time>
      </trkpt>
      <trkpt lat="48.42562" lon="2.64705">
        <ele>119.34</ele>
        <time>2011-10-02T11:11:48Z</time>
      </trkpt>
      <trkpt lat="48.42569" lon="2.64723">
        <ele>120.3</ele>
        <time>2011-10-02T11:12:00Z</time>
      </trkpt>
      <trkpt lat="48.4257" lon="2.64724">
        <ele>120.3</ele>
        <time>2011-10-02T11:12:01Z</time>
      </trkpt>
      <trkpt lat="48.42571" lon="2.64725">
        <ele>120.3</ele>
        <time>2011-10-02T11:12:02Z</time>
      </trkpt>
      <trkpt lat="48.42573" lon="2.64726">
        <ele>120.3</ele>
        <time>2011-10-02T11:12:03Z</time>
      </trkpt>
      <trkpt lat="48.42574" lon="2.64727">
        <ele>120.3</ele>
        <time>2011-10-02T11:12:04Z</time>
      </trkpt>
      <trkpt lat="48.42575" lon="2.64728">
        <ele>120.78</ele>
        <time>2011-10-02T11:12:05Z</time>
      </trkpt>
      <trkpt lat="48.42576" lon="2.64729">
        <ele>120.78</ele>
        <time>2011-10-02T11:12:06Z</time>
      </trkpt>
      <trkpt lat="48.42577" lon="2.6473">
        <ele>120.78</ele>
        <time>2011-10-02T11:12:07Z</time>
      </trkpt>
      <trkpt lat="48.42583" lon="2.64734">
        <ele>121.74</ele>
        <time>2011-10-02T11:12:18Z</time>
      </trkpt>
      <trkpt lat="48.42586" lon="2.64726">
        <ele>121.74</ele>
        <time>2011-10-02T11:12:25Z</time>
      </trkpt>
      <trkpt lat="48.42596" lon="2.64708">
        <ele>122.22</ele>
        <time>2011-10-02T11:12:38Z</time>
      </trkpt>
      <trkpt lat="48.42592" lon="2.64714">
        <ele>121.74</ele>
        <time>2011-10-02T11:12:46Z</time>
      </trkpt>
      <trkpt lat="48.42591" lon="2.64718">
        <ele>121.74</ele>
        <time>2011-10-02T11:12:47Z</time>
      </trkpt>
      <trkpt lat="48.4259" lon="2.64722">
        <ele>121.26</ele>
        <time>2011-10-02T11:12:48Z</time>
      </trkpt>
      <trkpt lat="48.42588" lon="2.64725">
        <ele>121.74</ele>
        <time>2011-10-02T11:12:49Z</time>
      </trkpt>
      <trkpt lat="48.42586" lon="2.64728">
        <ele>121.74</ele>
        <time>2011-10-02T11:12:50Z</time>
      </trkpt>
      <trkpt lat="48.42584" lon="2.64731">
        <ele>121.74</ele>
        <time>2011-10-02T11:12:51Z</time>
      </trkpt>
      <trkpt lat="48.42582" lon="2.64734">
        <ele>121.74</ele>
        <time>2011-10-02T11:12:52Z</time>
      </trkpt>
      <trkpt lat="48.42579" lon="2.64737">
        <ele>121.74</ele>
        <time>2011-10-02T11:12:53Z</time>
      </trkpt>
      <trkpt lat="48.42577" lon="2.6474">
        <ele>121.74</ele>
        <time>2011-10-02T11:12:54Z</time>
      </trkpt>
      <trkpt lat="48.42558" lon="2.64768">
        <ele>122.71</ele>
        <time>2011-10-02T11:13:02Z</time>
      </trkpt>
      <trkpt lat="48.42532" lon="2.64795">
        <ele>125.11</ele>
        <time>2011-10-02T11:13:13Z</time>
      </trkpt>
      <trkpt lat="48.42508" lon="2.64824">
        <ele>127.99</ele>
        <time>2011-10-02T11:13:26Z</time>
      </trkpt>
      <trkpt lat="48.42485" lon="2.64855">
        <ele>130.88</ele>
        <time>2011-10-02T11:13:41Z</time>
      </trkpt>
      <trkpt lat="48.42467" lon="2.64873">
        <ele>132.32</ele>
        <time>2011-10-02T11:13:53Z</time>
      </trkpt>
      <trkpt lat="48.42454" lon="2.64889">
        <ele>132.8</ele>
        <time>2011-10-02T11:14:06Z</time>
      </trkpt>
      <trkpt lat="48.42438" lon="2.64911">
        <ele>133.28</ele>
        <time>2011-10-02T11:14:19Z</time>
      </trkpt>
      <trkpt lat="48.42435" lon="2.64912">
        <ele>133.28</ele>
        <time>2011-10-02T11:14:20Z</time>
      </trkpt>
      <trkpt lat="48.42427" lon="2.6492">
        <ele>133.76</ele>
        <time>2011-10-02T11:14:26Z</time>
      </trkpt>
      <trkpt lat="48.42427" lon="2.6492">
        <ele>133.76</ele>
        <time>2011-10-02T11:14:45Z</time>
      </trkpt>
      <trkpt lat="48.42427" lon="2.6492">
        <ele>133.76</ele>
        <time>2011-10-02T11:15:05Z</time>
      </trkpt>
      <trkpt lat="48.42426" lon="2.64923">
        <ele>133.28</ele>
        <time>2011-10-02T11:15:08Z</time>
      </trkpt>
      <trkpt lat="48.42425" lon="2.64926">
        <ele>133.28</ele>
        <time>2011-10-02T11:15:09Z</time>
      </trkpt>
      <trkpt lat="48.42424" lon="2.64929">
        <ele>133.28</ele>
        <time>2011-10-02T11:15:10Z</time>
      </trkpt>
      <trkpt lat="48.42397" lon="2.64965">
        <ele>133.28</ele>
        <time>2011-10-02T11:15:23Z</time>
      </trkpt>
      <trkpt lat="48.42353" lon="2.6502">
        <ele>133.76</ele>
        <time>2011-10-02T11:15:39Z</time>
      </trkpt>
      <trkpt lat="48.42308" lon="2.65076">
        <ele>134.24</ele>
        <time>2011-10-02T11:15:55Z</time>
      </trkpt>
      <trkpt lat="48.42256" lon="2.65142">
        <ele>133.76</ele>
        <time>2011-10-02T11:16:13Z</time>
      </trkpt>
      <trkpt lat="48.42207" lon="2.65205">
        <ele>134.24</ele>
        <time>2011-10-02T11:16:30Z</time>
      </trkpt>
      <trkpt lat="48.42161" lon="2.65262">
        <ele>134.72</ele>
        <time>2011-10-02T11:16:48Z</time>
      </trkpt>
      <trkpt lat="48.42158" lon="2.65265">
        <ele>135.2</ele>
        <time>2011-10-02T11:16:52Z</time>
      </trkpt>
      <trkpt lat="48.42156" lon="2.65266">
        <ele>134.72</ele>
        <time>2011-10-02T11:16:53Z</time>
      </trkpt>
      <trkpt lat="48.42155" lon="2.65268">
        <ele>134.72</ele>
        <time>2011-10-02T11:16:54Z</time>
      </trkpt>
      <trkpt lat="48.42154" lon="2.6527">
        <ele>134.72</ele>
        <time>2011-10-02T11:16:55Z</time>
      </trkpt>
      <trkpt lat="48.42154" lon="2.65272">
        <ele>134.72</ele>
        <time>2011-10-02T11:16:56Z</time>
      </trkpt>
      <trkpt lat="48.42154" lon="2.65275">
        <ele>134.24</ele>
        <time>2011-10-02T11:16:57Z</time>
      </trkpt>
      <trkpt lat="48.42193" lon="2.65323">
        <ele>135.2</ele>
        <time>2011-10-02T11:17:10Z</time>
      </trkpt>
      <trkpt lat="48.42241" lon="2.65376">
        <ele>135.2</ele>
        <time>2011-10-02T11:17:21Z</time>
      </trkpt>
      <trkpt lat="48.42244" lon="2.65381">
        <ele>135.68</ele>
        <time>2011-10-02T11:17:22Z</time>
      </trkpt>
      <trkpt lat="48.42251" lon="2.6539">
        <ele>135.2</ele>
        <time>2011-10-02T11:17:24Z</time>
      </trkpt>
      <trkpt lat="48.42289" lon="2.65425">
        <ele>136.16</ele>
        <time>2011-10-02T11:17:35Z</time>
      </trkpt>
      <trkpt lat="48.42305" lon="2.65439">
        <ele>135.68</ele>
        <time>2011-10-02T11:17:39Z</time>
      </trkpt>
      <trkpt lat="48.42309" lon="2.65444">
        <ele>135.68</ele>
        <time>2011-10-02T11:17:40Z</time>
      </trkpt>
      <trkpt lat="48.42313" lon="2.6545">
        <ele>136.16</ele>
        <time>2011-10-02T11:17:41Z</time>
      </trkpt>
      <trkpt lat="48.42317" lon="2.65455">
        <ele>135.68</ele>
        <time>2011-10-02T11:17:42Z</time>
      </trkpt>
      <trkpt lat="48.42321" lon="2.65459">
        <ele>135.2</ele>
        <time>2011-10-02T11:17:43Z</time>
      </trkpt>
      <trkpt lat="48.42325" lon="2.65463">
        <ele>135.68</ele>
        <time>2011-10-02T11:17:44Z</time>
      </trkpt>
      <trkpt lat="48.4233" lon="2.65466">
        <ele>135.68</ele>
        <time>2011-10-02T11:17:45Z</time>
      </trkpt>
      <trkpt lat="48.42351" lon="2.65487">
        <ele>135.2</ele>
        <time>2011-10-02T11:17:50Z</time>
      </trkpt>
      <trkpt lat="48.42373" lon="2.65513">
        <ele>135.68</ele>
        <time>2011-10-02T11:17:55Z</time>
      </trkpt>
      <trkpt lat="48.42378" lon="2.65518">
        <ele>135.68</ele>
        <time>2011-10-02T11:17:56Z</time>
      </trkpt>
      <trkpt lat="48.42438" lon="2.65586">
        <ele>133.76</ele>
        <time>2011-10-02T11:18:09Z</time>
      </trkpt>
      <trkpt lat="48.42443" lon="2.65592">
        <ele>133.76</ele>
        <time>2011-10-02T11:18:10Z</time>
      </trkpt>
      <trkpt lat="48.42448" lon="2.65597">
        <ele>133.76</ele>
        <time>2011-10-02T11:18:11Z</time>
      </trkpt>
      <trkpt lat="48.42519" lon="2.65675">
        <ele>134.72</ele>
        <time>2011-10-02T11:18:27Z</time>
      </trkpt>
      <trkpt lat="48.42523" lon="2.65679">
        <ele>134.72</ele>
        <time>2011-10-02T11:18:28Z</time>
      </trkpt>
      <trkpt lat="48.42559" lon="2.65716">
        <ele>135.68</ele>
        <time>2011-10-02T11:18:37Z</time>
      </trkpt>
      <trkpt lat="48.42567" lon="2.65725">
        <ele>135.68</ele>
        <time>2011-10-02T11:18:39Z</time>
      </trkpt>
      <trkpt lat="48.42603" lon="2.65761">
        <ele>136.16</ele>
        <time>2011-10-02T11:18:48Z</time>
      </trkpt>
      <trkpt lat="48.42611" lon="2.65767">
        <ele>136.16</ele>
        <time>2011-10-02T11:18:50Z</time>
      </trkpt>
      <trkpt lat="48.42615" lon="2.6577">
        <ele>136.64</ele>
        <time>2011-10-02T11:18:51Z</time>
      </trkpt>
      <trkpt lat="48.42663" lon="2.65823">
        <ele>136.64</ele>
        <time>2011-10-02T11:19:04Z</time>
      </trkpt>
      <trkpt lat="48.42688" lon="2.65849">
        <ele>136.16</ele>
        <time>2011-10-02T11:19:10Z</time>
      </trkpt>
      <trkpt lat="48.42705" lon="2.65868">
        <ele>136.16</ele>
        <time>2011-10-02T11:19:14Z</time>
      </trkpt>
      <trkpt lat="48.42709" lon="2.65872">
        <ele>135.68</ele>
        <time>2011-10-02T11:19:15Z</time>
      </trkpt>
      <trkpt lat="48.42712" lon="2.65877">
        <ele>136.16</ele>
        <time>2011-10-02T11:19:16Z</time>
      </trkpt>
      <trkpt lat="48.42716" lon="2.65882">
        <ele>136.16</ele>
        <time>2011-10-02T11:19:17Z</time>
      </trkpt>
      <trkpt lat="48.4272" lon="2.65887">
        <ele>136.16</ele>
        <time>2011-10-02T11:19:18Z</time>
      </trkpt>
      <trkpt lat="48.42724" lon="2.65891">
        <ele>135.68</ele>
        <time>2011-10-02T11:19:19Z</time>
      </trkpt>
      <trkpt lat="48.4277" lon="2.65942">
        <ele>136.16</ele>
        <time>2011-10-02T11:19:30Z</time>
      </trkpt>
      <trkpt lat="48.42778" lon="2.65953">
        <ele>135.68</ele>
        <time>2011-10-02T11:19:32Z</time>
      </trkpt>
      <trkpt lat="48.42782" lon="2.65957">
        <ele>135.68</ele>
        <time>2011-10-02T11:19:33Z</time>
      </trkpt>
      <trkpt lat="48.42817" lon="2.65993">
        <ele>135.68</ele>
        <time>2011-10-02T11:19:41Z</time>
      </trkpt>
      <trkpt lat="48.42846" lon="2.66027">
        <ele>136.16</ele>
        <time>2011-10-02T11:19:48Z</time>
      </trkpt>
      <trkpt lat="48.42851" lon="2.66031">
        <ele>135.2</ele>
        <time>2011-10-02T11:19:49Z</time>
      </trkpt>
      <trkpt lat="48.42863" lon="2.66044">
        <ele>135.68</ele>
        <time>2011-10-02T11:19:52Z</time>
      </trkpt>
      <trkpt lat="48.42868" lon="2.66046">
        <ele>135.68</ele>
        <time>2011-10-02T11:19:53Z</time>
      </trkpt>
      <trkpt lat="48.42872" lon="2.66049">
        <ele>135.2</ele>
        <time>2011-10-02T11:19:54Z</time>
      </trkpt>
      <trkpt lat="48.42876" lon="2.66053">
        <ele>135.68</ele>
        <time>2011-10-02T11:19:55Z</time>
      </trkpt>
      <trkpt lat="48.42881" lon="2.66058">
        <ele>135.2</ele>
        <time>2011-10-02T11:19:56Z</time>
      </trkpt>
      <trkpt lat="48.42916" lon="2.66092">
        <ele>135.68</ele>
        <time>2011-10-02T11:20:04Z</time>
      </trkpt>
      <trkpt lat="48.42945" lon="2.661">
        <ele>136.16</ele>
        <time>2011-10-02T11:20:10Z</time>
      </trkpt>
      <trkpt lat="48.4295" lon="2.66099">
        <ele>135.68</ele>
        <time>2011-10-02T11:20:11Z</time>
      </trkpt>
      <trkpt lat="48.42955" lon="2.66098">
        <ele>135.68</ele>
        <time>2011-10-02T11:20:12Z</time>
      </trkpt>
      <trkpt lat="48.42965" lon="2.66097">
        <ele>135.68</ele>
        <time>2011-10-02T11:20:14Z</time>
      </trkpt>
      <trkpt lat="48.42989" lon="2.66094">
        <ele>136.64</ele>
        <time>2011-10-02T11:20:19Z</time>
      </trkpt>
      <trkpt lat="48.42993" lon="2.66095">
        <ele>137.13</ele>
        <time>2011-10-02T11:20:20Z</time>
      </trkpt>
      <trkpt lat="48.43013" lon="2.66132">
        <ele>137.61</ele>
        <time>2011-10-02T11:20:30Z</time>
      </trkpt>
      <trkpt lat="48.43013" lon="2.66144">
        <ele>138.09</ele>
        <time>2011-10-02T11:20:32Z</time>
      </trkpt>
      <trkpt lat="48.43013" lon="2.66149">
        <ele>138.09</ele>
        <time>2011-10-02T11:20:33Z</time>
      </trkpt>
      <trkpt lat="48.43013" lon="2.66154">
        <ele>138.09</ele>
        <time>2011-10-02T11:20:34Z</time>
      </trkpt>
      <trkpt lat="48.43016" lon="2.66162">
        <ele>138.09</ele>
        <time>2011-10-02T11:20:44Z</time>
      </trkpt>
      <trkpt lat="48.43019" lon="2.66169">
        <ele>138.09</ele>
        <time>2011-10-02T11:21:07Z</time>
      </trkpt>
      <trkpt lat="48.43031" lon="2.662">
        <ele>138.09</ele>
        <time>2011-10-02T11:21:20Z</time>
      </trkpt>
      <trkpt lat="48.43032" lon="2.6622">
        <ele>138.09</ele>
        <time>2011-10-02T11:21:26Z</time>
      </trkpt>
      <trkpt lat="48.43035" lon="2.66269">
        <ele>138.57</ele>
        <time>2011-10-02T11:21:38Z</time>
      </trkpt>
      <trkpt lat="48.43034" lon="2.66281">
        <ele>139.05</ele>
        <time>2011-10-02T11:21:50Z</time>
      </trkpt>
      <trkpt lat="48.43034" lon="2.66281">
        <ele>139.05</ele>
        <time>2011-10-02T11:22:03Z</time>
      </trkpt>
      <trkpt lat="48.43035" lon="2.66283">
        <ele>139.05</ele>
        <time>2011-10-02T11:22:04Z</time>
      </trkpt>
      <trkpt lat="48.43045" lon="2.66339">
        <ele>139.05</ele>
        <time>2011-10-02T11:22:16Z</time>
      </trkpt>
      <trkpt lat="48.43046" lon="2.6638">
        <ele>138.57</ele>
        <time>2011-10-02T11:22:22Z</time>
      </trkpt>
      <trkpt lat="48.43051" lon="2.66481">
        <ele>138.57</ele>
        <time>2011-10-02T11:22:37Z</time>
      </trkpt>
      <trkpt lat="48.43054" lon="2.66494">
        <ele>138.57</ele>
        <time>2011-10-02T11:22:41Z</time>
      </trkpt>
      <trkpt lat="48.43056" lon="2.66497">
        <ele>138.57</ele>
        <time>2011-10-02T11:22:42Z</time>
      </trkpt>
      <trkpt lat="48.43058" lon="2.66498">
        <ele>138.57</ele>
        <time>2011-10-02T11:22:43Z</time>
      </trkpt>
      <trkpt lat="48.43099" lon="2.66511">
        <ele>138.57</ele>
        <time>2011-10-02T11:22:55Z</time>
      </trkpt>
      <trkpt lat="48.43161" lon="2.66526">
        <ele>139.05</ele>
        <time>2011-10-02T11:23:10Z</time>
      </trkpt>
      <trkpt lat="48.43214" lon="2.66538">
        <ele>138.09</ele>
        <time>2011-10-02T11:23:23Z</time>
      </trkpt>
      <trkpt lat="48.43235" lon="2.66541">
        <ele>138.09</ele>
        <time>2011-10-02T11:23:28Z</time>
      </trkpt>
      <trkpt lat="48.43296" lon="2.66557">
        <ele>138.57</ele>
        <time>2011-10-02T11:23:42Z</time>
      </trkpt>
      <trkpt lat="48.43364" lon="2.66572">
        <ele>138.09</ele>
        <time>2011-10-02T11:23:57Z</time>
      </trkpt>
      <trkpt lat="48.43432" lon="2.66584">
        <ele>136.64</ele>
        <time>2011-10-02T11:24:11Z</time>
      </trkpt>
      <trkpt lat="48.43491" lon="2.66602">
        <ele>135.2</ele>
        <time>2011-10-02T11:24:22Z</time>
      </trkpt>
      <trkpt lat="48.43497" lon="2.66604">
        <ele>134.72</ele>
        <time>2011-10-02T11:24:23Z</time>
      </trkpt>
      <trkpt lat="48.43514" lon="2.6661">
        <ele>135.2</ele>
        <time>2011-10-02T11:24:26Z</time>
      </trkpt>
      <trkpt lat="48.43521" lon="2.66611">
        <ele>135.68</ele>
        <time>2011-10-02T11:24:27Z</time>
      </trkpt>
      <trkpt lat="48.43527" lon="2.66613">
        <ele>135.2</ele>
        <time>2011-10-02T11:24:28Z</time>
      </trkpt>
      <trkpt lat="48.43537" lon="2.66615">
        <ele>135.2</ele>
        <time>2011-10-02T11:24:30Z</time>
      </trkpt>
      <trkpt lat="48.43597" lon="2.66633">
        <ele>135.2</ele>
        <time>2011-10-02T11:24:41Z</time>
      </trkpt>
      <trkpt lat="48.43602" lon="2.66634">
        <ele>135.2</ele>
        <time>2011-10-02T11:24:42Z</time>
      </trkpt>
      <trkpt lat="48.43643" lon="2.66644">
        <ele>135.68</ele>
        <time>2011-10-02T11:24:50Z</time>
      </trkpt>
      <trkpt lat="48.43648" lon="2.66645">
        <ele>135.2</ele>
        <time>2011-10-02T11:24:51Z</time>
      </trkpt>
      <trkpt lat="48.43674" lon="2.66654">
        <ele>135.68</ele>
        <time>2011-10-02T11:24:56Z</time>
      </trkpt>
      <trkpt lat="48.43679" lon="2.66656">
        <ele>135.68</ele>
        <time>2011-10-02T11:24:57Z</time>
      </trkpt>
      <trkpt lat="48.43684" lon="2.66658">
        <ele>135.68</ele>
        <time>2011-10-02T11:24:58Z</time>
      </trkpt>
      <trkpt lat="48.43689" lon="2.6666">
        <ele>135.68</ele>
        <time>2011-10-02T11:24:59Z</time>
      </trkpt>
      <trkpt lat="48.43695" lon="2.66662">
        <ele>135.68</ele>
        <time>2011-10-02T11:25:00Z</time>
      </trkpt>
      <trkpt lat="48.437" lon="2.66665">
        <ele>135.2</ele>
        <time>2011-10-02T11:25:01Z</time>
      </trkpt>
      <trkpt lat="48.43744" lon="2.66686">
        <ele>135.2</ele>
        <time>2011-10-02T11:25:10Z</time>
      </trkpt>
      <trkpt lat="48.43749" lon="2.66687">
        <ele>135.2</ele>
        <time>2011-10-02T11:25:11Z</time>
      </trkpt>
      <trkpt lat="48.43754" lon="2.66689">
        <ele>135.2</ele>
        <time>2011-10-02T11:25:12Z</time>
      </trkpt>
      <trkpt lat="48.43759" lon="2.66691">
        <ele>135.2</ele>
        <time>2011-10-02T11:25:13Z</time>
      </trkpt>
      <trkpt lat="48.43763" lon="2.66693">
        <ele>134.72</ele>
        <time>2011-10-02T11:25:14Z</time>
      </trkpt>
      <trkpt lat="48.43768" lon="2.66694">
        <ele>134.72</ele>
        <time>2011-10-02T11:25:15Z</time>
      </trkpt>
      <trkpt lat="48.43784" lon="2.66697">
        <ele>134.72</ele>
        <time>2011-10-02T11:25:18Z</time>
      </trkpt>
      <trkpt lat="48.43789" lon="2.667">
        <ele>134.72</ele>
        <time>2011-10-02T11:25:19Z</time>
      </trkpt>
      <trkpt lat="48.43793" lon="2.66702">
        <ele>134.72</ele>
        <time>2011-10-02T11:25:20Z</time>
      </trkpt>
      <trkpt lat="48.43798" lon="2.66704">
        <ele>134.72</ele>
        <time>2011-10-02T11:25:21Z</time>
      </trkpt>
      <trkpt lat="48.43803" lon="2.66707">
        <ele>134.72</ele>
        <time>2011-10-02T11:25:22Z</time>
      </trkpt>
      <trkpt lat="48.43818" lon="2.66714">
        <ele>134.24</ele>
        <time>2011-10-02T11:25:25Z</time>
      </trkpt>
      <trkpt lat="48.43823" lon="2.66716">
        <ele>134.72</ele>
        <time>2011-10-02T11:25:26Z</time>
      </trkpt>
      <trkpt lat="48.43829" lon="2.66718">
        <ele>134.24</ele>
        <time>2011-10-02T11:25:27Z</time>
      </trkpt>
      <trkpt lat="48.43865" lon="2.66736">
        <ele>134.24</ele>
        <time>2011-10-02T11:25:35Z</time>
      </trkpt>
      <trkpt lat="48.43914" lon="2.66761">
        <ele>134.72</ele>
        <time>2011-10-02T11:25:45Z</time>
      </trkpt>
      <trkpt lat="48.43919" lon="2.66764">
        <ele>135.2</ele>
        <time>2011-10-02T11:25:46Z</time>
      </trkpt>
      <trkpt lat="48.43983" lon="2.66796">
        <ele>135.2</ele>
        <time>2011-10-02T11:26:00Z</time>
      </trkpt>
      <trkpt lat="48.43991" lon="2.66801">
        <ele>135.68</ele>
        <time>2011-10-02T11:26:02Z</time>
      </trkpt>
      <trkpt lat="48.43995" lon="2.66803">
        <ele>135.2</ele>
        <time>2011-10-02T11:26:03Z</time>
      </trkpt>
      <trkpt lat="48.44031" lon="2.66821">
        <ele>136.64</ele>
        <time>2011-10-02T11:26:13Z</time>
      </trkpt>
      <trkpt lat="48.44072" lon="2.66844">
        <ele>136.64</ele>
        <time>2011-10-02T11:26:25Z</time>
      </trkpt>
      <trkpt lat="48.4408" lon="2.66849">
        <ele>137.13</ele>
        <time>2011-10-02T11:26:27Z</time>
      </trkpt>
      <trkpt lat="48.44084" lon="2.66852">
        <ele>136.64</ele>
        <time>2011-10-02T11:26:28Z</time>
      </trkpt>
      <trkpt lat="48.44135" lon="2.66884">
        <ele>137.13</ele>
        <time>2011-10-02T11:26:42Z</time>
      </trkpt>
      <trkpt lat="48.44165" lon="2.66905">
        <ele>138.09</ele>
        <time>2011-10-02T11:26:55Z</time>
      </trkpt>
      <trkpt lat="48.44165" lon="2.66905">
        <ele>137.61</ele>
        <time>2011-10-02T11:27:16Z</time>
      </trkpt>
      <trkpt lat="48.44165" lon="2.66905">
        <ele>138.09</ele>
        <time>2011-10-02T11:27:41Z</time>
      </trkpt>
      <trkpt lat="48.44172" lon="2.66906">
        <ele>137.61</ele>
        <time>2011-10-02T11:27:59Z</time>
      </trkpt>
      <trkpt lat="48.44193" lon="2.66922">
        <ele>137.61</ele>
        <time>2011-10-02T11:28:12Z</time>
      </trkpt>
      <trkpt lat="48.44194" lon="2.66924">
        <ele>137.61</ele>
        <time>2011-10-02T11:28:13Z</time>
      </trkpt>
      <trkpt lat="48.44196" lon="2.66925">
        <ele>137.61</ele>
        <time>2011-10-02T11:28:14Z</time>
      </trkpt>
      <trkpt lat="48.44198" lon="2.66927">
        <ele>138.09</ele>
        <time>2011-10-02T11:28:15Z</time>
      </trkpt>
      <trkpt lat="48.442" lon="2.66928">
        <ele>137.61</ele>
        <time>2011-10-02T11:28:16Z</time>
      </trkpt>
      <trkpt lat="48.4422" lon="2.66929">
        <ele>138.57</ele>
        <time>2011-10-02T11:28:28Z</time>
      </trkpt>
      <trkpt lat="48.44229" lon="2.66936">
        <ele>137.61</ele>
        <time>2011-10-02T11:28:35Z</time>
      </trkpt>
      <trkpt lat="48.4425" lon="2.66945">
        <ele>137.61</ele>
        <time>2011-10-02T11:28:48Z</time>
      </trkpt>
      <trkpt lat="48.44279" lon="2.66941">
        <ele>138.57</ele>
        <time>2011-10-02T11:29:01Z</time>
      </trkpt>
      <trkpt lat="48.44284" lon="2.66939">
        <ele>138.57</ele>
        <time>2011-10-02T11:29:04Z</time>
      </trkpt>
      <trkpt lat="48.44286" lon="2.66937">
        <ele>138.09</ele>
        <time>2011-10-02T11:29:05Z</time>
      </trkpt>
      <trkpt lat="48.44288" lon="2.66936">
        <ele>138.09</ele>
        <time>2011-10-02T11:29:06Z</time>
      </trkpt>
      <trkpt lat="48.44289" lon="2.66935">
        <ele>138.09</ele>
        <time>2011-10-02T11:29:07Z</time>
      </trkpt>
      <trkpt lat="48.44291" lon="2.66934">
        <ele>138.09</ele>
        <time>2011-10-02T11:29:08Z</time>
      </trkpt>
      <trkpt lat="48.44315" lon="2.66947">
        <ele>138.57</ele>
        <time>2011-10-02T11:29:21Z</time>
      </trkpt>
      <trkpt lat="48.44341" lon="2.66958">
        <ele>139.05</ele>
        <time>2011-10-02T11:29:34Z</time>
      </trkpt>
      <trkpt lat="48.44371" lon="2.66984">
        <ele>138.57</ele>
        <time>2011-10-02T11:29:47Z</time>
      </trkpt>
      <trkpt lat="48.44378" lon="2.66994">
        <ele>139.05</ele>
        <time>2011-10-02T11:29:59Z</time>
      </trkpt>
      <trkpt lat="48.44383" lon="2.66989">
        <ele>139.05</ele>
        <time>2011-10-02T11:30:21Z</time>
      </trkpt>
      <trkpt lat="48.44385" lon="2.6699">
        <ele>139.05</ele>
        <time>2011-10-02T11:30:22Z</time>
      </trkpt>
      <trkpt lat="48.44387" lon="2.6699">
        <ele>139.05</ele>
        <time>2011-10-02T11:30:23Z</time>
      </trkpt>
      <trkpt lat="48.44389" lon="2.6699">
        <ele>139.53</ele>
        <time>2011-10-02T11:30:24Z</time>
      </trkpt>
      <trkpt lat="48.4439" lon="2.6699">
        <ele>139.05</ele>
        <time>2011-10-02T11:30:25Z</time>
      </trkpt>
      <trkpt lat="48.44407" lon="2.66979">
        <ele>139.05</ele>
        <time>2011-10-02T11:30:38Z</time>
      </trkpt>
      <trkpt lat="48.44406" lon="2.66977">
        <ele>139.53</ele>
        <time>2011-10-02T11:30:39Z</time>
      </trkpt>
      <trkpt lat="48.44405" lon="2.66975">
        <ele>139.05</ele>
        <time>2011-10-02T11:30:40Z</time>
      </trkpt>
      <trkpt lat="48.444" lon="2.66955">
        <ele>139.05</ele>
        <time>2011-10-02T11:30:47Z</time>
      </trkpt>
      <trkpt lat="48.44401" lon="2.66952">
        <ele>139.05</ele>
        <time>2011-10-02T11:30:48Z</time>
      </trkpt>
      <trkpt lat="48.44402" lon="2.66949">
        <ele>139.05</ele>
        <time>2011-10-02T11:30:49Z</time>
      </trkpt>
      <trkpt lat="48.44405" lon="2.66946">
        <ele>139.53</ele>
        <time>2011-10-02T11:30:50Z</time>
      </trkpt>
      <trkpt lat="48.44408" lon="2.66945">
        <ele>139.05</ele>
        <time>2011-10-02T11:30:51Z</time>
      </trkpt>
      <trkpt lat="48.44411" lon="2.66943">
        <ele>139.05</ele>
        <time>2011-10-02T11:30:52Z</time>
      </trkpt>
      <trkpt lat="48.44413" lon="2.66943">
        <ele>139.53</ele>
        <time>2011-10-02T11:30:53Z</time>
      </trkpt>
      <trkpt lat="48.44416" lon="2.66944">
        <ele>139.53</ele>
        <time>2011-10-02T11:30:54Z</time>
      </trkpt>
      <trkpt lat="48.44419" lon="2.66945">
        <ele>139.05</ele>
        <time>2011-10-02T11:30:55Z</time>
      </trkpt>
      <trkpt lat="48.44421" lon="2.66946">
        <ele>139.05</ele>
        <time>2011-10-02T11:30:56Z</time>
      </trkpt>
      <trkpt lat="48.44463" lon="2.66955">
        <ele>139.53</ele>
        <time>2011-10-02T11:31:14Z</time>
      </trkpt>
      <trkpt lat="48.445" lon="2.66962">
        <ele>139.53</ele>
        <time>2011-10-02T11:31:28Z</time>
      </trkpt>
      <trkpt lat="48.44561" lon="2.66973">
        <ele>139.53</ele>
        <time>2011-10-02T11:31:44Z</time>
      </trkpt>
      <trkpt lat="48.44619" lon="2.66986">
        <ele>139.53</ele>
        <time>2011-10-02T11:32:00Z</time>
      </trkpt>
      <trkpt lat="48.44682" lon="2.66998">
        <ele>139.53</ele>
        <time>2011-10-02T11:32:17Z</time>
      </trkpt>
      <trkpt lat="48.44731" lon="2.67006">
        <ele>140.49</ele>
        <time>2011-10-02T11:32:31Z</time>
      </trkpt>
      <trkpt lat="48.44738" lon="2.67007">
        <ele>136.16</ele>
        <time>2011-10-02T11:32:33Z</time>
      </trkpt>
      <trkpt lat="48.44741" lon="2.67008">
        <ele>141.45</ele>
        <time>2011-10-02T11:32:34Z</time>
      </trkpt>
      <trkpt lat="48.44789" lon="2.67017">
        <ele>139.05</ele>
        <time>2011-10-02T11:32:49Z</time>
      </trkpt>
      <trkpt lat="48.44831" lon="2.67023">
        <ele>140.01</ele>
        <time>2011-10-02T11:33:03Z</time>
      </trkpt>
      <trkpt lat="48.44886" lon="2.67033">
        <ele>138.57</ele>
        <time>2011-10-02T11:33:20Z</time>
      </trkpt>
      <trkpt lat="48.44928" lon="2.67041">
        <ele>138.09</ele>
        <time>2011-10-02T11:33:34Z</time>
      </trkpt>
      <trkpt lat="48.44985" lon="2.67054">
        <ele>136.64</ele>
        <time>2011-10-02T11:33:48Z</time>
      </trkpt>
      <trkpt lat="48.45061" lon="2.67072">
        <ele>136.16</ele>
        <time>2011-10-02T11:34:01Z</time>
      </trkpt>
      <trkpt lat="48.45148" lon="2.67085">
        <ele>135.2</ele>
        <time>2011-10-02T11:34:14Z</time>
      </trkpt>
      <trkpt lat="48.45234" lon="2.671">
        <ele>132.8</ele>
        <time>2011-10-02T11:34:26Z</time>
      </trkpt>
      <trkpt lat="48.45299" lon="2.67117">
        <ele>130.4</ele>
        <time>2011-10-02T11:34:38Z</time>
      </trkpt>
      <trkpt lat="48.453" lon="2.67118">
        <ele>130.88</ele>
        <time>2011-10-02T11:34:39Z</time>
      </trkpt>
      <trkpt lat="48.453" lon="2.67119">
        <ele>131.36</ele>
        <time>2011-10-02T11:35:00Z</time>
      </trkpt>
      <trkpt lat="48.453" lon="2.6712">
        <ele>131.84</ele>
        <time>2011-10-02T11:35:27Z</time>
      </trkpt>
      <trkpt lat="48.453" lon="2.6712">
        <ele>130.88</ele>
        <time>2011-10-02T11:35:41Z</time>
      </trkpt>
      <trkpt lat="48.45303" lon="2.6712">
        <ele>130.88</ele>
        <time>2011-10-02T11:35:42Z</time>
      </trkpt>
      <trkpt lat="48.45305" lon="2.67121">
        <ele>130.88</ele>
        <time>2011-10-02T11:35:43Z</time>
      </trkpt>
      <trkpt lat="48.45307" lon="2.67121">
        <ele>130.4</ele>
        <time>2011-10-02T11:35:44Z</time>
      </trkpt>
      <trkpt lat="48.45308" lon="2.67121">
        <ele>130.88</ele>
        <time>2011-10-02T11:35:45Z</time>
      </trkpt>
      <trkpt lat="48.45333" lon="2.67115">
        <ele>128.95</ele>
        <time>2011-10-02T11:35:57Z</time>
      </trkpt>
      <trkpt lat="48.45358" lon="2.67119">
        <ele>124.63</ele>
        <time>2011-10-02T11:36:01Z</time>
      </trkpt>
      <trkpt lat="48.45384" lon="2.67123">
        <ele>120.3</ele>
        <time>2011-10-02T11:36:04Z</time>
      </trkpt>
      <trkpt lat="48.45417" lon="2.67127">
        <ele>116.94</ele>
        <time>2011-10-02T11:36:07Z</time>
      </trkpt>
      <trkpt lat="48.45453" lon="2.67127">
        <ele>112.61</ele>
        <time>2011-10-02T11:36:10Z</time>
      </trkpt>
      <trkpt lat="48.45478" lon="2.67125">
        <ele>107.81</ele>
        <time>2011-10-02T11:36:12Z</time>
      </trkpt>
      <trkpt lat="48.45522" lon="2.67114">
        <ele>103</ele>
        <time>2011-10-02T11:36:15Z</time>
      </trkpt>
      <trkpt lat="48.45566" lon="2.67097">
        <ele>99.63</ele>
        <time>2011-10-02T11:36:18Z</time>
      </trkpt>
      <trkpt lat="48.4558" lon="2.67091">
        <ele>99.15</ele>
        <time>2011-10-02T11:36:19Z</time>
      </trkpt>
      <trkpt lat="48.45622" lon="2.67069">
        <ele>96.75</ele>
        <time>2011-10-02T11:36:22Z</time>
      </trkpt>
      <trkpt lat="48.45661" lon="2.67048">
        <ele>95.31</ele>
        <time>2011-10-02T11:36:25Z</time>
      </trkpt>
      <trkpt lat="48.4578" lon="2.66984">
        <ele>94.35</ele>
        <time>2011-10-02T11:36:36Z</time>
      </trkpt>
      <trkpt lat="48.45901" lon="2.66917">
        <ele>91.46</ele>
        <time>2011-10-02T11:36:49Z</time>
      </trkpt>
      <trkpt lat="48.45976" lon="2.66878">
        <ele>89.06</ele>
        <time>2011-10-02T11:36:57Z</time>
      </trkpt>
      <trkpt lat="48.46082" lon="2.66834">
        <ele>87.14</ele>
        <time>2011-10-02T11:37:09Z</time>
      </trkpt>
      <trkpt lat="48.46198" lon="2.66793">
        <ele>85.69</ele>
        <time>2011-10-02T11:37:23Z</time>
      </trkpt>
      <trkpt lat="48.46317" lon="2.66781">
        <ele>84.73</ele>
        <time>2011-10-02T11:37:38Z</time>
      </trkpt>
      <trkpt lat="48.46396" lon="2.66778">
        <ele>84.73</ele>
        <time>2011-10-02T11:37:50Z</time>
      </trkpt>
      <trkpt lat="48.46408" lon="2.66778">
        <ele>84.73</ele>
        <time>2011-10-02T11:37:52Z</time>
      </trkpt>
      <trkpt lat="48.46452" lon="2.66773">
        <ele>83.77</ele>
        <time>2011-10-02T11:37:59Z</time>
      </trkpt>
      <trkpt lat="48.46514" lon="2.66772">
        <ele>83.29</ele>
        <time>2011-10-02T11:38:09Z</time>
      </trkpt>
      <trkpt lat="48.46594" lon="2.6677">
        <ele>83.77</ele>
        <time>2011-10-02T11:38:22Z</time>
      </trkpt>
      <trkpt lat="48.4663" lon="2.6677">
        <ele>83.29</ele>
        <time>2011-10-02T11:38:28Z</time>
      </trkpt>
      <trkpt lat="48.46637" lon="2.66771">
        <ele>82.81</ele>
        <time>2011-10-02T11:38:29Z</time>
      </trkpt>
      <trkpt lat="48.46714" lon="2.66768">
        <ele>82.81</ele>
        <time>2011-10-02T11:38:41Z</time>
      </trkpt>
      <trkpt lat="48.46779" lon="2.66768">
        <ele>82.81</ele>
        <time>2011-10-02T11:38:52Z</time>
      </trkpt>
      <trkpt lat="48.46854" lon="2.66763">
        <ele>82.81</ele>
        <time>2011-10-02T11:39:03Z</time>
      </trkpt>
      <trkpt lat="48.46905" lon="2.6676">
        <ele>83.77</ele>
        <time>2011-10-02T11:39:14Z</time>
      </trkpt>
      <trkpt lat="48.46909" lon="2.66759">
        <ele>83.29</ele>
        <time>2011-10-02T11:39:15Z</time>
      </trkpt>
      <trkpt lat="48.4694" lon="2.66759">
        <ele>83.77</ele>
        <time>2011-10-02T11:39:24Z</time>
      </trkpt>
      <trkpt lat="48.46971" lon="2.66758">
        <ele>83.77</ele>
        <time>2011-10-02T11:39:32Z</time>
      </trkpt>
      <trkpt lat="48.47015" lon="2.66762">
        <ele>83.29</ele>
        <time>2011-10-02T11:39:43Z</time>
      </trkpt>
      <trkpt lat="48.47062" lon="2.66757">
        <ele>82.81</ele>
        <time>2011-10-02T11:39:53Z</time>
      </trkpt>
      <trkpt lat="48.47067" lon="2.66756">
        <ele>83.77</ele>
        <time>2011-10-02T11:39:54Z</time>
      </trkpt>
      <trkpt lat="48.47112" lon="2.66753">
        <ele>83.29</ele>
        <time>2011-10-02T11:40:03Z</time>
      </trkpt>
      <trkpt lat="48.4719" lon="2.66748">
        <ele>83.77</ele>
        <time>2011-10-02T11:40:19Z</time>
      </trkpt>
      <trkpt lat="48.47267" lon="2.66741">
        <ele>83.77</ele>
        <time>2011-10-02T11:40:34Z</time>
      </trkpt>
      <trkpt lat="48.47342" lon="2.66737">
        <ele>84.73</ele>
        <time>2011-10-02T11:40:50Z</time>
      </trkpt>
      <trkpt lat="48.47398" lon="2.66734">
        <ele>84.25</ele>
        <time>2011-10-02T11:41:02Z</time>
      </trkpt>
      <trkpt lat="48.47476" lon="2.66731">
        <ele>84.25</ele>
        <time>2011-10-02T11:41:19Z</time>
      </trkpt>
      <trkpt lat="48.47526" lon="2.66726">
        <ele>84.25</ele>
        <time>2011-10-02T11:41:30Z</time>
      </trkpt>
      <trkpt lat="48.4753" lon="2.66726">
        <ele>84.73</ele>
        <time>2011-10-02T11:41:31Z</time>
      </trkpt>
      <trkpt lat="48.47555" lon="2.66727">
        <ele>84.73</ele>
        <time>2011-10-02T11:41:40Z</time>
      </trkpt>
      <trkpt lat="48.47555" lon="2.66727">
        <ele>85.69</ele>
        <time>2011-10-02T11:42:06Z</time>
      </trkpt>
      <trkpt lat="48.47558" lon="2.66724">
        <ele>84.73</ele>
        <time>2011-10-02T11:42:36Z</time>
      </trkpt>
      <trkpt lat="48.4756" lon="2.66722">
        <ele>85.21</ele>
        <time>2011-10-02T11:42:51Z</time>
      </trkpt>
      <trkpt lat="48.4757" lon="2.66721">
        <ele>85.69</ele>
        <time>2011-10-02T11:43:15Z</time>
      </trkpt>
      <trkpt lat="48.47602" lon="2.66718">
        <ele>85.21</ele>
        <time>2011-10-02T11:43:29Z</time>
      </trkpt>
      <trkpt lat="48.4765" lon="2.66722">
        <ele>85.69</ele>
        <time>2011-10-02T11:43:39Z</time>
      </trkpt>
      <trkpt lat="48.47729" lon="2.66718">
        <ele>86.66</ele>
        <time>2011-10-02T11:43:52Z</time>
      </trkpt>
      <trkpt lat="48.47792" lon="2.66713">
        <ele>87.62</ele>
        <time>2011-10-02T11:44:04Z</time>
      </trkpt>
      <trkpt lat="48.47797" lon="2.66713">
        <ele>88.1</ele>
        <time>2011-10-02T11:44:05Z</time>
      </trkpt>
      <trkpt lat="48.47803" lon="2.66713">
        <ele>87.62</ele>
        <time>2011-10-02T11:44:06Z</time>
      </trkpt>
      <trkpt lat="48.47808" lon="2.66714">
        <ele>88.1</ele>
        <time>2011-10-02T11:44:07Z</time>
      </trkpt>
      <trkpt lat="48.47858" lon="2.66712">
        <ele>89.06</ele>
        <time>2011-10-02T11:44:18Z</time>
      </trkpt>
      <trkpt lat="48.47902" lon="2.6671">
        <ele>90.5</ele>
        <time>2011-10-02T11:44:29Z</time>
      </trkpt>
      <trkpt lat="48.47953" lon="2.66708">
        <ele>91.94</ele>
        <time>2011-10-02T11:44:42Z</time>
      </trkpt>
      <trkpt lat="48.47994" lon="2.66706">
        <ele>93.39</ele>
        <time>2011-10-02T11:44:54Z</time>
      </trkpt>
      <trkpt lat="48.48032" lon="2.66705">
        <ele>94.83</ele>
        <time>2011-10-02T11:45:06Z</time>
      </trkpt>
      <trkpt lat="48.48075" lon="2.667">
        <ele>95.79</ele>
        <time>2011-10-02T11:45:20Z</time>
      </trkpt>
      <trkpt lat="48.48087" lon="2.66725">
        <ele>95.79</ele>
        <time>2011-10-02T11:45:31Z</time>
      </trkpt>
      <trkpt lat="48.48088" lon="2.66726">
        <ele>91.46</ele>
        <time>2011-10-02T11:45:34Z</time>
      </trkpt>
      <trkpt lat="48.48088" lon="2.66726">
        <ele>96.75</ele>
        <time>2011-10-02T11:45:35Z</time>
      </trkpt>
      <trkpt lat="48.48088" lon="2.66726">
        <ele>95.79</ele>
        <time>2011-10-02T11:46:05Z</time>
      </trkpt>
      <trkpt lat="48.48093" lon="2.66763">
        <ele>94.35</ele>
        <time>2011-10-02T11:46:16Z</time>
      </trkpt>
      <trkpt lat="48.48101" lon="2.66813">
        <ele>92.9</ele>
        <time>2011-10-02T11:46:24Z</time>
      </trkpt>
      <trkpt lat="48.48103" lon="2.6682">
        <ele>92.9</ele>
        <time>2011-10-02T11:46:25Z</time>
      </trkpt>
      <trkpt lat="48.48111" lon="2.669">
        <ele>91.94</ele>
        <time>2011-10-02T11:46:37Z</time>
      </trkpt>
      <trkpt lat="48.48112" lon="2.6691">
        <ele>91.94</ele>
        <time>2011-10-02T11:46:44Z</time>
      </trkpt>
      <trkpt lat="48.48111" lon="2.66911">
        <ele>91.94</ele>
        <time>2011-10-02T11:46:45Z</time>
      </trkpt>
      <trkpt lat="48.48109" lon="2.66913">
        <ele>92.42</ele>
        <time>2011-10-02T11:46:46Z</time>
      </trkpt>
      <trkpt lat="48.48107" lon="2.66915">
        <ele>91.94</ele>
        <time>2011-10-02T11:46:47Z</time>
      </trkpt>
      <trkpt lat="48.48106" lon="2.66917">
        <ele>91.94</ele>
        <time>2011-10-02T11:47:01Z</time>
      </trkpt>
      <trkpt lat="48.48106" lon="2.66921">
        <ele>91.94</ele>
        <time>2011-10-02T11:47:09Z</time>
      </trkpt>
      <trkpt lat="48.48106" lon="2.66924">
        <ele>91.46</ele>
        <time>2011-10-02T11:47:10Z</time>
      </trkpt>
      <trkpt lat="48.48106" lon="2.66926">
        <ele>91.94</ele>
        <time>2011-10-02T11:47:11Z</time>
      </trkpt>
      <trkpt lat="48.48108" lon="2.66929">
        <ele>91.94</ele>
        <time>2011-10-02T11:47:12Z</time>
      </trkpt>
      <trkpt lat="48.48109" lon="2.66932">
        <ele>91.46</ele>
        <time>2011-10-02T11:47:13Z</time>
      </trkpt>
      <trkpt lat="48.48127" lon="2.66977">
        <ele>89.06</ele>
        <time>2011-10-02T11:47:23Z</time>
      </trkpt>
      <trkpt lat="48.48149" lon="2.67098">
        <ele>86.18</ele>
        <time>2011-10-02T11:47:38Z</time>
      </trkpt>
      <trkpt lat="48.48176" lon="2.67238">
        <ele>83.77</ele>
        <time>2011-10-02T11:47:54Z</time>
      </trkpt>
      <trkpt lat="48.48196" lon="2.67342">
        <ele>83.77</ele>
        <time>2011-10-02T11:48:07Z</time>
      </trkpt>
      <trkpt lat="48.48199" lon="2.67357">
        <ele>83.29</ele>
        <time>2011-10-02T11:48:09Z</time>
      </trkpt>
      <trkpt lat="48.482" lon="2.67364">
        <ele>83.29</ele>
        <time>2011-10-02T11:48:10Z</time>
      </trkpt>
      <trkpt lat="48.48212" lon="2.6742">
        <ele>82.33</ele>
        <time>2011-10-02T11:48:18Z</time>
      </trkpt>
      <trkpt lat="48.48213" lon="2.67426">
        <ele>82.33</ele>
        <time>2011-10-02T11:48:19Z</time>
      </trkpt>
      <trkpt lat="48.48215" lon="2.67431">
        <ele>82.81</ele>
        <time>2011-10-02T11:48:20Z</time>
      </trkpt>
      <trkpt lat="48.48217" lon="2.67435">
        <ele>82.81</ele>
        <time>2011-10-02T11:48:21Z</time>
      </trkpt>
      <trkpt lat="48.48218" lon="2.67439">
        <ele>83.29</ele>
        <time>2011-10-02T11:48:22Z</time>
      </trkpt>
      <trkpt lat="48.48219" lon="2.67443">
        <ele>83.29</ele>
        <time>2011-10-02T11:48:23Z</time>
      </trkpt>
      <trkpt lat="48.48222" lon="2.67445">
        <ele>83.29</ele>
        <time>2011-10-02T11:48:24Z</time>
      </trkpt>
      <trkpt lat="48.48224" lon="2.67444">
        <ele>83.29</ele>
        <time>2011-10-02T11:48:25Z</time>
      </trkpt>
      <trkpt lat="48.48226" lon="2.67442">
        <ele>83.29</ele>
        <time>2011-10-02T11:48:26Z</time>
      </trkpt>
      <trkpt lat="48.48228" lon="2.67439">
        <ele>83.29</ele>
        <time>2011-10-02T11:48:27Z</time>
      </trkpt>
      <trkpt lat="48.4823" lon="2.67436">
        <ele>83.29</ele>
        <time>2011-10-02T11:48:28Z</time>
      </trkpt>
      <trkpt lat="48.48232" lon="2.67432">
        <ele>83.29</ele>
        <time>2011-10-02T11:48:29Z</time>
      </trkpt>
      <trkpt lat="48.48261" lon="2.67383">
        <ele>83.29</ele>
        <time>2011-10-02T11:48:41Z</time>
      </trkpt>
      <trkpt lat="48.48296" lon="2.67322">
        <ele>83.77</ele>
        <time>2011-10-02T11:48:55Z</time>
      </trkpt>
      <trkpt lat="48.48317" lon="2.67289">
        <ele>83.77</ele>
        <time>2011-10-02T11:49:06Z</time>
      </trkpt>
      <trkpt lat="48.48344" lon="2.67255">
        <ele>84.73</ele>
        <time>2011-10-02T11:49:19Z</time>
      </trkpt>
      <trkpt lat="48.48373" lon="2.67231">
        <ele>85.69</ele>
        <time>2011-10-02T11:49:32Z</time>
      </trkpt>
      <trkpt lat="48.48379" lon="2.67223">
        <ele>85.21</ele>
        <time>2011-10-02T11:49:38Z</time>
      </trkpt>
      <trkpt lat="48.48407" lon="2.67198">
        <ele>86.18</ele>
        <time>2011-10-02T11:49:51Z</time>
      </trkpt>
      <trkpt lat="48.4844" lon="2.6717">
        <ele>86.66</ele>
        <time>2011-10-02T11:50:06Z</time>
      </trkpt>
      <trkpt lat="48.4847" lon="2.67152">
        <ele>87.62</ele>
        <time>2011-10-02T11:50:19Z</time>
      </trkpt>
      <trkpt lat="48.485" lon="2.67128">
        <ele>88.58</ele>
        <time>2011-10-02T11:50:36Z</time>
      </trkpt>
      <trkpt lat="48.48521" lon="2.67114">
        <ele>90.98</ele>
        <time>2011-10-02T11:50:50Z</time>
      </trkpt>
      <trkpt lat="48.48526" lon="2.67108">
        <ele>91.94</ele>
        <time>2011-10-02T11:50:55Z</time>
      </trkpt>
      <trkpt lat="48.48544" lon="2.67094">
        <ele>93.39</ele>
        <time>2011-10-02T11:51:08Z</time>
      </trkpt>
      <trkpt lat="48.48551" lon="2.67085">
        <ele>94.35</ele>
        <time>2011-10-02T11:51:14Z</time>
      </trkpt>
      <trkpt lat="48.48552" lon="2.67084">
        <ele>94.35</ele>
        <time>2011-10-02T11:51:15Z</time>
      </trkpt>
      <trkpt lat="48.4857" lon="2.67066">
        <ele>95.31</ele>
        <time>2011-10-02T11:51:28Z</time>
      </trkpt>
      <trkpt lat="48.48589" lon="2.67046">
        <ele>96.75</ele>
        <time>2011-10-02T11:51:42Z</time>
      </trkpt>
      <trkpt lat="48.48597" lon="2.67039">
        <ele>96.75</ele>
        <time>2011-10-02T11:51:48Z</time>
      </trkpt>
      <trkpt lat="48.48617" lon="2.67022">
        <ele>97.71</ele>
        <time>2011-10-02T11:52:01Z</time>
      </trkpt>
      <trkpt lat="48.48639" lon="2.67005">
        <ele>97.71</ele>
        <time>2011-10-02T11:52:14Z</time>
      </trkpt>
      <trkpt lat="48.4866" lon="2.66986">
        <ele>98.19</ele>
        <time>2011-10-02T11:52:26Z</time>
      </trkpt>
      <trkpt lat="48.48688" lon="2.66965">
        <ele>97.71</ele>
        <time>2011-10-02T11:52:41Z</time>
      </trkpt>
      <trkpt lat="48.48725" lon="2.66936">
        <ele>96.75</ele>
        <time>2011-10-02T11:52:53Z</time>
      </trkpt>
      <trkpt lat="48.48772" lon="2.66896">
        <ele>96.27</ele>
        <time>2011-10-02T11:53:07Z</time>
      </trkpt>
      <trkpt lat="48.4883" lon="2.66847">
        <ele>95.79</ele>
        <time>2011-10-02T11:53:23Z</time>
      </trkpt>
      <trkpt lat="48.48877" lon="2.66808">
        <ele>95.31</ele>
        <time>2011-10-02T11:53:37Z</time>
      </trkpt>
      <trkpt lat="48.48926" lon="2.66773">
        <ele>94.83</ele>
        <time>2011-10-02T11:53:51Z</time>
      </trkpt>
      <trkpt lat="48.48973" lon="2.66731">
        <ele>94.83</ele>
        <time>2011-10-02T11:54:06Z</time>
      </trkpt>
      <trkpt lat="48.4902" lon="2.66689">
        <ele>93.39</ele>
        <time>2011-10-02T11:54:20Z</time>
      </trkpt>
      <trkpt lat="48.4907" lon="2.66647">
        <ele>92.9</ele>
        <time>2011-10-02T11:54:33Z</time>
      </trkpt>
      <trkpt lat="48.4912" lon="2.66607">
        <ele>93.39</ele>
        <time>2011-10-02T11:54:48Z</time>
      </trkpt>
      <trkpt lat="48.49172" lon="2.66569">
        <ele>91.94</ele>
        <time>2011-10-02T11:55:02Z</time>
      </trkpt>
      <trkpt lat="48.49222" lon="2.66556">
        <ele>91.46</ele>
        <time>2011-10-02T11:55:14Z</time>
      </trkpt>
      <trkpt lat="48.49267" lon="2.66543">
        <ele>88.1</ele>
        <time>2011-10-02T11:55:26Z</time>
      </trkpt>
      <trkpt lat="48.49336" lon="2.66522">
        <ele>89.54</ele>
        <time>2011-10-02T11:55:38Z</time>
      </trkpt>
      <trkpt lat="48.49392" lon="2.66501">
        <ele>90.02</ele>
        <time>2011-10-02T11:55:53Z</time>
      </trkpt>
      <trkpt lat="48.49448" lon="2.66483">
        <ele>91.94</ele>
        <time>2011-10-02T11:56:09Z</time>
      </trkpt>
      <trkpt lat="48.49508" lon="2.66464">
        <ele>91.94</ele>
        <time>2011-10-02T11:56:26Z</time>
      </trkpt>
      <trkpt lat="48.49563" lon="2.66449">
        <ele>91.46</ele>
        <time>2011-10-02T11:56:40Z</time>
      </trkpt>
      <trkpt lat="48.49634" lon="2.66425">
        <ele>91.94</ele>
        <time>2011-10-02T11:56:58Z</time>
      </trkpt>
      <trkpt lat="48.49699" lon="2.66404">
        <ele>92.42</ele>
        <time>2011-10-02T11:57:15Z</time>
      </trkpt>
      <trkpt lat="48.49748" lon="2.66386">
        <ele>92.9</ele>
        <time>2011-10-02T11:57:28Z</time>
      </trkpt>
      <trkpt lat="48.49796" lon="2.66372">
        <ele>93.39</ele>
        <time>2011-10-02T11:57:42Z</time>
      </trkpt>
      <trkpt lat="48.49854" lon="2.66355">
        <ele>92.9</ele>
        <time>2011-10-02T11:57:58Z</time>
      </trkpt>
      <trkpt lat="48.49907" lon="2.66338">
        <ele>93.39</ele>
        <time>2011-10-02T11:58:13Z</time>
      </trkpt>
      <trkpt lat="48.4991" lon="2.66337">
        <ele>93.87</ele>
        <time>2011-10-02T11:58:24Z</time>
      </trkpt>
      <trkpt lat="48.49911" lon="2.66338">
        <ele>93.39</ele>
        <time>2011-10-02T11:58:58Z</time>
      </trkpt>
      <trkpt lat="48.49913" lon="2.66338">
        <ele>93.39</ele>
        <time>2011-10-02T11:59:00Z</time>
      </trkpt>
      <trkpt lat="48.49915" lon="2.66338">
        <ele>93.39</ele>
        <time>2011-10-02T11:59:01Z</time>
      </trkpt>
      <trkpt lat="48.49917" lon="2.66338">
        <ele>93.39</ele>
        <time>2011-10-02T11:59:02Z</time>
      </trkpt>
      <trkpt lat="48.49918" lon="2.66337">
        <ele>93.39</ele>
        <time>2011-10-02T11:59:03Z</time>
      </trkpt>
      <trkpt lat="48.49921" lon="2.66336">
        <ele>93.39</ele>
        <time>2011-10-02T11:59:04Z</time>
      </trkpt>
      <trkpt lat="48.49974" lon="2.6632">
        <ele>93.39</ele>
        <time>2011-10-02T11:59:19Z</time>
      </trkpt>
      <trkpt lat="48.50031" lon="2.66305">
        <ele>93.39</ele>
        <time>2011-10-02T11:59:34Z</time>
      </trkpt>
      <trkpt lat="48.50081" lon="2.66287">
        <ele>93.39</ele>
        <time>2011-10-02T11:59:47Z</time>
      </trkpt>
      <trkpt lat="48.50133" lon="2.66271">
        <ele>93.87</ele>
        <time>2011-10-02T12:00:00Z</time>
      </trkpt>
      <trkpt lat="48.50186" lon="2.66251">
        <ele>93.87</ele>
        <time>2011-10-02T12:00:14Z</time>
      </trkpt>
      <trkpt lat="48.5022" lon="2.66244">
        <ele>93.87</ele>
        <time>2011-10-02T12:00:27Z</time>
      </trkpt>
      <trkpt lat="48.50253" lon="2.66235">
        <ele>93.87</ele>
        <time>2011-10-02T12:00:40Z</time>
      </trkpt>
      <trkpt lat="48.50299" lon="2.66242">
        <ele>93.39</ele>
        <time>2011-10-02T12:00:54Z</time>
      </trkpt>
      <trkpt lat="48.50331" lon="2.66284">
        <ele>93.39</ele>
        <time>2011-10-02T12:01:05Z</time>
      </trkpt>
      <trkpt lat="48.50357" lon="2.66311">
        <ele>93.39</ele>
        <time>2011-10-02T12:01:16Z</time>
      </trkpt>
      <trkpt lat="48.5039" lon="2.66333">
        <ele>92.9</ele>
        <time>2011-10-02T12:01:27Z</time>
      </trkpt>
      <trkpt lat="48.50444" lon="2.66303">
        <ele>91.46</ele>
        <time>2011-10-02T12:01:39Z</time>
      </trkpt>
      <trkpt lat="48.50518" lon="2.66253">
        <ele>89.54</ele>
        <time>2011-10-02T12:01:55Z</time>
      </trkpt>
      <trkpt lat="48.50537" lon="2.66237">
        <ele>89.06</ele>
        <time>2011-10-02T12:01:59Z</time>
      </trkpt>
      <trkpt lat="48.50555" lon="2.66221">
        <ele>88.58</ele>
        <time>2011-10-02T12:02:03Z</time>
      </trkpt>
      <trkpt lat="48.50559" lon="2.66217">
        <ele>88.1</ele>
        <time>2011-10-02T12:02:04Z</time>
      </trkpt>
      <trkpt lat="48.50582" lon="2.66195">
        <ele>87.14</ele>
        <time>2011-10-02T12:02:09Z</time>
      </trkpt>
      <trkpt lat="48.50586" lon="2.66191">
        <ele>87.14</ele>
        <time>2011-10-02T12:02:10Z</time>
      </trkpt>
      <trkpt lat="48.50598" lon="2.66178">
        <ele>87.62</ele>
        <time>2011-10-02T12:02:13Z</time>
      </trkpt>
      <trkpt lat="48.50603" lon="2.66174">
        <ele>87.14</ele>
        <time>2011-10-02T12:02:14Z</time>
      </trkpt>
      <trkpt lat="48.50607" lon="2.6617">
        <ele>87.14</ele>
        <time>2011-10-02T12:02:15Z</time>
      </trkpt>
      <trkpt lat="48.5061" lon="2.66165">
        <ele>87.62</ele>
        <time>2011-10-02T12:02:16Z</time>
      </trkpt>
      <trkpt lat="48.50614" lon="2.6616">
        <ele>87.62</ele>
        <time>2011-10-02T12:02:17Z</time>
      </trkpt>
      <trkpt lat="48.50617" lon="2.66156">
        <ele>87.14</ele>
        <time>2011-10-02T12:02:18Z</time>
      </trkpt>
      <trkpt lat="48.50621" lon="2.66151">
        <ele>87.62</ele>
        <time>2011-10-02T12:02:19Z</time>
      </trkpt>
      <trkpt lat="48.50624" lon="2.66146">
        <ele>87.62</ele>
        <time>2011-10-02T12:02:20Z</time>
      </trkpt>
      <trkpt lat="48.50663" lon="2.66131">
        <ele>87.14</ele>
        <time>2011-10-02T12:02:31Z</time>
      </trkpt>
      <trkpt lat="48.50714" lon="2.66187">
        <ele>84.73</ele>
        <time>2011-10-02T12:02:46Z</time>
      </trkpt>
      <trkpt lat="48.50752" lon="2.66235">
        <ele>82.81</ele>
        <time>2011-10-02T12:02:55Z</time>
      </trkpt>
      <trkpt lat="48.50758" lon="2.66238">
        <ele>81.85</ele>
        <time>2011-10-02T12:02:56Z</time>
      </trkpt>
      <trkpt lat="48.50771" lon="2.66243">
        <ele>80.89</ele>
        <time>2011-10-02T12:02:58Z</time>
      </trkpt>
      <trkpt lat="48.50821" lon="2.66275">
        <ele>77.52</ele>
        <time>2011-10-02T12:03:05Z</time>
      </trkpt>
      <trkpt lat="48.50877" lon="2.66312">
        <ele>76.08</ele>
        <time>2011-10-02T12:03:14Z</time>
      </trkpt>
      <trkpt lat="48.50882" lon="2.66314">
        <ele>76.08</ele>
        <time>2011-10-02T12:03:15Z</time>
      </trkpt>
      <trkpt lat="48.50885" lon="2.66317">
        <ele>75.12</ele>
        <time>2011-10-02T12:03:16Z</time>
      </trkpt>
      <trkpt lat="48.50901" lon="2.66319">
        <ele>75.6</ele>
        <time>2011-10-02T12:03:21Z</time>
      </trkpt>
      <trkpt lat="48.50903" lon="2.66316">
        <ele>75.6</ele>
        <time>2011-10-02T12:03:34Z</time>
      </trkpt>
      <trkpt lat="48.50902" lon="2.66313">
        <ele>75.6</ele>
        <time>2011-10-02T12:03:42Z</time>
      </trkpt>
      <trkpt lat="48.50903" lon="2.66309">
        <ele>75.6</ele>
        <time>2011-10-02T12:03:44Z</time>
      </trkpt>
      <trkpt lat="48.50905" lon="2.66307">
        <ele>76.08</ele>
        <time>2011-10-02T12:03:45Z</time>
      </trkpt>
      <trkpt lat="48.50906" lon="2.66305">
        <ele>76.08</ele>
        <time>2011-10-02T12:03:46Z</time>
      </trkpt>
      <trkpt lat="48.50909" lon="2.66297">
        <ele>76.08</ele>
        <time>2011-10-02T12:03:49Z</time>
      </trkpt>
      <trkpt lat="48.50911" lon="2.66294">
        <ele>76.08</ele>
        <time>2011-10-02T12:03:50Z</time>
      </trkpt>
      <trkpt lat="48.50936" lon="2.66235">
        <ele>74.16</ele>
        <time>2011-10-02T12:04:04Z</time>
      </trkpt>
      <trkpt lat="48.50967" lon="2.66202">
        <ele>73.2</ele>
        <time>2011-10-02T12:04:15Z</time>
      </trkpt>
      <trkpt lat="48.50984" lon="2.6619">
        <ele>73.2</ele>
        <time>2011-10-02T12:04:20Z</time>
      </trkpt>
      <trkpt lat="48.50988" lon="2.66191">
        <ele>72.72</ele>
        <time>2011-10-02T12:04:21Z</time>
      </trkpt>
      <trkpt lat="48.50991" lon="2.66191">
        <ele>72.72</ele>
        <time>2011-10-02T12:04:22Z</time>
      </trkpt>
      <trkpt lat="48.50995" lon="2.66192">
        <ele>72.24</ele>
        <time>2011-10-02T12:04:23Z</time>
      </trkpt>
      <trkpt lat="48.50999" lon="2.66192">
        <ele>72.24</ele>
        <time>2011-10-02T12:04:24Z</time>
      </trkpt>
      <trkpt lat="48.51073" lon="2.66189">
        <ele>69.83</ele>
        <time>2011-10-02T12:04:39Z</time>
      </trkpt>
      <trkpt lat="48.51107" lon="2.6618">
        <ele>68.87</ele>
        <time>2011-10-02T12:04:46Z</time>
      </trkpt>
      <trkpt lat="48.51112" lon="2.66179">
        <ele>68.87</ele>
        <time>2011-10-02T12:04:47Z</time>
      </trkpt>
      <trkpt lat="48.51122" lon="2.66178">
        <ele>67.91</ele>
        <time>2011-10-02T12:04:49Z</time>
      </trkpt>
      <trkpt lat="48.51127" lon="2.66178">
        <ele>67.91</ele>
        <time>2011-10-02T12:04:50Z</time>
      </trkpt>
      <trkpt lat="48.51133" lon="2.66178">
        <ele>67.91</ele>
        <time>2011-10-02T12:04:51Z</time>
      </trkpt>
      <trkpt lat="48.51148" lon="2.66179">
        <ele>67.43</ele>
        <time>2011-10-02T12:04:54Z</time>
      </trkpt>
      <trkpt lat="48.51154" lon="2.66181">
        <ele>66.95</ele>
        <time>2011-10-02T12:04:55Z</time>
      </trkpt>
      <trkpt lat="48.51159" lon="2.66181">
        <ele>66.95</ele>
        <time>2011-10-02T12:04:56Z</time>
      </trkpt>
      <trkpt lat="48.51165" lon="2.66181">
        <ele>66.95</ele>
        <time>2011-10-02T12:04:57Z</time>
      </trkpt>
      <trkpt lat="48.5117" lon="2.66181">
        <ele>66.47</ele>
        <time>2011-10-02T12:04:58Z</time>
      </trkpt>
      <trkpt lat="48.51176" lon="2.6618">
        <ele>66.47</ele>
        <time>2011-10-02T12:04:59Z</time>
      </trkpt>
      <trkpt lat="48.51181" lon="2.6618">
        <ele>66.47</ele>
        <time>2011-10-02T12:05:00Z</time>
      </trkpt>
      <trkpt lat="48.51207" lon="2.66178">
        <ele>66.47</ele>
        <time>2011-10-02T12:05:05Z</time>
      </trkpt>
      <trkpt lat="48.51211" lon="2.66177">
        <ele>66.47</ele>
        <time>2011-10-02T12:05:06Z</time>
      </trkpt>
      <trkpt lat="48.51226" lon="2.66174">
        <ele>66.47</ele>
        <time>2011-10-02T12:05:09Z</time>
      </trkpt>
      <trkpt lat="48.51289" lon="2.6617">
        <ele>65.51</ele>
        <time>2011-10-02T12:05:23Z</time>
      </trkpt>
      <trkpt lat="48.51298" lon="2.6617">
        <ele>65.51</ele>
        <time>2011-10-02T12:05:25Z</time>
      </trkpt>
      <trkpt lat="48.51341" lon="2.66168">
        <ele>64.55</ele>
        <time>2011-10-02T12:05:34Z</time>
      </trkpt>
      <trkpt lat="48.51377" lon="2.66166">
        <ele>64.07</ele>
        <time>2011-10-02T12:05:41Z</time>
      </trkpt>
      <trkpt lat="48.51387" lon="2.66167">
        <ele>64.07</ele>
        <time>2011-10-02T12:05:43Z</time>
      </trkpt>
      <trkpt lat="48.51423" lon="2.66163">
        <ele>64.07</ele>
        <time>2011-10-02T12:05:50Z</time>
      </trkpt>
      <trkpt lat="48.51429" lon="2.66163">
        <ele>63.58</ele>
        <time>2011-10-02T12:05:51Z</time>
      </trkpt>
      <trkpt lat="48.51434" lon="2.66163">
        <ele>63.58</ele>
        <time>2011-10-02T12:05:52Z</time>
      </trkpt>
      <trkpt lat="48.51439" lon="2.66162">
        <ele>63.58</ele>
        <time>2011-10-02T12:05:53Z</time>
      </trkpt>
      <trkpt lat="48.51444" lon="2.66162">
        <ele>63.58</ele>
        <time>2011-10-02T12:05:54Z</time>
      </trkpt>
      <trkpt lat="48.51453" lon="2.66161">
        <ele>63.58</ele>
        <time>2011-10-02T12:05:56Z</time>
      </trkpt>
      <trkpt lat="48.51497" lon="2.66162">
        <ele>63.1</ele>
        <time>2011-10-02T12:06:06Z</time>
      </trkpt>
      <trkpt lat="48.51501" lon="2.66163">
        <ele>63.58</ele>
        <time>2011-10-02T12:06:07Z</time>
      </trkpt>
      <trkpt lat="48.51505" lon="2.66161">
        <ele>63.1</ele>
        <time>2011-10-02T12:06:08Z</time>
      </trkpt>
      <trkpt lat="48.51508" lon="2.66157">
        <ele>63.1</ele>
        <time>2011-10-02T12:06:09Z</time>
      </trkpt>
      <trkpt lat="48.51509" lon="2.66152">
        <ele>63.1</ele>
        <time>2011-10-02T12:06:10Z</time>
      </trkpt>
      <trkpt lat="48.5151" lon="2.66147">
        <ele>63.1</ele>
        <time>2011-10-02T12:06:11Z</time>
      </trkpt>
      <trkpt lat="48.51511" lon="2.66144">
        <ele>63.58</ele>
        <time>2011-10-02T12:06:12Z</time>
      </trkpt>
      <trkpt lat="48.51515" lon="2.66131">
        <ele>63.58</ele>
        <time>2011-10-02T12:06:17Z</time>
      </trkpt>
      <trkpt lat="48.51516" lon="2.66129">
        <ele>63.58</ele>
        <time>2011-10-02T12:06:18Z</time>
      </trkpt>
      <trkpt lat="48.51518" lon="2.66127">
        <ele>63.58</ele>
        <time>2011-10-02T12:06:19Z</time>
      </trkpt>
      <trkpt lat="48.5152" lon="2.66125">
        <ele>63.58</ele>
        <time>2011-10-02T12:06:20Z</time>
      </trkpt>
      <trkpt lat="48.51523" lon="2.66123">
        <ele>63.1</ele>
        <time>2011-10-02T12:06:21Z</time>
      </trkpt>
      <trkpt lat="48.51526" lon="2.6612">
        <ele>63.1</ele>
        <time>2011-10-02T12:06:22Z</time>
      </trkpt>
      <trkpt lat="48.51527" lon="2.66116">
        <ele>63.1</ele>
        <time>2011-10-02T12:06:23Z</time>
      </trkpt>
      <trkpt lat="48.5153" lon="2.66113">
        <ele>63.1</ele>
        <time>2011-10-02T12:06:24Z</time>
      </trkpt>
      <trkpt lat="48.51532" lon="2.66108">
        <ele>63.1</ele>
        <time>2011-10-02T12:06:25Z</time>
      </trkpt>
      <trkpt lat="48.51535" lon="2.66105">
        <ele>63.1</ele>
        <time>2011-10-02T12:06:26Z</time>
      </trkpt>
      <trkpt lat="48.51562" lon="2.66061">
        <ele>62.62</ele>
        <time>2011-10-02T12:06:37Z</time>
      </trkpt>
      <trkpt lat="48.51592" lon="2.66001">
        <ele>63.1</ele>
        <time>2011-10-02T12:06:50Z</time>
      </trkpt>
      <trkpt lat="48.51631" lon="2.65929">
        <ele>62.62</ele>
        <time>2011-10-02T12:07:03Z</time>
      </trkpt>
      <trkpt lat="48.51672" lon="2.65863">
        <ele>60.7</ele>
        <time>2011-10-02T12:07:16Z</time>
      </trkpt>
      <trkpt lat="48.51697" lon="2.65817">
        <ele>60.7</ele>
        <time>2011-10-02T12:07:24Z</time>
      </trkpt>
      <trkpt lat="48.517" lon="2.6581">
        <ele>60.7</ele>
        <time>2011-10-02T12:07:25Z</time>
      </trkpt>
      <trkpt lat="48.51749" lon="2.65724">
        <ele>58.78</ele>
        <time>2011-10-02T12:07:40Z</time>
      </trkpt>
      <trkpt lat="48.51752" lon="2.65719">
        <ele>58.3</ele>
        <time>2011-10-02T12:07:41Z</time>
      </trkpt>
      <trkpt lat="48.51775" lon="2.65656">
        <ele>59.26</ele>
        <time>2011-10-02T12:07:55Z</time>
      </trkpt>
      <trkpt lat="48.51765" lon="2.6566">
        <ele>59.26</ele>
        <time>2011-10-02T12:08:00Z</time>
      </trkpt>
      <trkpt lat="48.51762" lon="2.65664">
        <ele>59.26</ele>
        <time>2011-10-02T12:08:01Z</time>
      </trkpt>
      <trkpt lat="48.51759" lon="2.65668">
        <ele>59.26</ele>
        <time>2011-10-02T12:08:02Z</time>
      </trkpt>
      <trkpt lat="48.51756" lon="2.65672">
        <ele>59.74</ele>
        <time>2011-10-02T12:08:03Z</time>
      </trkpt>
      <trkpt lat="48.51754" lon="2.65676">
        <ele>59.74</ele>
        <time>2011-10-02T12:08:04Z</time>
      </trkpt>
      <trkpt lat="48.51751" lon="2.65681">
        <ele>59.74</ele>
        <time>2011-10-02T12:08:05Z</time>
      </trkpt>
      <trkpt lat="48.51728" lon="2.65708">
        <ele>60.7</ele>
        <time>2011-10-02T12:08:16Z</time>
      </trkpt>
      <trkpt lat="48.51726" lon="2.65707">
        <ele>61.18</ele>
        <time>2011-10-02T12:08:30Z</time>
      </trkpt>
      <trkpt lat="48.51726" lon="2.65707">
        <ele>61.18</ele>
        <time>2011-10-02T12:08:50Z</time>
      </trkpt>
      <trkpt lat="48.51726" lon="2.65715">
        <ele>60.7</ele>
        <time>2011-10-02T12:20:55Z</time>
      </trkpt>
      <trkpt lat="48.51731" lon="2.65707">
        <ele>61.66</ele>
        <time>2011-10-02T12:20:57Z</time>
      </trkpt>
      <trkpt lat="48.51732" lon="2.65703">
        <ele>62.62</ele>
        <time>2011-10-02T12:21:02Z</time>
      </trkpt>
      <trkpt lat="48.51731" lon="2.65702">
        <ele>64.07</ele>
        <time>2011-10-02T12:21:04Z</time>
      </trkpt>
    </trkseg>
  </trk>
</gpx>